LiveATC.Net - Listen to live air traffic control over the Internet!
Airport/ARTCC Code
Frequency Search
(e.g., 124.400, 128.75)
Site-wide search
 


Browse Feeds
Top 50 Feeds
HF Oceanic Feeds
Coverage Map
Bad Weather Areas

LiveATC FAQ
Offer LiveATC feed
Contact LiveATC.net
Press Inquiries

LiveATC on iPhone
LiveATC on Android

Windows Phone
Windows 8/10

LiveATC Mobile
(Mobile browser)

ATC Audio Archives
Interesting Recordings

LiveATC Forums

Home Page
About LiveATC.net
Make a Donation
Terms of Use
Privacy Policy

Canadian Air Freqs

AIRMETs/SIGMETs

FAA Airport Status
NAS Status
Arrival Demand


Server Software By:
Icecast.org
Liquidsoap

Select an area of interest:
U.S. Feeds: Class B Airports | Class C Airports | Class D/Other Airports | ARTCC (Centers)
International Feeds: Canada | Europe | Oceania | Asia | South America | North/Central America | Africa
Misc Feeds: HF Feeds
Search by ICAO/IATA airport code:   (e.g., kbos, kjfk, lax, eham, etc.)


Currently Available Live Feeds: 2912
Status Updated: Sun Jul 25 2021 07:17:38 UTC


NOTICE

Unauthorized use prohibited. See LiveATC.net Terms of Service

International Airport Feeds

 

EFKU Tower/Approach (Archives)
Siilinjarvi, Finland

Feed Status: UP
Listen in your browser - HTML5 player(in browser, HTML5)
Click here to listen with your own player(launches your MP3 player)

EFKU 250650Z AUTO 22005KT 180V260 CAVOK 18/09 Q1015

EFKU Flight Activity (Flightaware)

Listeners: 3 out of 1219 total

Kuopio Approach: 130.600
Kuopio Tower: 120.150

Dutch Mil Radar (Archives)
Amsterdam, Netherlands

Feed Status: UP
Listen in your browser - HTML5 player(in browser, HTML5)
Click here to listen with your own player(launches your MP3 player)

EHLE 250655Z AUTO 20007KT 170V230 5000 BR NSC 19/17 Q1007 BECMG 8000 NSW

EHLE Flight Activity (Flightaware)

Listeners: 0 out of 1219 total

Dutch Mil Flight Info: 264.325
Dutch Mil Radar: 128.355
Dutch Mil Radar: 132.350

EHAA Radar ARTIP (Archives)
Amsterdam, Netherlands

Feed Status: UP
Listen in your browser - HTML5 player(in browser, HTML5)
Click here to listen with your own player(launches your MP3 player)

EHAM 250655Z 21007KT CAVOK 19/17 Q1007 NOSIG

EHAM Flight Activity (Flightaware)

Listeners: 0 out of 1219 total

EHAA Radar Sector 1 ARTIP: 120.550

EHAA Radar East Inbound (Archives)
Amsterdam, Netherlands

Feed Status: UP
Listen in your browser - HTML5 player(in browser, HTML5)
Click here to listen with your own player(launches your MP3 player)

EHAM 250655Z 21007KT CAVOK 19/17 Q1007 NOSIG

EHAM Flight Activity (Flightaware)

Listeners: 0 out of 1219 total

EHAA Radar Sector 2 East Inbound: 128.575

EHAA Radar East Outbound (Archives)
Amsterdam, Netherlands

Feed Status: UP
Listen in your browser - HTML5 player(in browser, HTML5)
Click here to listen with your own player(launches your MP3 player)

EHAM 250655Z 21007KT CAVOK 19/17 Q1007 NOSIG

EHAM Flight Activity (Flightaware)

Listeners: 0 out of 1219 total

EHAA Radar Sector 2 East Outbound: 124.875

EHAA Radar North (Archives)
Amsterdam, Netherlands

Feed Status: UP
Listen in your browser - HTML5 player(in browser, HTML5)
Click here to listen with your own player(launches your MP3 player)

EHAM 250655Z 21007KT CAVOK 19/17 Q1007 NOSIG

EHAM Flight Activity (Flightaware)

Listeners: 0 out of 1219 total

EHAA Radar Sector 1 North: 134.375

EHAA Radar Northwest (Archives)
Amsterdam, Netherlands

Feed Status: UP
Listen in your browser - HTML5 player(in browser, HTML5)
Click here to listen with your own player(launches your MP3 player)

EHAM 250655Z 21007KT CAVOK 19/17 Q1007 NOSIG

EHAM Flight Activity (Flightaware)

Listeners: 0 out of 1219 total

EHAA Radar Sector 5 Northwest: 123.7000

EHAA Radar RIVER (Archives)
Amsterdam, Netherlands

Feed Status: UP
Listen in your browser - HTML5 player(in browser, HTML5)
Click here to listen with your own player(launches your MP3 player)

EHAM 250655Z 21007KT CAVOK 19/17 Q1007 NOSIG

EHAM Flight Activity (Flightaware)

Listeners: 0 out of 1219 total

EHAA Radar Sector 3 RIVER: 130.950

EHAA Radar South (Archives)
Amsterdam, Netherlands

Feed Status: UP
Listen in your browser - HTML5 player(in browser, HTML5)
Click here to listen with your own player(launches your MP3 player)

EHAM 250655Z 21007KT CAVOK 19/17 Q1007 NOSIG

EHAM Flight Activity (Flightaware)

Listeners: 0 out of 1219 total

EHAA Radar Sector 3 South: 123.850

EHAA Radar South (Backup) (Archives)
Amsterdam, Netherlands

Feed Status: UP
Listen in your browser - HTML5 player(in browser, HTML5)
Click here to listen with your own player(launches your MP3 player)

EHAM 250655Z 21007KT CAVOK 19/17 Q1007 NOSIG

EHAM Flight Activity (Flightaware)

Listeners: 0 out of 1219 total

EHAA Radar Sector 3 South Backup : 127.775

EHAA Radar Southwest (Archives)
Amsterdam, Netherlands

Feed Status: UP
Listen in your browser - HTML5 player(in browser, HTML5)
Click here to listen with your own player(launches your MP3 player)

EHAM 250655Z 21007KT CAVOK 19/17 Q1007 NOSIG

EHAM Flight Activity (Flightaware)

Listeners: 0 out of 1219 total

EHAA Radar Sector 4 Southwest: 125.750

EHAA Radar SUGOL (Archives)
Amsterdam, Netherlands

Feed Status: UP
Listen in your browser - HTML5 player(in browser, HTML5)
Click here to listen with your own player(launches your MP3 player)

EHAM 250655Z 21007KT CAVOK 19/17 Q1007 NOSIG

EHAM Flight Activity (Flightaware)

Listeners: 0 out of 1219 total

EHAA Radar Sector 5 SUGOL: 118.800

EHAM Airside Ops Mgr (AOM) (Archives)
Amsterdam, Netherlands

Feed Status: UP
Listen in your browser - HTML5 player(in browser, HTML5)
Click here to listen with your own player(launches your MP3 player)

EHAM 250655Z 21007KT CAVOK 19/17 Q1007 NOSIG

EHAM Flight Activity (Flightaware)

Listeners: 0 out of 1219 total

Schiphol Airside Operations Manager: 130.475

EHAM App/Dep Backup (Archives)
Amsterdam, Netherlands

Feed Status: UP
Listen in your browser - HTML5 player(in browser, HTML5)
Click here to listen with your own player(launches your MP3 player)

EHAM 250655Z 21007KT CAVOK 19/17 Q1007 NOSIG

EHAM Flight Activity (Flightaware)

Listeners: 0 out of 1219 total

Schiphol App/Dep Backup: 118.075

EHAM App/Dep TMA East (Archives)
Amsterdam, Netherlands

Feed Status: UP
Listen in your browser - HTML5 player(in browser, HTML5)
Click here to listen with your own player(launches your MP3 player)

EHAM 250655Z 21007KT CAVOK 19/17 Q1007 NOSIG

EHAM Flight Activity (Flightaware)

Listeners: 6 out of 1219 total

Amsterdam Approach/Departure TMA East: 119.055

EHAM App/Dep TMA West (Archives)
Amsterdam, Netherlands

Feed Status: UP
Listen in your browser - HTML5 player(in browser, HTML5)
Click here to listen with your own player(launches your MP3 player)

EHAM 250655Z 21007KT CAVOK 19/17 Q1007 NOSIG

EHAM Flight Activity (Flightaware)

Listeners: 1 out of 1219 total

Amsterdam Approach/Departure TMA West: 121.200

EHAM Apron (North) (Archives)
Amsterdam, Netherlands

Feed Status: UP
Listen in your browser - HTML5 player(in browser, HTML5)
Click here to listen with your own player(launches your MP3 player)

EHAM 250655Z 21007KT CAVOK 19/17 Q1007 NOSIG

EHAM Flight Activity (Flightaware)

Listeners: 0 out of 1219 total

Schiphol Apron (North): 121.880

EHAM Apron (South) (Archives)
Amsterdam, Netherlands

Feed Status: UP
Listen in your browser - HTML5 player(in browser, HTML5)
Click here to listen with your own player(launches your MP3 player)

EHAM 250655Z 21007KT CAVOK 19/17 Q1007 NOSIG

EHAM Flight Activity (Flightaware)

Listeners: 0 out of 1219 total

Schiphol Apron (South): 121.780

EHAM Arrival (Primary) (Archives)
Amsterdam, Netherlands

Feed Status: UP
Listen in your browser - HTML5 player(in browser, HTML5)
Click here to listen with your own player(launches your MP3 player)

EHAM 250655Z 21007KT CAVOK 19/17 Q1007 NOSIG

EHAM Flight Activity (Flightaware)

Listeners: 1 out of 1219 total

Amsterdam Arrival : 118.400

EHAM Arrival (Secondary) (Archives)
Amsterdam, Netherlands

Feed Status: UP
Listen in your browser - HTML5 player(in browser, HTML5)
Click here to listen with your own player(launches your MP3 player)

EHAM 250655Z 21007KT CAVOK 19/17 Q1007 NOSIG

EHAM Flight Activity (Flightaware)

Listeners: 0 out of 1219 total

Amsterdam Arrival (Secondary): 131.150

EHAM Arrival (Secondary/Backup) (Archives)
Amsterdam, Netherlands

Feed Status: UP
Listen in your browser - HTML5 player(in browser, HTML5)
Click here to listen with your own player(launches your MP3 player)

EHAM 250655Z 21007KT CAVOK 19/17 Q1007 NOSIG

EHAM Flight Activity (Flightaware)

Listeners: 0 out of 1219 total

Amsterdam Arrival (Secondary Backup): 131.275

EHAM Arrival Backup/Discrete (Archives)
Amsterdam, Netherlands

Feed Status: UP
Listen in your browser - HTML5 player(in browser, HTML5)
Click here to listen with your own player(launches your MP3 player)

EHAM 250655Z 21007KT CAVOK 19/17 Q1007 NOSIG

EHAM Flight Activity (Flightaware)

Listeners: 0 out of 1219 total

Schiphol Arrival Backup: 126.675

EHAM Clearance Delivery (Archives)
Amsterdam, Netherlands

Feed Status: UP
Listen in your browser - HTML5 player(in browser, HTML5)
Click here to listen with your own player(launches your MP3 player)

EHAM 250655Z 21007KT CAVOK 19/17 Q1007 NOSIG

EHAM Flight Activity (Flightaware)

Listeners: 1 out of 1219 total

Schiphol Clearance Delivery: 121.980

EHAM Ground (Backup) (Archives)
Amsterdam, Netherlands

Feed Status: UP
Listen in your browser - HTML5 player(in browser, HTML5)
Click here to listen with your own player(launches your MP3 player)

EHAM 250655Z 21007KT CAVOK 19/17 Q1007 NOSIG

EHAM Flight Activity (Flightaware)

Listeners: 0 out of 1219 total

Schiphol Ground (Backup): 122.425

EHAM Ground (North) (Archives)
Amsterdam, Netherlands

Feed Status: UP
Listen in your browser - HTML5 player(in browser, HTML5)
Click here to listen with your own player(launches your MP3 player)

EHAM 250655Z 21007KT CAVOK 19/17 Q1007 NOSIG

EHAM Flight Activity (Flightaware)

Listeners: 0 out of 1219 total

Schiphol Ground (North): 121.805

EHAM Ground (South) (Archives)
Amsterdam, Netherlands

Feed Status: UP
Listen in your browser - HTML5 player(in browser, HTML5)
Click here to listen with your own player(launches your MP3 player)

EHAM 250655Z 21007KT CAVOK 19/17 Q1007 NOSIG

EHAM Flight Activity (Flightaware)

Listeners: 0 out of 1219 total

Schiphol Ground (South): 121.705

EHAM Ground (West) (Archives)
Amsterdam, Netherlands

Feed Status: UP
Listen in your browser - HTML5 player(in browser, HTML5)
Click here to listen with your own player(launches your MP3 player)

EHAM 250655Z 21007KT CAVOK 19/17 Q1007 NOSIG

EHAM Flight Activity (Flightaware)

Listeners: 0 out of 1219 total

Schiphol Ground (West): 121.560

EHAM Info North Sea (North) (Archives)
Amsterdam, Netherlands

Feed Status: UP
Listen in your browser - HTML5 player(in browser, HTML5)
Click here to listen with your own player(launches your MP3 player)

EHAM 250655Z 21007KT CAVOK 19/17 Q1007 NOSIG

EHAM Flight Activity (Flightaware)

Listeners: 0 out of 1219 total

Amsterdam Info North Sea (North): 119.175

EHAM Info North Sea (Over Land) (Archives)
Amsterdam, Netherlands

Feed Status: UP
Listen in your browser - HTML5 player(in browser, HTML5)
Click here to listen with your own player(launches your MP3 player)

EHAM 250655Z 21007KT CAVOK 19/17 Q1007 NOSIG

EHAM Flight Activity (Flightaware)

Listeners: 1 out of 1219 total

Amsterdam Info North Sea (Over Land): 124.300

EHAM Info North Sea (South) (Archives)
Amsterdam, Netherlands

Feed Status: UP
Listen in your browser - HTML5 player(in browser, HTML5)
Click here to listen with your own player(launches your MP3 player)

EHAM 250655Z 21007KT CAVOK 19/17 Q1007 NOSIG

EHAM Flight Activity (Flightaware)

Listeners: 0 out of 1219 total

Amsterdam Info North Sea (South): 136.650

EHAM Schiphol Outbound Planner (Archives)
Amsterdam, Netherlands

Feed Status: UP
Listen in your browser - HTML5 player(in browser, HTML5)
Click here to listen with your own player(launches your MP3 player)

EHAM 250655Z 21007KT CAVOK 19/17 Q1007 NOSIG

EHAM Flight Activity (Flightaware)

Listeners: 0 out of 1219 total

Schiphol Outbound Planner: 121.655

EHAM Tow Traffic (Archives)
Amsterdam, Netherlands

Feed Status: UP
Listen in your browser - HTML5 player(in browser, HTML5)
Click here to listen with your own player(launches your MP3 player)

EHAM 250655Z 21007KT CAVOK 19/17 Q1007 NOSIG

EHAM Flight Activity (Flightaware)

Listeners: 1 out of 1219 total

Schiphol Tow Traffic: 134.875

EHAM Tower (06/24) (Archives)
Amsterdam, Netherlands

Feed Status: UP
Listen in your browser - HTML5 player(in browser, HTML5)
Click here to listen with your own player(launches your MP3 player)

EHAM 250655Z 21007KT CAVOK 19/17 Q1007 NOSIG

EHAM Flight Activity (Flightaware)

Listeners: 1 out of 1219 total

Schiphol Tower Main 06/24: 135.110

EHAM Tower (18C/36C-27/09) (Archives)
Amsterdam, Netherlands

Feed Status: UP
Listen in your browser - HTML5 player(in browser, HTML5)
Click here to listen with your own player(launches your MP3 player)

EHAM 250655Z 21007KT CAVOK 19/17 Q1007 NOSIG

EHAM Flight Activity (Flightaware)

Listeners: 4 out of 1219 total

Schiphol Tower Main 18C/36C - 27/09: 118.100

EHAM Tower (18L/36R-22/04) (Archives)
Amsterdam, Netherlands

Feed Status: UP
Listen in your browser - HTML5 player(in browser, HTML5)
Click here to listen with your own player(launches your MP3 player)

EHAM 250655Z 21007KT CAVOK 19/17 Q1007 NOSIG

EHAM Flight Activity (Flightaware)

Listeners: 5 out of 1219 total

Schiphol Tower Main 18L/36R - 22/04: 119.225

EHAM Tower Backup (Archives)
Amsterdam, Netherlands

Feed Status: UP
Listen in your browser - HTML5 player(in browser, HTML5)
Click here to listen with your own player(launches your MP3 player)

EHAM 250655Z 21007KT CAVOK 19/17 Q1007 NOSIG

EHAM Flight Activity (Flightaware)

Listeners: 0 out of 1219 total

Schiphol Tower Backup: 119.905

EHAM Tower West (18R/36L) (Archives)
Amsterdam, Netherlands

Feed Status: UP
Listen in your browser - HTML5 player(in browser, HTML5)
Click here to listen with your own player(launches your MP3 player)

EHAM 250655Z 21007KT CAVOK 19/17 Q1007 NOSIG

EHAM Flight Activity (Flightaware)

Listeners: 1 out of 1219 total

Schiphol Tower West 18R/36L: 118.280

EHBK ATIS (Archives)
Beek, Netherlands

Feed Status: UP
Listen in your browser - HTML5 player(in browser, HTML5)
Click here to listen with your own player(launches your MP3 player)

EHBK 250655Z AUTO 20008KT 170V230 9999 NCD 19/16 Q1008 NOSIG

EHBK Flight Activity (Flightaware)

Listeners: 0 out of 1219 total

Beek ATIS: 124.575

EHBK Gnd/Twr/App (Archives)
Beek, Netherlands

Feed Status: UP
Listen in your browser - HTML5 player(in browser, HTML5)
Click here to listen with your own player(launches your MP3 player)

EHBK 250655Z AUTO 20008KT 170V230 9999 NCD 19/16 Q1008 NOSIG

EHBK Flight Activity (Flightaware)

Listeners: 2 out of 1219 total

Beek Approach: 120.200
Beek Approach: 123.975
Beek Ground: 121.825
Beek Tower: 119.475
Beek Tower: 119.700

MUAC/Eurocontrol Delta High (Archives)
Beek, Netherlands

Feed Status: UP
Listen in your browser - HTML5 player(in browser, HTML5)
Click here to listen with your own player(launches your MP3 player)

EHBK 250655Z AUTO 20008KT 170V230 9999 NCD 19/16 Q1008 NOSIG

EHBK Flight Activity (Flightaware)

Listeners: 0 out of 1219 total

MUAC Delta High Sector: 132.085

MUAC/Eurocontrol Koksy (Archives)
Beek, Netherlands

Feed Status: UP
Listen in your browser - HTML5 player(in browser, HTML5)
Click here to listen with your own player(launches your MP3 player)

EHBK 250655Z AUTO 20008KT 170V230 9999 NCD 19/16 Q1008 NOSIG

EHBK Flight Activity (Flightaware)

Listeners: 0 out of 1219 total

MUAC Koksy Sector: 132.205

MUAC/Eurocontrol Koksy High (Archives)
Beek, Netherlands

Feed Status: UP
Listen in your browser - HTML5 player(in browser, HTML5)
Click here to listen with your own player(launches your MP3 player)

EHBK 250655Z AUTO 20008KT 170V230 9999 NCD 19/16 Q1008 NOSIG

EHBK Flight Activity (Flightaware)

Listeners: 0 out of 1219 total

MUAC Koksy High Sector: 132.755

MUAC/Eurocontrol Lux High (Archives)
Beek, Netherlands

Feed Status: UP
Listen in your browser - HTML5 player(in browser, HTML5)
Click here to listen with your own player(launches your MP3 player)

EHBK 250655Z AUTO 20008KT 170V230 9999 NCD 19/16 Q1008 NOSIG

EHBK Flight Activity (Flightaware)

Listeners: 0 out of 1219 total

MUAC Lux High Sector: 132.315

MUAC/Eurocontrol Lux Low (Archives)
Beek, Netherlands

Feed Status: UP
Listen in your browser - HTML5 player(in browser, HTML5)
Click here to listen with your own player(launches your MP3 player)

EHBK 250655Z AUTO 20008KT 170V230 9999 NCD 19/16 Q1008 NOSIG

EHBK Flight Activity (Flightaware)

Listeners: 0 out of 1219 total

MUAC Lux Low Sector: 133.355

MUAC/Eurocontrol Olno Low (Archives)
Beek, Netherlands

Feed Status: UP
Listen in your browser - HTML5 player(in browser, HTML5)
Click here to listen with your own player(launches your MP3 player)

EHBK 250655Z AUTO 20008KT 170V230 9999 NCD 19/16 Q1008 NOSIG

EHBK Flight Activity (Flightaware)

Listeners: 0 out of 1219 total

MUAC Olno Low Sector: 132.855

MUAC/Eurocontrol Ruhr (Archives)
Beek, Netherlands

Feed Status: UP
Listen in your browser - HTML5 player(in browser, HTML5)
Click here to listen with your own player(launches your MP3 player)

EHBK 250655Z AUTO 20008KT 170V230 9999 NCD 19/16 Q1008 NOSIG

EHBK Flight Activity (Flightaware)

Listeners: 0 out of 1219 total

MUAC Ruhr Sector: 132.515

EHEH Approach #1 (Archives)
Eindhoven, Netherlands

Feed Status: UP
Listen in your browser - HTML5 player(in browser, HTML5)
Click here to listen with your own player(launches your MP3 player)

EHEH 250655Z AUTO 20007KT 170V250 9999 FEW009 SCT058 BKN069 19/17 Q1007 BLU NOSIG

EHEH Flight Activity (Flightaware)

Listeners: 0 out of 1219 total

DutchMil Info: 132.355
DutchMil Info UHF: 341.600
DutchMil RAPCON South: 123.180
Eindhoven Arrival: 125.530
Eindhoven Arrival (UHF): 265.975
Emergency/Guard: 121.500
Rapcon South UHF: 388.525
Volkel Arrival UHF: 291.200

EHEH Ground
Eindhoven, Netherlands

Feed Status: DOWN
Offline since: 2020-04-23 06:00:22 UTC

EHEH 250655Z AUTO 20007KT 170V250 9999 FEW009 SCT058 BKN069 19/17 Q1007 BLU NOSIG

Eindhoven Ground: 121.930
Eindhoven Ground: 369.250

EHEH Tower #1 (Archives)
Eindhoven, Netherlands

Feed Status: UP
Listen in your browser - HTML5 player(in browser, HTML5)
Click here to listen with your own player(launches your MP3 player)

EHEH 250655Z AUTO 20007KT 170V250 9999 FEW009 SCT058 BKN069 19/17 Q1007 BLU NOSIG

EHEH Flight Activity (Flightaware)

Listeners: 0 out of 1219 total

Eindhoven Tower: 131.005
Eindhoven Tower (UHF): 241.550
Generic Tower: 122.100
Generic Tower (UHF): 257.800
Volkel Tower: 136.080
Volkel Tower (UHF): 291.100

EHEH Tower #2
Eindhoven, Netherlands

Feed Status: DOWN
Offline since: 2020-04-23 06:00:22 UTC

EHEH 250655Z AUTO 20007KT 170V250 9999 FEW009 SCT058 BKN069 19/17 Q1007 BLU NOSIG

Eindhoven Tower: 122.100
Eindhoven Tower: 131.005
Eindhoven Tower: 281.150

EHGG Approach (Archives)
Groningen, Netherlands

Feed Status: UP
Listen in your browser - HTML5 player(in browser, HTML5)
Click here to listen with your own player(launches your MP3 player)

EHGG 250655Z AUTO 22011KT 9000 FEW007/// SCT008/// BKN009/// 19/18 Q1005 BECMG SCT015

EHGG Flight Activity (Flightaware)

Listeners: 0 out of 1219 total

Eelde Approach: 120.305

EHGG ATIS (Archives)
Groningen, Netherlands

Feed Status: UP
Listen in your browser - HTML5 player(in browser, HTML5)
Click here to listen with your own player(launches your MP3 player)

EHGG 250655Z AUTO 22011KT 9000 FEW007/// SCT008/// BKN009/// 19/18 Q1005 BECMG SCT015

EHGG Flight Activity (Flightaware)

Listeners: 0 out of 1219 total

Groningen ATIS: 133.555

EHGG Ground (Archives)
Groningen, Netherlands

Feed Status: UP
Listen in your browser - HTML5 player(in browser, HTML5)
Click here to listen with your own player(launches your MP3 player)

EHGG 250655Z AUTO 22011KT 9000 FEW007/// SCT008/// BKN009/// 19/18 Q1005 BECMG SCT015

EHGG Flight Activity (Flightaware)

Listeners: 1 out of 1219 total

Eelde Clearance Delivery/Ground: 121.705

EHGG Guard/Emergency (Archives)
Groningen, Netherlands

Feed Status: UP
Listen in your browser - HTML5 player(in browser, HTML5)
Click here to listen with your own player(launches your MP3 player)

EHGG 250655Z AUTO 22011KT 9000 FEW007/// SCT008/// BKN009/// 19/18 Q1005 BECMG SCT015

EHGG Flight Activity (Flightaware)

Listeners: 0 out of 1219 total

Emergency/Guard: 121.500

EHGG Tower (Archives)
Groningen, Netherlands

Feed Status: UP
Listen in your browser - HTML5 player(in browser, HTML5)
Click here to listen with your own player(launches your MP3 player)

EHGG 250655Z AUTO 22011KT 9000 FEW007/// SCT008/// BKN009/// 19/18 Q1005 BECMG SCT015

EHGG Flight Activity (Flightaware)

Listeners: 2 out of 1219 total

Eelde Tower: 118.705

EHGG Twr/App (Secondary) (Archives)
Groningen, Netherlands

Feed Status: UP
Listen in your browser - HTML5 player(in browser, HTML5)
Click here to listen with your own player(launches your MP3 player)

EHGG 250655Z AUTO 22011KT 9000 FEW007/// SCT008/// BKN009/// 19/18 Q1005 BECMG SCT015

EHGG Flight Activity (Flightaware)

Listeners: 0 out of 1219 total

Eelde Tower/App (Backup): 119.705

MUAC/Eurocontrol (EHGG Area) (Archives)
Groningen, Netherlands

Feed Status: UP
Listen in your browser - HTML5 player(in browser, HTML5)
Click here to listen with your own player(launches your MP3 player)

EHGG 250655Z AUTO 22011KT 9000 FEW007/// SCT008/// BKN009/// 19/18 Q1005 BECMG SCT015

EHGG Flight Activity (Flightaware)

Listeners: 0 out of 1219 total

MUAC Holstein High Sector: 132.775
MUAC Holstein Sector: 120.9333
MUAC Javer High Sector: 134.700
MUAC Jever Sector: 136.4666

EHGR Ground (Archives)
Breda, Netherlands

Feed Status: UP
Listen in your browser - HTML5 player(in browser, HTML5)
Click here to listen with your own player(launches your MP3 player)

EHGR 250655Z AUTO 20006KT 160V270 9999 BKN091 19/17 Q1007 BLU

EHGR Flight Activity (Flightaware)

Listeners: 0 out of 1219 total

Gilze Rijen Ground: 121.680

EHGR Ground/Tower (Archives)
Breda, Netherlands

Feed Status: UP
Listen in your browser - HTML5 player(in browser, HTML5)
Click here to listen with your own player(launches your MP3 player)

EHGR 250655Z AUTO 20006KT 160V270 9999 BKN091 19/17 Q1007 BLU

EHGR Flight Activity (Flightaware)

Listeners: 0 out of 1219 total

Gilze Rijen Ground: 121.680
Gilze Rijen Tower: 125.330

EHGR Tower (Archives)
Breda, Netherlands

Feed Status: UP
Listen in your browser - HTML5 player(in browser, HTML5)
Click here to listen with your own player(launches your MP3 player)

EHGR 250655Z AUTO 20006KT 160V270 9999 BKN091 19/17 Q1007 BLU

EHGR Flight Activity (Flightaware)

Listeners: 0 out of 1219 total

Gilze Rijen Tower: 125.330

EHHV CTAF (Archives)
Hilversum, Netherlands

Feed Status: UP
Listen in your browser - HTML5 player(in browser, HTML5)
Click here to listen with your own player(launches your MP3 player)

EHHV Flight Activity (Flightaware)

Listeners: 0 out of 1219 total

Hilversum Radio: 131.030

EHKD ATIS (Archives)
Den Helder, Netherlands

Feed Status: UP
Listen in your browser - HTML5 player(in browser, HTML5)
Click here to listen with your own player(launches your MP3 player)

EHKD 250655Z AUTO 28005KT 230V320 3500 R21/P3000N BR FEW015CB OVC049 19/17 Q1006 YLO NOSIG

EHKD Flight Activity (Flightaware)

Listeners: 0 out of 1219 total

De Kooy ATIS: 133.015

EHKD Ground/Tower (Archives)
Den Helder, Netherlands

Feed Status: UP
Listen in your browser - HTML5 player(in browser, HTML5)
Click here to listen with your own player(launches your MP3 player)

EHKD 250655Z AUTO 28005KT 230V320 3500 R21/P3000N BR FEW015CB OVC049 19/17 Q1006 YLO NOSIG

EHKD Flight Activity (Flightaware)

Listeners: 1 out of 1219 total

De Kooy Ground: 121.730
De Kooy Tower: 120.130

Approach/Dutch Mil Radar (Archives)
Lelystad, Netherlands

Feed Status: UP
Listen in your browser - HTML5 player(in browser, HTML5)
Click here to listen with your own player(launches your MP3 player)

EHLE 250655Z AUTO 20007KT 170V230 5000 BR NSC 19/17 Q1007 BECMG 8000 NSW

EHLE Flight Activity (Flightaware)

Listeners: 0 out of 1219 total

Dutch Mil Flight Info: 264.325
Dutch Mil Radar: 128.355
Dutch Mil Radar: 132.350

EHLE Tower (Archives)
Lelystad, Netherlands

Feed Status: UP
Listen in your browser - HTML5 player(in browser, HTML5)
Click here to listen with your own player(launches your MP3 player)

EHLE 250655Z AUTO 20007KT 170V230 5000 BR NSC 19/17 Q1007 BECMG 8000 NSW

EHLE Flight Activity (Flightaware)

Listeners: 0 out of 1219 total

Lelystad Clearance Delivery: 123.680
Lelystad Tower: 135.180
Lelystad Tower: 123.830

EHMM CTAF (Archives)
Middenmeer, Netherlands

Feed Status: UP
Listen in your browser - HTML5 player(in browser, HTML5)
Click here to listen with your own player(launches your MP3 player)

EHMM Flight Activity (Flightaware)

Listeners: 0 out of 1219 total

Middenmeer CTAF: 123.425

EHMZ (Archives)
Middelburg, Netherlands

Feed Status: UP
Listen in your browser - HTML5 player(in browser, HTML5)
Click here to listen with your own player(launches your MP3 player)

EHMZ Flight Activity (Flightaware)

Listeners: 0 out of 1219 total

Midden-Zeeland Radio: 119.255

EHRD Approach (Archives)
Rotterdam, Netherlands

Feed Status: UP
Listen in your browser - HTML5 player(in browser, HTML5)
Click here to listen with your own player(launches your MP3 player)

EHRD 250655Z AUTO 20005KT 160V220 9999 NSC 19/17 Q1007 NOSIG

EHRD Flight Activity (Flightaware)

Listeners: 0 out of 1219 total

Rotterdam Approach: 122.990
Rotterdam Approach: 124.535
Rotterdam Approach: 281.050

EHRD Clearance Delivery (Archives)
Rotterdam, Netherlands

Feed Status: UP
Listen in your browser - HTML5 player(in browser, HTML5)
Click here to listen with your own player(launches your MP3 player)

EHRD 250655Z AUTO 20005KT 160V220 9999 NSC 19/17 Q1007 NOSIG

EHRD Flight Activity (Flightaware)

Listeners: 0 out of 1219 total

Rotterdam Del/Gnd: 122.180

EHRD Del/Twr (Archives)
Rotterdam, Netherlands

Feed Status: UP
Listen in your browser - HTML5 player(in browser, HTML5)
Click here to listen with your own player(launches your MP3 player)

EHRD 250655Z AUTO 20005KT 160V220 9999 NSC 19/17 Q1007 NOSIG

EHRD Flight Activity (Flightaware)

Listeners: 0 out of 1219 total

Rotterdam Del/Gnd: 122.180
Rotterdam Tower: 118.205

EHRD Gnd/Twr/App (Archives)
Rotterdam, Netherlands

Feed Status: UP
Listen in your browser - HTML5 player(in browser, HTML5)
Click here to listen with your own player(launches your MP3 player)

EHRD 250655Z AUTO 20005KT 160V220 9999 NSC 19/17 Q1007 NOSIG

EHRD Flight Activity (Flightaware)

Listeners: 5 out of 1219 total

Adam Info: 124.300
Regional Guard: 119.705
Rotterdam Approach: 127.025
Rotterdam Del/Gnd: 122.180
Rotterdam Tower: 118.205
SAR: 123.100
SAR: 282.800

EHRD Tower (Archives)
Rotterdam, Netherlands

Feed Status: UP
Listen in your browser - HTML5 player(in browser, HTML5)
Click here to listen with your own player(launches your MP3 player)

EHRD 250655Z AUTO 20005KT 160V220 9999 NSC 19/17 Q1007 NOSIG

EHRD Flight Activity (Flightaware)

Listeners: 0 out of 1219 total

Rotterdam Tower: 118.205
Rotterdam Tower: 362.300

EHRD Twr/App
Rotterdam, Netherlands

Feed Status: DOWN
Offline since: 2020-03-14 14:15:39 UTC

EHRD 250655Z AUTO 20005KT 160V220 9999 NSC 19/17 Q1007 NOSIG

Rotterdam Approach: 127.025
Rotterdam Tower: 118.205

EHSE Radio/FIC (Archives)
Bosschenhoofd, Netherlands

Feed Status: UP
Listen in your browser - HTML5 player(in browser, HTML5)
Click here to listen with your own player(launches your MP3 player)

EHSE Flight Activity (Flightaware)

Listeners: 0 out of 1219 total

Dutch MIL Info FIC: 132.350
Seppe Radio (Tower/Ground): 120.655

EHTX Gnd/Twr
Texel, Netherlands

Feed Status: DOWN
Offline since: 2021-06-08 14:20:38 UTC

Texel Radio (Ground/Tower): 119.300

EHVL CTAF/Range Control
Vlieland, Netherlands

Feed Status: DOWN
Offline since: 2021-06-08 14:20:38 UTC

EHVL 250655Z AUTO 31009KT 3900 -RA FEW003 BKN015CB OVC087 18/18 Q1006 RERA GRN

Cornfield VHF (CTAF): 122.100
Range Controller (Primary): 291.650
Range Controller (Secondary): 370.300
Range Controller VHF: 138.075

EICK Approach/Departure
Cork, Ireland

Feed Status: DOWN
Offline since: 2021-05-13 10:03:39 UTC

EICK 250630Z 34004KT 9999 FEW014 15/13 Q1010 NOSIG

Cork Approach: 119.900

EICK Gnd/Twr/App/Dep
Cork, Ireland

Feed Status: DOWN
Offline since: 2021-05-13 10:03:39 UTC

EICK 250630Z 34004KT 9999 FEW014 15/13 Q1010 NOSIG

Cork Approach: 119.900
Cork Ground: 121.850
Cork Tower: 119.300

EICK Ground/Tower
Cork, Ireland

Feed Status: DOWN
Offline since: 2021-05-13 10:03:39 UTC

EICK 250630Z 34004KT 9999 FEW014 15/13 Q1010 NOSIG

Cork Ground: 121.850
Cork Tower: 119.300

EIDW Approach (Archives)
Dublin, Ireland

Feed Status: UP
Listen in your browser - HTML5 player(in browser, HTML5)
Click here to listen with your own player(launches your MP3 player)

EIDW 250630Z VRB02KT 9999 FEW010 SCT200 13/13 Q1011 NOSIG

EIDW Flight Activity (Flightaware)

Listeners: 1 out of 1219 total

Dublin Approach: 121.100

EIDW Approach (Final) (Archives)
Dublin, Ireland

Feed Status: UP
Listen in your browser - HTML5 player(in browser, HTML5)
Click here to listen with your own player(launches your MP3 player)

EIDW 250630Z VRB02KT 9999 FEW010 SCT200 13/13 Q1011 NOSIG

EIDW Flight Activity (Flightaware)

Listeners: 1 out of 1219 total

Dublin Approach (Final): 119.925

EIDW Clearance Delivery (Archives)
Dublin, Ireland

Feed Status: UP
Listen in your browser - HTML5 player(in browser, HTML5)
Click here to listen with your own player(launches your MP3 player)

EIDW 250630Z VRB02KT 9999 FEW010 SCT200 13/13 Q1011 NOSIG

EIDW Flight Activity (Flightaware)

Listeners: 2 out of 1219 total

Dublin Clearance Delivery: 121.875

EIDW Del/Gnd/Twr/App/Center (Archives)
Dublin, Ireland

Feed Status: UP
Listen in your browser - HTML5 player(in browser, HTML5)
Click here to listen with your own player(launches your MP3 player)

EIDW 250630Z VRB02KT 9999 FEW010 SCT200 13/13 Q1011 NOSIG

EIDW Flight Activity (Flightaware)

Listeners: 19 out of 1219 total

Dublin Approach: 121.100
Dublin Approach (backup): 119.550
Dublin Centre North: 129.175
Dublin Centre South: 126.250
Dublin Clearance Delivery: 121.875
Dublin FIS: 118.500
Dublin Ground: 121.800
Dublin Tower: 118.600

EIDW Ground (Archives)
Dublin, Ireland

Feed Status: UP
Listen in your browser - HTML5 player(in browser, HTML5)
Click here to listen with your own player(launches your MP3 player)

EIDW 250630Z VRB02KT 9999 FEW010 SCT200 13/13 Q1011 NOSIG

EIDW Flight Activity (Flightaware)

Listeners: 1 out of 1219 total

Dublin Ground: 121.800

EIDW Ground (North) (Archives)
Dublin, Ireland

Feed Status: UP
Listen in your browser - HTML5 player(in browser, HTML5)
Click here to listen with your own player(launches your MP3 player)

EIDW 250630Z VRB02KT 9999 FEW010 SCT200 13/13 Q1011 NOSIG

EIDW Flight Activity (Flightaware)

Listeners: 2 out of 1219 total

Dublin Ground (North): 118.750

EIDW Tower (Archives)
Dublin, Ireland

Feed Status: UP
Listen in your browser - HTML5 player(in browser, HTML5)
Click here to listen with your own player(launches your MP3 player)

EIDW 250630Z VRB02KT 9999 FEW010 SCT200 13/13 Q1011 NOSIG

EIDW Flight Activity (Flightaware)

Listeners: 1 out of 1219 total

Dublin Tower: 118.600

EIKN Gnd/Twr/App (Archives)
Charlestown, Ireland

Feed Status: UP
Listen in your browser - HTML5 player(in browser, HTML5)
Click here to listen with your own player(launches your MP3 player)

EIKN 250630Z 15002KT 9999 FEW038 15/14 Q1011 NOSIG

EIKN Flight Activity (Flightaware)

Listeners: 1 out of 1219 total

Connaught Ground: 121.900
Connaught Tower: 130.700
Shannon Low Level: 119.075

EINN Shannon Control High (East) (Archives)
Shannon, Ireland

Feed Status: UP
Listen in your browser - HTML5 player(in browser, HTML5)
Click here to listen with your own player(launches your MP3 player)

EINN 250630Z 01002KT 3000 BR MIFG FEW001 15/13 Q1011 BECMG 9999

EINN Flight Activity (Flightaware)

Listeners: 0 out of 1219 total

Shannon Clearance (Oceanic only): 121.700
Shannon Control: 134.260
Shannon Control: 134.630
Shannon Control: 135.230
Shannon Control: 135.600
Shannon Control: 136.255
Shannon Control (BABAN/DEVOL Sector): 132.150

EINN Shannon Control High (West/Coastal) (Archives)
Shannon, Ireland

Feed Status: UP
Listen in your browser - HTML5 player(in browser, HTML5)
Click here to listen with your own player(launches your MP3 player)

EINN 250630Z 01002KT 3000 BR MIFG FEW001 15/13 Q1011 BECMG 9999

EINN Flight Activity (Flightaware)

Listeners: 2 out of 1219 total

Shannon Control: 131.150
Shannon Control: 125.880
Shannon Control: 120.040
Shannon Control: 122.980
Shannon Control: 127.130
Shannon Control: 129.665
Shannon Control: 133.360

EINN Shannon Control Low (Archives)
Shannon, Ireland

Feed Status: UP
Listen in your browser - HTML5 player(in browser, HTML5)
Click here to listen with your own player(launches your MP3 player)

EINN 250630Z 01002KT 3000 BR MIFG FEW001 15/13 Q1011 BECMG 9999

EINN Flight Activity (Flightaware)

Listeners: 0 out of 1219 total

Shannon Control (Low): 119.080
Shannon Control Low: 124.700

EINN Twr/App #1 (Archives)
Shannon, Ireland

Feed Status: UP
Listen in your browser - HTML5 player(in browser, HTML5)
Click here to listen with your own player(launches your MP3 player)

EINN 250630Z 01002KT 3000 BR MIFG FEW001 15/13 Q1011 BECMG 9999

EINN Flight Activity (Flightaware)

Listeners: 3 out of 1219 total

Aer Lingus Ops: 131.500
Service Air Ops: 131.450
Shannon Approach Radar: 121.400
Shannon Control: Misc
Shannon Ground: 121.800
Shannon Tower: 118.700
Sig Ops (Pre-Clearance): 131.590

ENAT Twr/App/Control (Archives)
Alta, Norway

Feed Status: UP
Listen in your browser - HTML5 player(in browser, HTML5)
Click here to listen with your own player(launches your MP3 player)

ENAT 250650Z AUTO 11003KT 080V150 9999 FEW012/// BKN018/// OVC026/// 10/07 Q1012 RMK WIND 700FT VRB03KT

ENAT Flight Activity (Flightaware)

Listeners: 0 out of 1219 total

Alta Tower (to boat, Harbour Channel 12): 156.600
Alta Tower (to vehicle): 462.400
Alta Tower/Approach: 120.400
Norway Control: 126.700

ENBO Tower
Bodo, Norway

Feed Status: DOWN
Offline since: 2020-11-13 22:27:21 UTC

ENBO 250650Z 11008KT 9999 FEW003 BKN025 13/12 Q1016

Bodo Tower: 118.100

ENCN Tower/Approach (Archives)
Kristiansand, Norway

Feed Status: UP
Listen in your browser - HTML5 player(in browser, HTML5)
Click here to listen with your own player(launches your MP3 player)

ENCN 250650Z 04010KT CAVOK 20/14 Q1014

ENCN Flight Activity (Flightaware)

Listeners: 1 out of 1219 total

Kjevik Tower: 118.100
Kjevik Tower/Approach: 119.950

ENGM App/Polaris ACC (Archives)
Honefoss, Norway

Feed Status: UP
Listen in your browser - HTML5 player(in browser, HTML5)
Click here to listen with your own player(launches your MP3 player)

ENEG Flight Activity (Flightaware)

Listeners: 0 out of 1219 total

ENGM Approach (East): 118.475
ENGM Approach (West): 120.450
Polaris ACC Sector 4: 118.875
Polaris ACC Sector 7: 124.775
Polaris ACC Sector 8: 134.350

ENEV Twr/App/ACC (Archives)
Evenes, Norway

Feed Status: UP
Listen in your browser - HTML5 player(in browser, HTML5)
Click here to listen with your own player(launches your MP3 player)

ENEV 250650Z AUTO 23010G21KT 180V290 9999 -RA BKN005/// OVC008/// 12/11 Q1014 RMK WIND 1400FT 23025KT

ENEV Flight Activity (Flightaware)

Listeners: 0 out of 1219 total

Evenes Approach: 120.100
Evenes Tower: 118.000
Norway ACC (Bodo Sector 25): 126.450

ENGK Info (Archives)
Arendal, Norway

Feed Status: UP
Listen in your browser - HTML5 player(in browser, HTML5)
Click here to listen with your own player(launches your MP3 player)


ENGK Flight Activity (Flightaware)

Listeners: 0 out of 1219 total

Gullknapp Info: 129.900

ENGM App/Polaris ACC (Archives)
Oslo, Norway

Feed Status: UP
Listen in your browser - HTML5 player(in browser, HTML5)
Click here to listen with your own player(launches your MP3 player)

ENEG Flight Activity (Flightaware)

Listeners: 0 out of 1219 total

ENGM Approach (East): 118.475
ENGM Approach (West): 120.450
Polaris ACC Sector 4: 118.875
Polaris ACC Sector 7: 124.775
Polaris ACC Sector 8: 134.350

ENGM Tower (Archives)
Oslo, Norway

Feed Status: UP
Listen in your browser - HTML5 player(in browser, HTML5)
Click here to listen with your own player(launches your MP3 player)

ENGM 250650Z 03004KT 330V090 CAVOK 20/12 Q1017 NOSIG

ENGM Flight Activity (Flightaware)

Listeners: 0 out of 1219 total

Oslo Tower (East): 120.100
Oslo Tower (West): 118.300

ENHD Tower (Archives)
Haugesund, Norway

Feed Status: UP
Listen in your browser - HTML5 player(in browser, HTML5)
Click here to listen with your own player(launches your MP3 player)

ENHD 250650Z AUTO 03004KT 9999 NCD 21/15 Q1014

ENHD Flight Activity (Flightaware)

Listeners: 0 out of 1219 total

Karmoy Tower: 120.500

ENJB CTAF (Archives)
Tonsberg, Norway

Feed Status: UP
Listen in your browser - HTML5 player(in browser, HTML5)
Click here to listen with your own player(launches your MP3 player)

ENTO 250650Z 04004KT 350V090 CAVOK 20/14 Q1016 NOSIG

ENTO Flight Activity (Flightaware)

Listeners: 0 out of 1219 total

Jarlsberg CTAF: 122.300

ENKJ RDO #1
Kjeller, Norway

Feed Status: DOWN
Offline since: 2021-02-28 20:58:38 UTC

Kjeller RDO: 119.100

ENKJ RDO #2 (Archives)
Kjeller, Norway

Feed Status: UP
Listen in your browser - HTML5 player(in browser, HTML5)
Click here to listen with your own player(launches your MP3 player)

ENKJ Flight Activity (Flightaware)

Listeners: 0 out of 1219 total

Kjeller RDO: 119.100

ENLI CTAF (Archives)
Farsund, Norway

Feed Status: UP
Listen in your browser - HTML5 player(in browser, HTML5)
Click here to listen with your own player(launches your MP3 player)

ENLI Flight Activity (Flightaware)

Listeners: 0 out of 1219 total

Lista Traffic/Lista Radio: 126.450

ENRK CTAF
Astorp, Norway

Feed Status: DOWN
Offline since: 2021-06-09 11:28:38 UTC

Rakkestad CTAF: 122.950

ENOR Sector 8 (Archives)
Moss, Norway

Feed Status: UP
Listen in your browser - HTML5 player(in browser, HTML5)
Click here to listen with your own player(launches your MP3 player)

ENOR Flight Activity (Flightaware)

Listeners: 0 out of 1219 total

Norway Center (FIR) Sector 8: 118.875

ENRY Tower (Archives)
Moss, Norway

Feed Status: UP
Listen in your browser - HTML5 player(in browser, HTML5)
Click here to listen with your own player(launches your MP3 player)

ENRY 250650Z AUTO 13005KT 100V160 9999NDV NCD 22/15 Q1016

ENRY Flight Activity (Flightaware)

Listeners: 0 out of 1219 total

Rygge Tower: 119.500

ENTC Tower/App (Archives)
Langnes, Norway

Feed Status: UP
Listen in your browser - HTML5 player(in browser, HTML5)
Click here to listen with your own player(launches your MP3 player)

ENTC 250650Z 27004KT 6000 -SHRA SCT006 BKN012 11/10 Q1013 TEMPO 2000 -RADZ BR VV004 RMK WIND 2600FT 24013KT

ENTC Flight Activity (Flightaware)

Listeners: 0 out of 1219 total

Langnes Tower: 118.300
Langnes VDF (Approach): 123.750

ENTO App/Dep (Archives)
Sandefjord, Norway

Feed Status: UP
Listen in your browser - HTML5 player(in browser, HTML5)
Click here to listen with your own player(launches your MP3 player)

ENTO 250650Z 04004KT 350V090 CAVOK 20/14 Q1016 NOSIG

ENTO Flight Activity (Flightaware)

Listeners: 0 out of 1219 total

Sandefjord Approach (TMA): 134.050

ENTO Control Sector 4 (Archives)
Sandefjord, Norway

Feed Status: UP
Listen in your browser - HTML5 player(in browser, HTML5)
Click here to listen with your own player(launches your MP3 player)

ENTO 250650Z 04004KT 350V090 CAVOK 20/14 Q1016 NOSIG

ENTO Flight Activity (Flightaware)

Listeners: 0 out of 1219 total

Norway control Sector 4: 118.875

ENTO Tower (Archives)
Sandefjord, Norway

Feed Status: UP
Listen in your browser - HTML5 player(in browser, HTML5)
Click here to listen with your own player(launches your MP3 player)

ENTO 250650Z 04004KT 350V090 CAVOK 20/14 Q1016 NOSIG

ENTO Flight Activity (Flightaware)

Listeners: 0 out of 1219 total

Sandefjord Tower: 118.650

ENTO Tower/App (Archives)
Sandefjord, Norway

Feed Status: UP
Listen in your browser - HTML5 player(in browser, HTML5)
Click here to listen with your own player(launches your MP3 player)

ENTO 250650Z 04004KT 350V090 CAVOK 20/14 Q1016 NOSIG

ENTO Flight Activity (Flightaware)

Listeners: 0 out of 1219 total

ENJB Tonsberg Airport - Jarlsberg - CTAF: 122.300
Farris Approach (TCA): 134.050
Sandefjord Tower: 118.650

ENTO Twr/App (Archives)
Sandefjord, Norway

Feed Status: UP
Listen in your browser - HTML5 player(in browser, HTML5)
Click here to listen with your own player(launches your MP3 player)

ENTO 250650Z 04004KT 350V090 CAVOK 20/14 Q1016 NOSIG

ENTO Flight Activity (Flightaware)

Listeners: 0 out of 1219 total

Sandefjord Approach (TMA): 134.050
Sandefjord Tower: 118.650

ENVA Gnd/Twr/App (Archives)
Trondheim, Norway

Feed Status: UP
Listen in your browser - HTML5 player(in browser, HTML5)
Click here to listen with your own player(launches your MP3 player)

ENVA 250650Z 00000KT CAVOK 18/14 Q1016 BECMG 26010KT RMK WIND 670FT VRB02KT

ENVA Flight Activity (Flightaware)

Listeners: 1 out of 1219 total

Trondheim Approach: 118.600
Trondheim Ground: 121.600
Trondheim Tower: 119.400

ENZV Gnd/Twr/App (Archives)
Stavanger, Norway

Feed Status: UP
Listen in your browser - HTML5 player(in browser, HTML5)
Click here to listen with your own player(launches your MP3 player)

ENZV 250650Z VRB03KT 9999 NSC 20/16 Q1014 NOSIG

ENZV Flight Activity (Flightaware)

Listeners: 2 out of 1219 total

Sola Approach/Departure: 119.600
Sola Ground: 121.750
Sola Tower: 118.350

EPGD Tower/Approach (Archives)
Gdansk, Poland

Feed Status: UP
Listen in your browser - HTML5 player(in browser, HTML5)
Click here to listen with your own player(launches your MP3 player)

EPGD 250630Z 08005KT CAVOK 21/16 Q1015

EPGD Flight Activity (Flightaware)

Listeners: 3 out of 1219 total

Gdansk Approach: 127.275
Gdansk Tower: 118.100

EPKK Tower/App (Archives)
Krakow, Poland

Feed Status: UP
Listen in your browser - HTML5 player(in browser, HTML5)
Click here to listen with your own player(launches your MP3 player)

EPKK 250630Z 06005KT CAVOK 21/16 Q1014

EPKK Flight Activity (Flightaware)

Listeners: 5 out of 1219 total

Krakow Approach: 121.075
Krakow Approach: 123.255
Krakow Tower: 123.255

EPKR CTAF (Archives)
Krosno, Poland

Feed Status: UP
Listen in your browser - HTML5 player(in browser, HTML5)
Click here to listen with your own player(launches your MP3 player)

EPKR Flight Activity (Flightaware)

Listeners: 1 out of 1219 total

Krosno CTAF: 119.555

EPKT Del/Twr/App (Archives)
Katowice, Poland

Feed Status: UP
Listen in your browser - HTML5 player(in browser, HTML5)
Click here to listen with your own player(launches your MP3 player)

EPKT 250630Z 13007KT CAVOK 21/15 Q1014

EPKT Flight Activity (Flightaware)

Listeners: 3 out of 1219 total

Katowice Delivery: 121.800
Katowice Tower: 129.250
Krakow Approach: 135.400
Krakow Approach: 121.075

EPKT Delivery/Approach (Archives)
Katowice, Poland

Feed Status: UP
Listen in your browser - HTML5 player(in browser, HTML5)
Click here to listen with your own player(launches your MP3 player)

EPKT 250630Z 13007KT CAVOK 21/15 Q1014

EPKT Flight Activity (Flightaware)

Listeners: 0 out of 1219 total

Katowice Delivery: 121.800
Krakow Approach: 121.075

EPKT Tower/Approach (Archives)
Katowice, Poland

Feed Status: UP
Listen in your browser - HTML5 player(in browser, HTML5)
Click here to listen with your own player(launches your MP3 player)

EPKT 250630Z 13007KT CAVOK 21/15 Q1014

EPKT Flight Activity (Flightaware)

Listeners: 0 out of 1219 total

Katowice Tower: 129.250
Krakow Approach: 135.400

EPLL Tower (Archives)
Lodz, Poland

Feed Status: UP
Listen in your browser - HTML5 player(in browser, HTML5)
Click here to listen with your own player(launches your MP3 player)

EPLL 250630Z 11005KT 080V140 CAVOK 22/16 Q1013

EPLL Flight Activity (Flightaware)

Listeners: 0 out of 1219 total

Lodz Tower: 124.230

EPLS CTAF/Radio (Archives)
Leszno, Poland

Feed Status: UP
Listen in your browser - HTML5 player(in browser, HTML5)
Click here to listen with your own player(launches your MP3 player)

EPLS Flight Activity (Flightaware)

Listeners: 0 out of 1219 total

Leszno Radio: 122.305

EPML Info (Archives)
Mielec, Poland

Feed Status: UP
Listen in your browser - HTML5 player(in browser, HTML5)
Click here to listen with your own player(launches your MP3 player)

EPML Flight Activity (Flightaware)

Listeners: 1 out of 1219 total

Mielec Info: 119.105

EPPO Twr/App/FIS (Archives)
Poznan, Poland

Feed Status: UP
Listen in your browser - HTML5 player(in browser, HTML5)
Click here to listen with your own player(launches your MP3 player)

EPPO 250630Z 11008KT CAVOK 21/15 Q1012

EPPO Flight Activity (Flightaware)

Listeners: 0 out of 1219 total

Poznan Approach: 129.025
Poznan Approach: 127.225
Poznan FIS: 126.300
Poznan Tower: 119.975

EPRZ Del/Twr/EPWW Radar (Archives)
Jasionka, Poland

Feed Status: UP
Listen in your browser - HTML5 player(in browser, HTML5)
Click here to listen with your own player(launches your MP3 player)

EPRZ 250630Z 10007KT CAVOK 20/16 Q1015

EPRZ Flight Activity (Flightaware)

Listeners: 6 out of 1219 total

EPWW Radar: 134.175
EPWW Radar: 120.950
Rzeszow Delivery: 121.800
Rzeszow Tower: 126.800

EPWA Approach #1 (Archives)
Warsaw, Poland

Feed Status: UP
Listen in your browser - HTML5 player(in browser, HTML5)
Click here to listen with your own player(launches your MP3 player)

EPWA 250630Z 13007KT CAVOK 22/16 Q1014 NOSIG

EPWA Flight Activity (Flightaware)

Listeners: 2 out of 1219 total

Warsaw Approach: 128.805

EPWA Director (Archives)
Warsaw, Poland

Feed Status: UP
Listen in your browser - HTML5 player(in browser, HTML5)
Click here to listen with your own player(launches your MP3 player)

EPWA 250630Z 13007KT CAVOK 22/16 Q1014 NOSIG

EPWA Flight Activity (Flightaware)

Listeners: 0 out of 1219 total

Warsaw Director: 129.375

EPWR Twr/App (Archives)
Wroclaw, Poland

Feed Status: UP
Listen in your browser - HTML5 player(in browser, HTML5)
Click here to listen with your own player(launches your MP3 player)

EPPO 250630Z 11008KT CAVOK 21/15 Q1012

EPPO Flight Activity (Flightaware)

Listeners: 2 out of 1219 total

Poznan Approach (South): 127.225

EPRZ Del/Twr/EPWW Radar (Archives)
Jasionka, Poland

Feed Status: UP
Listen in your browser - HTML5 player(in browser, HTML5)
Click here to listen with your own player(launches your MP3 player)

EPRZ 250630Z 10007KT CAVOK 20/16 Q1015

EPRZ Flight Activity (Flightaware)

Listeners: 6 out of 1219 total

EPWW Radar: 134.175
EPWW Radar: 120.950
Rzeszow Delivery: 121.800
Rzeszow Tower: 126.800

ESDF Gnd/Twr (Archives)
Ronneby, Sweden

Feed Status: UP
Listen in your browser - HTML5 player(in browser, HTML5)
Click here to listen with your own player(launches your MP3 player)

ESDF 250650Z 09009KT 050V120 CAVOK 20/17 Q1016

ESDF Flight Activity (Flightaware)

Listeners: 1 out of 1219 total

Ronneby Ground: 121.850
Ronneby Tower: 119.200

ESDF Ronneby Control (Archives)
Ronneby, Sweden

Feed Status: UP
Listen in your browser - HTML5 player(in browser, HTML5)
Click here to listen with your own player(launches your MP3 player)

ESDF 250650Z 09009KT 050V120 CAVOK 20/17 Q1016

ESDF Flight Activity (Flightaware)

Listeners: 3 out of 1219 total

Ronneby Control: 128.450

ESMQ Tower (Archives)
Kalmar, Sweden

Feed Status: UP
Listen in your browser - HTML5 player(in browser, HTML5)
Click here to listen with your own player(launches your MP3 player)

ESMQ 250650Z AUTO 07007KT 030V120 9999 NCD 22/15 Q1016

ESMQ Flight Activity (Flightaware)

Listeners: 1 out of 1219 total

Kalmar Tower: 130.805

ESMS Radar (Archives)
Svedala, Sweden

Feed Status: UP
Listen in your browser - HTML5 player(in browser, HTML5)
Click here to listen with your own player(launches your MP3 player)

ESMS 250650Z 09014KT CAVOK 20/17 Q1013

ESMS Flight Activity (Flightaware)

Listeners: 0 out of 1219 total

Sweden Control (Sector L, Malmo): 134.980

ESMS Tower (Archives)
Svedala, Sweden

Feed Status: UP
Listen in your browser - HTML5 player(in browser, HTML5)
Click here to listen with your own player(launches your MP3 player)

ESMS 250650Z 09014KT CAVOK 20/17 Q1013

ESMS Flight Activity (Flightaware)

Listeners: 0 out of 1219 total

Malmo Tower: 118.800

ESOE Tower/Control (Archives)
Orebro, Sweden

Feed Status: UP
Listen in your browser - HTML5 player(in browser, HTML5)
Click here to listen with your own player(launches your MP3 player)

ESOE 250650Z AUTO VRB02KT 9999 NCD 22/15 Q1017

ESOE Flight Activity (Flightaware)

Listeners: 0 out of 1219 total

Orebro Tower: 120.275
Orebro Tower: 120.280
Sweden Control: 131.125
Sweden Control (aircraft only): 131.125

ESOW Twr/CTAF/Control (Archives)
Stockholm, Sweden

Feed Status: UP
Listen in your browser - HTML5 player(in browser, HTML5)
Click here to listen with your own player(launches your MP3 player)

ESOW 250650Z 18003KT 120V240 CAVOK 22/14 Q1017

ESOW Flight Activity (Flightaware)

Listeners: 0 out of 1219 total

Arlanda Approach: 123.750
Arlanda Approach: 126.655
Arlanda Approach: 130.325
Arlanda Departure: 124.100
Arlanda Tower: 118.505
Arlanda Tower: 128.725
Enkoping/Langtora: 123.525
Eskilstuna: 126.850
Frolunda: 123.400
Johannisberg CTAF: 123.650
Ska Edeby: 123.350
Stockholm Control: 120.155
Stockholm Control: 118.405
Stockholm Control: 118.280
Sweden Control: 133.260
Sweden Control: 129.175
Sweden Control: 131.130
Uppsala Tower: 119.200
Uppsala/Sundbro: 123.350
Vasteras Control: 125.955
Vasteras Tower: 130.600

ESPA Twr/Control (Archives)
Lulea, Sweden

Feed Status: UP
Listen in your browser - HTML5 player(in browser, HTML5)
Click here to listen with your own player(launches your MP3 player)

ESPA 250650Z 14003KT 070V210 CAVOK 19/11 Q1014

ESPA Flight Activity (Flightaware)

Listeners: 0 out of 1219 total

Emergency/Guard: 121.500
Kallax Control: 125.450
Kallax Tower: 128.200
Sweden Control North: 131.050

ESSG Misc (Archives)
Ludvika, Sweden

Feed Status: UP
Listen in your browser - HTML5 player(in browser, HTML5)
Click here to listen with your own player(launches your MP3 player)

ESSG Flight Activity (Flightaware)

Listeners: 0 out of 1219 total

Borlange Tower: 127.305
Club Frequency: 123.375
Club Frequency: 123.450
Club Frequency: 123.425
Club Frequency: 123.525
Club Frequency: 123.350
Club Frequency: 123.300
Club Frequency: 123.200
Club Frequency: 123.550
Club Frequency: 123.600
Club Frequency: 123.650
Emergency/Guard: 121.500
Hagfors Airport: 122.230
Karlstad Airport: 119.455
Ludvika Club Freq: 123.150
Mora Airport: 119.055
Orebro Airport: 120.280
Orsa Club Frequency: 123.400
Orsa Club Frequency: 123.500
Scandinavian Mountains Airport: 124.460
Search and Rescue: 123.100
Sweden Control: 131.055
Sweden Control: 131.125
Sweden Control: 131.155
Sweden Control: 132.765
Sweden Control: 131.130
Sweden Control: 129.180
Sweden Control: 128.630
Sweden Control: 132.150
Torsby Airport: 122.055
Vasteras Control: 125.955

ESSL Twr/App/Control
Linkoping, Sweden

Feed Status: DOWN
Offline since: 2021-07-24 12:42:39 UTC

ESSL 250650Z AUTO VRB01KT 9999 NCD 21/12 Q1017

Emergency/Guard: 121.500
Linkoping Tower: 118.800
Linkoping Tower (Secondary): 123.400
Ostgota Control: 127.350
Ostgota Control: 126.400
Ostgota Control: 135.850
Ostgota Control: 132.950
Ostgota Control: 128.700
Ostgota Control (Malmen Sector): 133.100
Ostgota Control/Sweden Control: 118.400

ESVQ CTAF (Archives)
Koping, Sweden

Feed Status: UP
Listen in your browser - HTML5 player(in browser, HTML5)
Click here to listen with your own player(launches your MP3 player)

ESVQ Flight Activity (Flightaware)

Listeners: 0 out of 1219 total

Koping CTAF: 123.150

EVRA Approach (Archives)
Riga, Latvia

Feed Status: UP
Listen in your browser - HTML5 player(in browser, HTML5)
Click here to listen with your own player(launches your MP3 player)

EVRA 250650Z 06004KT 010V100 CAVOK 21/12 Q1018 NOSIG

EVRA Flight Activity (Flightaware)

Listeners: 1 out of 1219 total

Riga Approach: 129.925

EVRA CTAF (Archives)
Riga, Latvia

Feed Status: UP
Listen in your browser - HTML5 player(in browser, HTML5)
Click here to listen with your own player(launches your MP3 player)

EVRA 250650Z 06004KT 010V100 CAVOK 21/12 Q1018 NOSIG

EVRA Flight Activity (Flightaware)

Listeners: 0 out of 1219 total

Riga Approach (evenings): 134.850
Riga CTAF: 123.950

EVRA FIC (Archives)
Riga, Latvia

Feed Status: UP
Listen in your browser - HTML5 player(in browser, HTML5)
Click here to listen with your own player(launches your MP3 player)

EVRA 250650Z 06004KT 010V100 CAVOK 21/12 Q1018 NOSIG

EVRA Flight Activity (Flightaware)

Listeners: 0 out of 1219 total

Riga FIC: 120.225

EVRA Tower/Guard (Archives)
Riga, Latvia

Feed Status: UP
Listen in your browser - HTML5 player(in browser, HTML5)
Click here to listen with your own player(launches your MP3 player)

EVRA 250650Z 06004KT 010V100 CAVOK 21/12 Q1018 NOSIG

EVRA Flight Activity (Flightaware)

Listeners: 1 out of 1219 total

Emergency/Guard: 121.500
Riga Tower: 118.100

EYVI Twr/App/Misc (Archives)
Vilnius, Lithuania

Feed Status: UP
Listen in your browser - HTML5 player(in browser, HTML5)
Click here to listen with your own player(launches your MP3 player)

EYVI 250650Z 12004KT 090V160 CAVOK 23/10 Q1018 NOSIG

EYVI Flight Activity (Flightaware)

Listeners: 1 out of 1219 total

Emergency / GUARD: 121.500
FlyLAL, AirBaltic transit services: 131.900
FlyLAL, AirBaltic transit services: 131.600
FlyLAL, AirBaltic transit services: 131.500
Kaunas Approach (EYKA): 124.200
Vilnius Approach: 120.700
Vilnius Control: 132.275
Vilnius Control: 133.425
Vilnius Control: 133.300
Vilnius FIS: 123.850
Vilnius Tower: 118.200
Zokniai A/G (mil): 122.775

EYVP CTAF (Archives)
Paluknys, Lithuania

Feed Status: UP
Listen in your browser - HTML5 player(in browser, HTML5)
Click here to listen with your own player(launches your MP3 player)

EYVP Flight Activity (Flightaware)

Listeners: 0 out of 1219 total

EYVP Paluknis CTAF: 119.100

FIMP Twr/App/Ctr #1 (Archives)
Plaine Magnien, Mauritius

Feed Status: UP
Listen in your browser - HTML5 player(in browser, HTML5)
Click here to listen with your own player(launches your MP3 player)

FIMP 250600Z 13012KT 9999 SCT017 24/16 Q1022


Listeners: 0 out of 1219 total

FIMP Approach: 119.100
FIMP Tower: 118.100
FMEE Approach/Departure: 127.200
Mauritius Centre: 129.300

FIMP Twr/App/Ctr #2 (Archives)
Plaine Magnien, Mauritius

Feed Status: UP
Listen in your browser - HTML5 player(in browser, HTML5)
Click here to listen with your own player(launches your MP3 player)

FIMP 250600Z 13012KT 9999 SCT017 24/16 Q1022


Listeners: 0 out of 1219 total

FIMP Approach: 119.100
FIMP Tower: 118.100
Mauritius Centre: 129.300

FMEE Tower
Sainte-Marie, Reunion

Feed Status: DOWN
Offline since: 2021-05-17 09:38:39 UTC

FMEE 250630Z AUTO 12015KT 9999 FEW046 BKN082 24/15 Q1022 TEMPO 11018G28KT

Gillot Tower: 118.400

FMEP Info (Archives)
Saint-Pierre, Reunion

Feed Status: UP
Listen in your browser - HTML5 player(in browser, HTML5)
Click here to listen with your own player(launches your MP3 player)

FMEP 250630Z AUTO 09006KT 9999 FEW036 SCT045 BKN054 22/17 Q1023 TEMPO 13020G30KT 4500 SHRA


Listeners: 0 out of 1219 total

Saint-Pierre Info: 122.400

FMMI Twr/App/Center (Archives)
Antananarivo, Madagascar

Feed Status: UP
Listen in your browser - HTML5 player(in browser, HTML5)
Click here to listen with your own player(launches your MP3 player)

FMMI 250630Z 16013KT 120V190 9999 SCT017 BKN020 15/10 Q1026 NOSIG


Listeners: 0 out of 1219 total

Ivato Approach: 125.700
Ivato Tower: 120.100
Tana Control: 128.900

GOBD Gnd/Twr/App (Archives)
Dakar, Senegal

Feed Status: UP
Listen in your browser - HTML5 player(in browser, HTML5)
Click here to listen with your own player(launches your MP3 player)

GOBD 250630Z 14003KT 9999 FEW013 25/20 Q1013 NOSIG


Listeners: 1 out of 1219 total

Dakar Approach/Departure: 120.500
Dakar Ground: 121.800
Dakar Tower: 118.800

HAAB Approach
Addis Ababa, Ethiopia

Feed Status: DOWN
Offline since: 2021-07-17 13:57:05 UTC


Bole Approach: 119.700

HAAB Ground
Addis Ababa, Ethiopia

Feed Status: DOWN
Offline since: 2021-07-17 13:57:05 UTC


Bole Ground: 121.900

HAAB Tower
Addis Ababa, Ethiopia

Feed Status: DOWN
Offline since: 2021-05-11 16:00:38 UTC


Bole Tower: 118.100

LBBG Twr/App (Archives)
Burgas, Bulgaria

Feed Status: UP
Listen in your browser - HTML5 player(in browser, HTML5)
Click here to listen with your own player(launches your MP3 player)

LBBG 250630Z 04009KT CAVOK 25/15 Q1017 NOSIG

LBBG Flight Activity (Flightaware)

Listeners: 1 out of 1219 total

Burgas Approach: 125.100
Burgas Tower: 118.000

LBLS Tower/FIC
Lesnovo, Bulgaria

Feed Status: DOWN
Offline since: 2021-01-03 03:01:06 UTC

LBSF 250630Z VRB02KT CAVOK 19/12 Q1020 NOSIG

Lesnovo FIC: 130.600
Lesnovo Tower: 122.250

LBPD Tower (Archives)
Plovdiv, Bulgaria

Feed Status: UP
Listen in your browser - HTML5 player(in browser, HTML5)
Click here to listen with your own player(launches your MP3 player)

LBSF 250630Z VRB02KT CAVOK 19/12 Q1020 NOSIG

LBSF Flight Activity (Flightaware)

Listeners: 0 out of 1219 total

Plovdiv Tower: 125.500
Plovdiv Tower: 133.600

LBSF ATIS
Sofia, Bulgaria

Feed Status: DOWN
Offline since: 2021-06-13 09:44:40 UTC

LBSF 250630Z VRB02KT CAVOK 19/12 Q1020 NOSIG

Sofia ATIS: 126.680

LBSF Sofia Control East (Archives)
Sofia, Bulgaria

Feed Status: UP
Listen in your browser - HTML5 player(in browser, HTML5)
Click here to listen with your own player(launches your MP3 player)

LBSF 250630Z VRB02KT CAVOK 19/12 Q1020 NOSIG

LBSF Flight Activity (Flightaware)

Listeners: 1 out of 1219 total

Sofia Control (East/Middle Sector): 129.100
Sofia Control (Varna Sector): 134.700

LBSF Twr/App #1 (Archives)
Sofia, Bulgaria

Feed Status: UP
Listen in your browser - HTML5 player(in browser, HTML5)
Click here to listen with your own player(launches your MP3 player)

LBSF 250630Z VRB02KT CAVOK 19/12 Q1020 NOSIG

LBSF Flight Activity (Flightaware)

Listeners: 1 out of 1219 total

Sofia Approach: 123.700
Sofia Approach: 129.900
Sofia Tower: 118.100
Sofia Tower: 120.200

LBSF Twr/App #2 (Archives)
Sofia, Bulgaria

Feed Status: UP
Listen in your browser - HTML5 player(in browser, HTML5)
Click here to listen with your own player(launches your MP3 player)

LBSF 250630Z VRB02KT CAVOK 19/12 Q1020 NOSIG

LBSF Flight Activity (Flightaware)

Listeners: 0 out of 1219 total

Sofia Approach: 123.700
Sofia Tower: 118.100

LBWN Tower/Approach (Archives)
Varna, Bulgaria

Feed Status: UP
Listen in your browser - HTML5 player(in browser, HTML5)
Click here to listen with your own player(launches your MP3 player)

LBWN 250630Z 03005KT 340V100 CAVOK 24/15 Q1017 NOSIG

LBWN Flight Activity (Flightaware)

Listeners: 1 out of 1219 total

Varna Approach: 121.000
Varna Tower: 119.500

Bordeaux Control (Archives)
Bordeaux, France

Feed Status: UP
Listen in your browser - HTML5 player(in browser, HTML5)
Click here to listen with your own player(launches your MP3 player)

LFBD 250630Z AUTO 21005KT 9999 FEW018/// BKN047/// OVC054/// ///TCU 18/17 Q1012 TEMPO 3000 SHRA BKN013TCU

LFBD Flight Activity (Flightaware)

Listeners: 3 out of 1219 total

Air to Air: 123.450
Bordeaux Control BN FL<300: 127.675
Bordeaux Control L3 FL>300: 134.250
Bordeaux Control R2 FL>300: 133.575
Emergency/Guard: 121.500

LFBD Aquitane Approach (Archives)
Bordeaux, France

Feed Status: UP
Listen in your browser - HTML5 player(in browser, HTML5)
Click here to listen with your own player(launches your MP3 player)

LFBD 250630Z AUTO 21005KT 9999 FEW018/// BKN047/// OVC054/// ///TCU 18/17 Q1012 TEMPO 3000 SHRA BKN013TCU

LFBD Flight Activity (Flightaware)

Listeners: 0 out of 1219 total

Aquitane Approach: 129.875

LFBD Bordeaux Control Sector X1 (Archives)
Bordeaux, France

Feed Status: UP
Listen in your browser - HTML5 player(in browser, HTML5)
Click here to listen with your own player(launches your MP3 player)

LFBD 250630Z AUTO 21005KT 9999 FEW018/// BKN047/// OVC054/// ///TCU 18/17 Q1012 TEMPO 3000 SHRA BKN013TCU

LFBD Flight Activity (Flightaware)

Listeners: 0 out of 1219 total

Bordeaux Control (Sector X1): 118.425

LFBD Ground
Bordeaux, France

Feed Status: DOWN
Offline since: 2021-06-06 09:38:05 UTC

LFBD 250630Z AUTO 21005KT 9999 FEW018/// BKN047/// OVC054/// ///TCU 18/17 Q1012 TEMPO 3000 SHRA BKN013TCU

Merignac Ground: 121.900

LFBD Tower (Archives)
Bordeaux, France

Feed Status: UP
Listen in your browser - HTML5 player(in browser, HTML5)
Click here to listen with your own player(launches your MP3 player)

LFBD 250630Z AUTO 21005KT 9999 FEW018/// BKN047/// OVC054/// ///TCU 18/17 Q1012 TEMPO 3000 SHRA BKN013TCU

LFBD Flight Activity (Flightaware)

Listeners: 0 out of 1219 total

Merignac Tower: 118.300

Bordeaux Control (Archives)
Angouleme, France

Feed Status: UP
Listen in your browser - HTML5 player(in browser, HTML5)
Click here to listen with your own player(launches your MP3 player)

LFBD 250630Z AUTO 21005KT 9999 FEW018/// BKN047/// OVC054/// ///TCU 18/17 Q1012 TEMPO 3000 SHRA BKN013TCU

LFBD Flight Activity (Flightaware)

Listeners: 3 out of 1219 total

Air to Air: 123.450
Bordeaux Control BN FL<300: 127.675
Bordeaux Control L3 FL>300: 134.250
Bordeaux Control R2 FL>300: 133.575
Emergency/Guard: 121.500

LFLL Tower (Archives)
Lyon, France

Feed Status: UP
Listen in your browser - HTML5 player(in browser, HTML5)
Click here to listen with your own player(launches your MP3 player)

LFLL 250630Z VRB02KT CAVOK 19/17 Q1011 NOSIG

LFLL Flight Activity (Flightaware)

Listeners: 0 out of 1219 total

Lyon Tower: 120.450

Lyon FIS (Archives)
Lyon, France

Feed Status: UP
Listen in your browser - HTML5 player(in browser, HTML5)
Click here to listen with your own player(launches your MP3 player)

LFLL 250630Z VRB02KT CAVOK 19/17 Q1011 NOSIG

LFLL Flight Activity (Flightaware)

Listeners: 0 out of 1219 total

Lyon FIS: 135.200

LFLP Twr/LFLB App (Archives)
Annecy, France

Feed Status: UP
Listen in your browser - HTML5 player(in browser, HTML5)
Click here to listen with your own player(launches your MP3 player)

LFLP 250630Z AUTO 30004KT 9999 BKN060 OVC072 18/16 Q1012 TEMPO SHRA FEW055CB

LFLP Flight Activity (Flightaware)

Listeners: 2 out of 1219 total

Annecy Tower: 118.200
Chambery Approach: 121.205
Chambery Info: 123.700

LFLY Tower (Archives)
Bron, France

Feed Status: UP
Listen in your browser - HTML5 player(in browser, HTML5)
Click here to listen with your own player(launches your MP3 player)

LFLY 250630Z AUTO VRB02KT 9999 FEW050 SCT068 21/18 Q1011 NOSIG

LFLY Flight Activity (Flightaware)

Listeners: 0 out of 1219 total

Lyon-Bron Tower: 118.100

Lyon FIS (Archives)
Bron, France

Feed Status: UP
Listen in your browser - HTML5 player(in browser, HTML5)
Click here to listen with your own player(launches your MP3 player)

LFLL 250630Z VRB02KT CAVOK 19/17 Q1011 NOSIG

LFLL Flight Activity (Flightaware)

Listeners: 0 out of 1219 total

Lyon FIS: 135.200

LFMD Ground/Tower (Archives)
Cannes, France

Feed Status: UP
Listen in your browser - HTML5 player(in browser, HTML5)
Click here to listen with your own player(launches your MP3 player)

LFMD 250630Z AUTO 36003KT 310V040 CAVOK 24/17 Q1007 NOSIG

LFMD Flight Activity (Flightaware)

Listeners: 0 out of 1219 total

Cannes Ground: 121.805
Cannes Tower: 118.625

LFMN Approach (Archives)
Nice, France

Feed Status: UP
Listen in your browser - HTML5 player(in browser, HTML5)
Click here to listen with your own player(launches your MP3 player)

LFMN 250630Z 33009KT CAVOK 26/15 Q1008 NOSIG

LFMN Flight Activity (Flightaware)

Listeners: 0 out of 1219 total

Nice Approach: 128.205

LFMN Control (High) (Archives)
Nice, France

Feed Status: UP
Listen in your browser - HTML5 player(in browser, HTML5)
Click here to listen with your own player(launches your MP3 player)

LFMN 250630Z 33009KT CAVOK 26/15 Q1008 NOSIG

LFMN Flight Activity (Flightaware)

Listeners: 1 out of 1219 total

Marseille Control Sector K1 (FL245-FL305): 126.780

LFMN FIS/Approach (Archives)
Nice, France

Feed Status: UP
Listen in your browser - HTML5 player(in browser, HTML5)
Click here to listen with your own player(launches your MP3 player)

LFMN 250630Z 33009KT CAVOK 26/15 Q1008 NOSIG

LFMN Flight Activity (Flightaware)

Listeners: 0 out of 1219 total

Nice FIS/Approach (TMA4 NICE 2500ft - FL115): 120.850

LFMN Ground/Tower (Archives)
Nice, France

Feed Status: UP
Listen in your browser - HTML5 player(in browser, HTML5)
Click here to listen with your own player(launches your MP3 player)

LFMN 250630Z 33009KT CAVOK 26/15 Q1008 NOSIG

LFMN Flight Activity (Flightaware)

Listeners: 0 out of 1219 total

Nice Ground: 121.700
Nice Tower: 118.700

LFPG Tower (Archives)
Paris, France

Feed Status: UP
Listen in your browser - HTML5 player(in browser, HTML5)
Click here to listen with your own player(launches your MP3 player)

LFPG 250630Z 17009KT 9999 BKN008 SCT011 17/16 Q1007 NOSIG

LFPG Flight Activity (Flightaware)

Listeners: 6 out of 1219 total

De Gaulle Tower: 120.900
De Gaulle Tower: 119.250

LFPO Approach (Archives)
Paris, France

Feed Status: UP
Listen in your browser - HTML5 player(in browser, HTML5)
Click here to listen with your own player(launches your MP3 player)

LFPO 250630Z 19007KT 9999 BKN010 18/16 Q1007 TEMPO BKN008

LFPO Flight Activity (Flightaware)

Listeners: 0 out of 1219 total

Orly Approach: 124.450
Orly Approach: 118.850
Orly Approach: 120.850
Orly Approach: 123.875

LFPO Departure (Archives)
Paris, France

Feed Status: UP
Listen in your browser - HTML5 player(in browser, HTML5)
Click here to listen with your own player(launches your MP3 player)

LFPO 250630Z 19007KT 9999 BKN010 18/16 Q1007 TEMPO BKN008

LFPO Flight Activity (Flightaware)

Listeners: 5 out of 1219 total

Orly Departure: 127.750

LFPO Tower (Archives)
Paris, France

Feed Status: UP
Listen in your browser - HTML5 player(in browser, HTML5)
Click here to listen with your own player(launches your MP3 player)

LFPO 250630Z 19007KT 9999 BKN010 18/16 Q1007 TEMPO BKN008

LFPO Flight Activity (Flightaware)

Listeners: 6 out of 1219 total

Orly Tower: 120.500
Orly Tower: 118.700

LFPZ ATIS (Archives)
Villacoublay, France

Feed Status: UP
Listen in your browser - HTML5 player(in browser, HTML5)
Click here to listen with your own player(launches your MP3 player)

LFPZ Flight Activity (Flightaware)

Listeners: 0 out of 1219 total

St. Cyr-L'Ecole ATIS: 131.025

LFPZ Tower
Villacoublay, France

Feed Status: DOWN
Offline since: 2021-07-24 15:28:39 UTC

St. Cyr-L'Ecole Tower: 118.000

LFSB Tower (Archives)
Basel, Switzerland

Feed Status: UP
Listen in your browser - HTML5 player(in browser, HTML5)
Click here to listen with your own player(launches your MP3 player)

LFSB 250630Z 13001KT 9999 -SHRA FEW005 FEW060TCU BKN086 18/17 Q1011 TEMPO BKN008

LFSB Flight Activity (Flightaware)

Listeners: 0 out of 1219 total

Mulhouse Tower: 118.300

LHBP Approach (Archives)
Budapest, Hungary

Feed Status: UP
Listen in your browser - HTML5 player(in browser, HTML5)
Click here to listen with your own player(launches your MP3 player)

LHBP 250630Z 10006KT CAVOK 20/17 Q1014 NOSIG

LHBP Flight Activity (Flightaware)

Listeners: 1 out of 1219 total

Budapest Approach: 122.975
Budapest Approach (Upper): 123.860

LHBP Approach (Director) (Archives)
Budapest, Hungary

Feed Status: UP
Listen in your browser - HTML5 player(in browser, HTML5)
Click here to listen with your own player(launches your MP3 player)

LHBP 250630Z 10006KT CAVOK 20/17 Q1014 NOSIG

LHBP Flight Activity (Flightaware)

Listeners: 0 out of 1219 total

Budapest Director: 119.510

LHBP ATIS (Archives)
Budapest, Hungary

Feed Status: UP
Listen in your browser - HTML5 player(in browser, HTML5)
Click here to listen with your own player(launches your MP3 player)

LHBP 250630Z 10006KT CAVOK 20/17 Q1014 NOSIG

LHBP Flight Activity (Flightaware)

Listeners: 0 out of 1219 total

Budapest ATIS: 132.380

LHBP Clearance Delivery (Archives)
Budapest, Hungary

Feed Status: UP
Listen in your browser - HTML5 player(in browser, HTML5)
Click here to listen with your own player(launches your MP3 player)

LHBP 250630Z 10006KT CAVOK 20/17 Q1014 NOSIG

LHBP Flight Activity (Flightaware)

Listeners: 0 out of 1219 total

Budapest Clearance Delivery: 134.540

LHBP Ground (Archives)
Budapest, Hungary

Feed Status: UP
Listen in your browser - HTML5 player(in browser, HTML5)
Click here to listen with your own player(launches your MP3 player)

LHBP 250630Z 10006KT CAVOK 20/17 Q1014 NOSIG

LHBP Flight Activity (Flightaware)

Listeners: 0 out of 1219 total

Budapest Ground: 121.910

LHBP Info (Archives)
Budapest, Hungary

Feed Status: UP
Listen in your browser - HTML5 player(in browser, HTML5)
Click here to listen with your own player(launches your MP3 player)

LHBP 250630Z 10006KT CAVOK 20/17 Q1014 NOSIG

LHBP Flight Activity (Flightaware)

Listeners: 2 out of 1219 total

Budapest Info: 119.350

LHBP Tower (Archives)
Budapest, Hungary

Feed Status: UP
Listen in your browser - HTML5 player(in browser, HTML5)
Click here to listen with your own player(launches your MP3 player)

LHBP 250630Z 10006KT CAVOK 20/17 Q1014 NOSIG

LHBP Flight Activity (Flightaware)

Listeners: 2 out of 1219 total

Budapest Tower: 118.100

LHBP Twr/Info (Archives)
Budapest, Hungary

Feed Status: UP
Listen in your browser - HTML5 player(in browser, HTML5)
Click here to listen with your own player(launches your MP3 player)

LHBP 250630Z 10006KT CAVOK 20/17 Q1014 NOSIG

LHBP Flight Activity (Flightaware)

Listeners: 0 out of 1219 total

Budapest Info: 119.350
Budapest Tower: 118.100

LHCC Control (East/West) (Archives)
Budapest, Hungary

Feed Status: UP
Listen in your browser - HTML5 player(in browser, HTML5)
Click here to listen with your own player(launches your MP3 player)

LHBP 250630Z 10006KT CAVOK 20/17 Q1014 NOSIG

LHBP Flight Activity (Flightaware)

Listeners: 0 out of 1219 total

Budapest Control (East Low Sector): 120.375
Budapest Control (West Low Sector): 133.200

LHDC Info/Tower (Archives)
Debrecen, Hungary

Feed Status: UP
Listen in your browser - HTML5 player(in browser, HTML5)
Click here to listen with your own player(launches your MP3 player)

LHDC 250615Z AUTO 15005KT 100V190 CAVOK 23/15 Q1016

LHDC Flight Activity (Flightaware)

Listeners: 0 out of 1219 total

Debrecen Info/Tower: 125.900

LHEM CTAF
Esztergom, Hungary

Feed Status: DOWN
Offline since: 2021-07-06 09:18:05 UTC

Esztergom CTAF: 126.850

LHOY CTAF (Archives)
Ocseny, Hungary

Feed Status: UP
Listen in your browser - HTML5 player(in browser, HTML5)
Click here to listen with your own player(launches your MP3 player)

LHOY Flight Activity (Flightaware)

Listeners: 0 out of 1219 total

Ocseny CTAF: 122.830

LHPR Info/AFIS (Archives)
Gyor, Hungary

Feed Status: UP
Listen in your browser - HTML5 player(in browser, HTML5)
Click here to listen with your own player(launches your MP3 player)

LHPR 250615Z AUTO 15008KT 120V190 9999 OVC043 21/16 Q1012 NOSIG

LHPR Flight Activity (Flightaware)

Listeners: 1 out of 1219 total

Gyor AFIS: 129.910

LJLJ Info (Archives)
Ljubljana, Slovenia

Feed Status: UP
Listen in your browser - HTML5 player(in browser, HTML5)
Click here to listen with your own player(launches your MP3 player)

LJLJ 250630Z 27001KT 9999 FEW050 SCT250 22/17 Q1013 NOSIG

LJLJ Flight Activity (Flightaware)

Listeners: 0 out of 1219 total

Ljubljana Info: 118.475

LJLJ Radar (Archives)
Ljubljana, Slovenia

Feed Status: UP
Listen in your browser - HTML5 player(in browser, HTML5)
Click here to listen with your own player(launches your MP3 player)

LJLJ 250630Z 27001KT 9999 FEW050 SCT250 22/17 Q1013 NOSIG

LJLJ Flight Activity (Flightaware)

Listeners: 0 out of 1219 total

Ljubljana Approach: 135.275

LJLJ Tower (Archives)
Ljubljana, Slovenia

Feed Status: UP
Listen in your browser - HTML5 player(in browser, HTML5)
Click here to listen with your own player(launches your MP3 player)

LJLJ 250630Z 27001KT 9999 FEW050 SCT250 22/17 Q1013 NOSIG

LJLJ Flight Activity (Flightaware)

Listeners: 0 out of 1219 total

Ljubljana Tower: 118.000

LJMB Tower
Maribor, Slovenia

Feed Status: DOWN
Offline since: 2021-07-12 11:08:40 UTC

LJMB 250630Z 32003KT CAVOK 23/18 Q1012

Maribor Tower/Approach: 119.200

LJMS CTAF (Archives)
Murska Sobota, Slovenia

Feed Status: UP
Listen in your browser - HTML5 player(in browser, HTML5)
Click here to listen with your own player(launches your MP3 player)

LJMS Flight Activity (Flightaware)

Listeners: 0 out of 1219 total

Murska Sobota Aerodrome Radio: 123.500

LJPZ Tower
Secovlje, Slovenia

Feed Status: DOWN
Offline since: 2021-07-24 18:23:39 UTC

LJPZ 250630Z 12007KT 100V170 CAVOK 28/17 Q1010

Portoroz Tower: 124.875

LKKV Tower (Archives)
Karlovy Vary, Czech Republic

Feed Status: UP
Listen in your browser - HTML5 player(in browser, HTML5)
Click here to listen with your own player(launches your MP3 player)

LKKV 250630Z VRB02KT CAVOK 19/14 Q1012

LKKV Flight Activity (Flightaware)

Listeners: 0 out of 1219 total

Vary Tower: 121.230

LKPM Tower (Archives)
Pribram, Czech Republic

Feed Status: UP
Listen in your browser - HTML5 player(in browser, HTML5)
Click here to listen with your own player(launches your MP3 player)

LKPM Flight Activity (Flightaware)

Listeners: 0 out of 1219 total

Pribram Tower: 118.755

LKAA FIR (High) (Archives)
Prague, Czech Republic

Feed Status: UP
Listen in your browser - HTML5 player(in browser, HTML5)
Click here to listen with your own player(launches your MP3 player)

LKAA Flight Activity (Flightaware)

Listeners: 0 out of 1219 total

LKAA FIR Sector West High / Praha Radar : 132.065

LKAA FIR (Low) (Archives)
Prague, Czech Republic

Feed Status: UP
Listen in your browser - HTML5 player(in browser, HTML5)
Click here to listen with your own player(launches your MP3 player)

LKAA Flight Activity (Flightaware)

Listeners: 0 out of 1219 total

LKAA FIR Sector West Low / Praha Radar: 120.275

LKPR Approach (Archives)
Prague, Czech Republic

Feed Status: UP
Listen in your browser - HTML5 player(in browser, HTML5)
Click here to listen with your own player(launches your MP3 player)

LKPR 250630Z 24008KT CAVOK 21/15 Q1011 NOSIG

LKPR Flight Activity (Flightaware)

Listeners: 3 out of 1219 total

Prague Approach/Radar: 127.580

LKPR Clearance Del (Archives)
Prague, Czech Republic

Feed Status: UP
Listen in your browser - HTML5 player(in browser, HTML5)
Click here to listen with your own player(launches your MP3 player)

LKPR 250630Z 24008KT CAVOK 21/15 Q1011 NOSIG

LKPR Flight Activity (Flightaware)

Listeners: 0 out of 1219 total

Prague/Ruzyne Clearance Delivery: 120.060

LKPR Director/Ruzyne Radar (Archives)
Prague, Czech Republic

Feed Status: UP
Listen in your browser - HTML5 player(in browser, HTML5)
Click here to listen with your own player(launches your MP3 player)

LKPR 250630Z 24008KT CAVOK 21/15 Q1011 NOSIG

LKPR Flight Activity (Flightaware)

Listeners: 2 out of 1219 total

Prague Director/Ruzyne Radar: 119.010

LKPR Ground (Archives)
Prague, Czech Republic

Feed Status: UP
Listen in your browser - HTML5 player(in browser, HTML5)
Click here to listen with your own player(launches your MP3 player)

LKPR 250630Z 24008KT CAVOK 21/15 Q1011 NOSIG

LKPR Flight Activity (Flightaware)

Listeners: 0 out of 1219 total

Prague/Ruzyne Ground: 121.910

LKPR Tower (Archives)
Prague, Czech Republic

Feed Status: UP
Listen in your browser - HTML5 player(in browser, HTML5)
Click here to listen with your own player(launches your MP3 player)

LKPR 250630Z 24008KT CAVOK 21/15 Q1011 NOSIG

LKPR Flight Activity (Flightaware)

Listeners: 4 out of 1219 total

Prague/Ruzyne Tower: 134.560

LKTB Gnd/Twr/Radar (Archives)
Brno, Czech Republic

Feed Status: UP
Listen in your browser - HTML5 player(in browser, HTML5)
Click here to listen with your own player(launches your MP3 player)

LKTB 250657Z 09008KT 5000 -RA OVC005 18/17 Q1012 RMK REG QNH 1009

LKTB Flight Activity (Flightaware)

Listeners: 1 out of 1219 total

Brno Ground: 125.430
Brno Handling: 131.800
Brno Tower: 119.605
Praha Radar (Approach): 127.350

LMML GndTwr/App/Control
Luqa, Malta

Feed Status: DOWN
Offline since: 2021-07-25 07:17:05 UTC

LMML 250645Z VRB01KT CAVOK 30/12 Q1015 NOSIG

Emergency/Guard: 121.500
Luqa Ground: 121.600
Luqa Radar: 128.150
Luqa Tower: 135.100
Malta Radar - East (Primary): 122.775
Malta Radar - East (Secondary): 123.625
Malta Radar - UHF: 284.500
Malta Radar - West (Primary): 130.975
Malta Radar - West (Secondary): 127.525

LPCS Tower
Cascais, Portugal

Feed Status: DOWN
Offline since: 2021-07-24 14:37:05 UTC

LPCS 250630Z 28005KT 240V300 9999 FEW010 BKN014 20/18 Q1015

Cascais Tower: 120.305

LPMA App/LPPC Center (Archives)
Madeira, Portugal

Feed Status: UP
Listen in your browser - HTML5 player(in browser, HTML5)
Click here to listen with your own player(launches your MP3 player)

LPPC Flight Activity (Flightaware)

Listeners: 0 out of 1219 total

Lisboa Control (Madeira Sector): 132.255
Madeira Approach: 119.605

LPMA Approach (Archives)
Madeira, Portugal

Feed Status: UP
Listen in your browser - HTML5 player(in browser, HTML5)
Click here to listen with your own player(launches your MP3 player)

LPMA 250630Z 02009KT 310V100 9999 FEW016 22/16 Q1019

LPMA Flight Activity (Flightaware)

Listeners: 2 out of 1219 total

Madeira Approach: 119.605

LPPR Approach #1 (Archives)
Porto, Portugal

Feed Status: UP
Listen in your browser - HTML5 player(in browser, HTML5)
Click here to listen with your own player(launches your MP3 player)

LPPR 250630Z 10004KT 050V140 9999 VCSH FEW016 BKN020 17/16 Q1014

LPPR Flight Activity (Flightaware)

Listeners: 2 out of 1219 total

Porto Approach: 121.105

LPPT Approach (Archives)
Lisbon, Portugal

Feed Status: UP
Listen in your browser - HTML5 player(in browser, HTML5)
Click here to listen with your own player(launches your MP3 player)

LPPT 250630Z 30005KT 270V330 9999 SCT008 BKN012 20/18 Q1015

LPPT Flight Activity (Flightaware)

Listeners: 1 out of 1219 total

Lisbon Approach: 119.105

LRCL Twr/App #1 (Archives)
Cluj-Napoca, Romania

Feed Status: UP
Listen in your browser - HTML5 player(in browser, HTML5)
Click here to listen with your own player(launches your MP3 player)

LRCL 250630Z 07004KT 020V110 CAVOK 19/15 Q1018

LRCL Flight Activity (Flightaware)

Listeners: 1 out of 1219 total

Cluj Approach: 126.425
Cluj Tower: 118.705

LRCL Twr/App/ACC (Archives)
Cluj-Napoca, Romania

Feed Status: UP
Listen in your browser - HTML5 player(in browser, HTML5)
Click here to listen with your own player(launches your MP3 player)

LRCL 250630Z 07004KT 020V110 CAVOK 19/15 Q1018

LRCL Flight Activity (Flightaware)

Listeners: 0 out of 1219 total

Cluj Approach: 126.425
Cluj Tower: 118.705
Napoc ACC: 127.075

LROP Ground (Archives)
Bucharest, Romania

Feed Status: UP
Listen in your browser - HTML5 player(in browser, HTML5)
Click here to listen with your own player(launches your MP3 player)

LROP 250630Z 06007KT CAVOK 24/13 Q1018 NOSIG

LROP Flight Activity (Flightaware)

Listeners: 0 out of 1219 total

Bucharest Ground: 121.855

LROP Radar (Archives)
Bucharest, Romania

Feed Status: UP
Listen in your browser - HTML5 player(in browser, HTML5)
Click here to listen with your own player(launches your MP3 player)

LROP 250630Z 06007KT CAVOK 24/13 Q1018 NOSIG

LROP Flight Activity (Flightaware)

Listeners: 0 out of 1219 total

Bucharest Radar (Arges Mid sector): 121.175
Bucharest Radar (Arges Top Sector): 123.265
Bucharest Radar (Lomos Top Sector): 132.865

LROP Tower/Approach (Archives)
Bucharest, Romania

Feed Status: UP
Listen in your browser - HTML5 player(in browser, HTML5)
Click here to listen with your own player(launches your MP3 player)

LROP 250630Z 06007KT CAVOK 24/13 Q1018 NOSIG

LROP Flight Activity (Flightaware)

Listeners: 0 out of 1219 total

Bucharest Approach: 119.415
Bucharest Director: 127.155
Bucharest Tower: 118.805

LROP Twr/App/Radar (Archives)
Bucharest, Romania

Feed Status: UP
Listen in your browser - HTML5 player(in browser, HTML5)
Click here to listen with your own player(launches your MP3 player)

LROP 250630Z 06007KT CAVOK 24/13 Q1018 NOSIG

LROP Flight Activity (Flightaware)

Listeners: 12 out of 1219 total

Bucharest Approach: 119.415
Bucharest Director: 127.155
Bucharest Radar (Arges Mid sector): 121.175
Bucharest Radar (Arges Top Sector): 123.265
Bucharest Radar (Lomos Top Sector): 132.865
Bucharest Tower: 118.805

LRSB Tower/CTAF (Archives)
Sibiu, Romania

Feed Status: UP
Listen in your browser - HTML5 player(in browser, HTML5)
Click here to listen with your own player(launches your MP3 player)

LRSB 250630Z VRB02KT CAVOK 21/14 Q1018

LRSB Flight Activity (Flightaware)

Listeners: 0 out of 1219 total

Sibiu Tower: 121.305

LRTR Tower (Archives)
Timisoara, Romania

Feed Status: UP
Listen in your browser - HTML5 player(in browser, HTML5)
Click here to listen with your own player(launches your MP3 player)

LRTR 250630Z 10010KT CAVOK 23/16 Q1015

LRTR Flight Activity (Flightaware)

Listeners: 0 out of 1219 total

ARAD Approach: 127.250
Timisoara Tower: 120.100

LSGS Gnd/Twr/App (Archives)
Sion, Switzerland

Feed Status: UP
Listen in your browser - HTML5 player(in browser, HTML5)
Click here to listen with your own player(launches your MP3 player)

LSGS 250650Z 23003KT 200V270 9999 FEW030 SCT070 20/16 Q1011

LSGS Flight Activity (Flightaware)

Listeners: 0 out of 1219 total

Alpine Jet Service Handling: 131.675
Sion Airport Handling: 131.475
Sion Approach (IFR ARR MIL OFF): 126.825
Sion Ground: 121.700
Sion Tower: 118.275

LSMD Tower (Archives)
Dubendorf, Switzerland

Feed Status: UP
Listen in your browser - HTML5 player(in browser, HTML5)
Click here to listen with your own player(launches your MP3 player)

LSZH 250650Z VRB02KT 7000 FEW004 SCT011 BKN075 19/17 Q1011 NOSIG

LSZH Flight Activity (Flightaware)

Listeners: 0 out of 1219 total

Dubendorf Tower: 118.975

LSPM AFIS (Archives)
Ambri, Switzerland

Feed Status: UP
Listen in your browser - HTML5 player(in browser, HTML5)
Click here to listen with your own player(launches your MP3 player)

LSPM Flight Activity (Flightaware)

Listeners: 0 out of 1219 total

Ambri AFIS: 118.525

LSZA Tower (Archives)
Agno, Switzerland

Feed Status: UP
Listen in your browser - HTML5 player(in browser, HTML5)
Click here to listen with your own player(launches your MP3 player)

LSZA 250650Z VRB02KT 9000 VCTS FEW026 FEW041CB BKN050 21/19 Q1010

LSZA Flight Activity (Flightaware)

Listeners: 1 out of 1219 total

Lugano Tower: 120.250

LSZB Twr/App/Dep (Archives)
Bern, Switzerland

Feed Status: UP
Listen in your browser - HTML5 player(in browser, HTML5)
Click here to listen with your own player(launches your MP3 player)

LSZB 250650Z 31006KT 9999 VCSH FEW009 SCT015 BKN070TCU 18/17 Q1012 NOSIG

LSZB Flight Activity (Flightaware)

Listeners: 2 out of 1219 total

LSZB Arrival/Departure: 127.325
LSZB Tower: 121.025

LSZG Tower (Archives)
Grenchen, Switzerland

Feed Status: UP
Listen in your browser - HTML5 player(in browser, HTML5)
Click here to listen with your own player(launches your MP3 player)

LSZG 250650Z 22005KT 5000 RA FEW005 SCT010 BKN050 17/16 Q1012 NOSIG

LSZG Flight Activity (Flightaware)

Listeners: 0 out of 1219 total

Grenchen Tower: 120.100

LSZH Approach (East) (Archives)
Zurich, Switzerland

Feed Status: UP
Listen in your browser - HTML5 player(in browser, HTML5)
Click here to listen with your own player(launches your MP3 player)

LSZH 250650Z VRB02KT 7000 FEW004 SCT011 BKN075 19/17 Q1011 NOSIG

LSZH Flight Activity (Flightaware)

Listeners: 3 out of 1219 total

Zurich Approach (East): 135.225

LSZH Apron (South) (Archives)
Zurich, Switzerland

Feed Status: UP
Listen in your browser - HTML5 player(in browser, HTML5)
Click here to listen with your own player(launches your MP3 player)

LSZH 250650Z VRB02KT 7000 FEW004 SCT011 BKN075 19/17 Q1011 NOSIG

LSZH Flight Activity (Flightaware)

Listeners: 2 out of 1219 total

Zurich Apron (South): 121.755

LSZH Apron (West) (Archives)
Zurich, Switzerland

Feed Status: UP
Listen in your browser - HTML5 player(in browser, HTML5)
Click here to listen with your own player(launches your MP3 player)

LSZH 250650Z VRB02KT 7000 FEW004 SCT011 BKN075 19/17 Q1011 NOSIG

LSZH Flight Activity (Flightaware)

Listeners: 1 out of 1219 total

Zurich Apron (West): 121.855

LSZH Clearance Delivery (Archives)
Zurich, Switzerland

Feed Status: UP
Listen in your browser - HTML5 player(in browser, HTML5)
Click here to listen with your own player(launches your MP3 player)

LSZH 250650Z VRB02KT 7000 FEW004 SCT011 BKN075 19/17 Q1011 NOSIG

LSZH Flight Activity (Flightaware)

Listeners: 1 out of 1219 total

Zurich Clearance Delivery: 121.925

LSZH Ground (Archives)
Zurich, Switzerland

Feed Status: UP
Listen in your browser - HTML5 player(in browser, HTML5)
Click here to listen with your own player(launches your MP3 player)

LSZH 250650Z VRB02KT 7000 FEW004 SCT011 BKN075 19/17 Q1011 NOSIG

LSZH Flight Activity (Flightaware)

Listeners: 0 out of 1219 total

Zurich Ground: 121.905

LSZH Radar 132.815 (Archives)
Zurich, Switzerland

Feed Status: UP
Listen in your browser - HTML5 player(in browser, HTML5)
Click here to listen with your own player(launches your MP3 player)

LSZH 250650Z VRB02KT 7000 FEW004 SCT011 BKN075 19/17 Q1011 NOSIG

LSZH Flight Activity (Flightaware)

Listeners: 1 out of 1219 total

Zurich Radar: 132.815

LSZH Radar 133.050 (Archives)
Zurich, Switzerland

Feed Status: UP
Listen in your browser - HTML5 player(in browser, HTML5)
Click here to listen with your own player(launches your MP3 player)

LSZH 250650Z VRB02KT 7000 FEW004 SCT011 BKN075 19/17 Q1011 NOSIG

LSZH Flight Activity (Flightaware)

Listeners: 1 out of 1219 total

Zurich Radar: 133.050

LSZH Radar 133.405 (Archives)
Zurich, Switzerland

Feed Status: UP
Listen in your browser - HTML5 player(in browser, HTML5)
Click here to listen with your own player(launches your MP3 player)

LSZH 250650Z VRB02KT 7000 FEW004 SCT011 BKN075 19/17 Q1011 NOSIG

LSZH Flight Activity (Flightaware)

Listeners: 1 out of 1219 total

Zurich Radar: 133.405

LSZH Radar 133.690 (Archives)
Zurich, Switzerland

Feed Status: UP
Listen in your browser - HTML5 player(in browser, HTML5)
Click here to listen with your own player(launches your MP3 player)

LSZH 250650Z VRB02KT 7000 FEW004 SCT011 BKN075 19/17 Q1011 NOSIG

LSZH Flight Activity (Flightaware)

Listeners: 0 out of 1219 total

Zurich Radar: 133.690

LSZH Radar 133.905 (Archives)
Zurich, Switzerland

Feed Status: UP
Listen in your browser - HTML5 player(in browser, HTML5)
Click here to listen with your own player(launches your MP3 player)

LSZH 250650Z VRB02KT 7000 FEW004 SCT011 BKN075 19/17 Q1011 NOSIG

LSZH Flight Activity (Flightaware)

Listeners: 0 out of 1219 total

Zurich Radar (Below FL240 East): 133.905

LSZH Radar 134.605 (Archives)
Zurich, Switzerland

Feed Status: UP
Listen in your browser - HTML5 player(in browser, HTML5)
Click here to listen with your own player(launches your MP3 player)

LSZH 250650Z VRB02KT 7000 FEW004 SCT011 BKN075 19/17 Q1011 NOSIG

LSZH Flight Activity (Flightaware)

Listeners: 1 out of 1219 total

Zurich Radar (FL330-350): 134.605

LSZH Radar 135.680 (Archives)
Zurich, Switzerland

Feed Status: UP
Listen in your browser - HTML5 player(in browser, HTML5)
Click here to listen with your own player(launches your MP3 player)

LSZH 250650Z VRB02KT 7000 FEW004 SCT011 BKN075 19/17 Q1011 NOSIG

LSZH Flight Activity (Flightaware)

Listeners: 0 out of 1219 total


LSZH Radar 136.155 (Archives)
Zurich, Switzerland

Feed Status: UP
Listen in your browser - HTML5 player(in browser, HTML5)
Click here to listen with your own player(launches your MP3 player)

LSZH 250650Z VRB02KT 7000 FEW004 SCT011 BKN075 19/17 Q1011 NOSIG

LSZH Flight Activity (Flightaware)

Listeners: 0 out of 1219 total

Zurich Radar (Below FL240 North): 136.155

LSZH Tower (Archives)
Zurich, Switzerland

Feed Status: UP
Listen in your browser - HTML5 player(in browser, HTML5)
Click here to listen with your own player(launches your MP3 player)

LSZH 250650Z VRB02KT 7000 FEW004 SCT011 BKN075 19/17 Q1011 NOSIG

LSZH Flight Activity (Flightaware)

Listeners: 11 out of 1219 total

Zurich Tower: 118.100

LSZH Tower (14/32) (Archives)
Zurich, Switzerland

Feed Status: UP
Listen in your browser - HTML5 player(in browser, HTML5)
Click here to listen with your own player(launches your MP3 player)

LSZH 250650Z VRB02KT 7000 FEW004 SCT011 BKN075 19/17 Q1011 NOSIG

LSZH Flight Activity (Flightaware)

Listeners: 0 out of 1219 total

Zurich Tower (Rwy 14 App/32 Takeoff): 120.225

LSZH Twr/Gnd (backup) (Archives)
Zurich, Switzerland

Feed Status: UP
Listen in your browser - HTML5 player(in browser, HTML5)
Click here to listen with your own player(launches your MP3 player)

LSZH 250650Z VRB02KT 7000 FEW004 SCT011 BKN075 19/17 Q1011 NOSIG

LSZH Flight Activity (Flightaware)

Listeners: 0 out of 1219 total

Zurich Twr/Gnd (backup): 119.700

LSZL Tower (Archives)
Locarno, Switzerland

Feed Status: UP
Listen in your browser - HTML5 player(in browser, HTML5)
Click here to listen with your own player(launches your MP3 player)

LSZL 250650Z AUTO 27008KT 230V320 3200NDV +RA BR FEW005 BKN008 BKN033 18/18 Q1010 RMK

LSZL Flight Activity (Flightaware)

Listeners: 0 out of 1219 total


LSZN CTAF (Archives)
Zurich, Switzerland

Feed Status: UP
Listen in your browser - HTML5 player(in browser, HTML5)
Click here to listen with your own player(launches your MP3 player)

LSZN Flight Activity (Flightaware)

Listeners: 0 out of 1219 total

Hausen am Albis CTAF: 130.755

LSZR Tower (Archives)
Altenrhein, Switzerland

Feed Status: UP
Listen in your browser - HTML5 player(in browser, HTML5)
Click here to listen with your own player(launches your MP3 player)

LSZR 250650Z AUTO 27007KT 230V290 9999 BKN008 OVC010 19/19 Q1011

LSZR Flight Activity (Flightaware)

Listeners: 0 out of 1219 total

Altenrhein Tower: 135.425

LSZW CTAF (Archives)
Thun, Switzerland

Feed Status: UP
Listen in your browser - HTML5 player(in browser, HTML5)
Click here to listen with your own player(launches your MP3 player)

LSZW Flight Activity (Flightaware)

Listeners: 0 out of 1219 total

Thun CTAF/Info: 123.250

LTBA Gnd/Twr/App (Archives)
Istanbul, Turkey

Feed Status: UP
Listen in your browser - HTML5 player(in browser, HTML5)
Click here to listen with your own player(launches your MP3 player)

LTBA 250650Z 05016KT 9999 SCT030 26/18 Q1014 NOSIG

LTBA Flight Activity (Flightaware)

Listeners: 0 out of 1219 total

Istanbul Approach: 126.425
Istanbul Ground: 121.800
Istanbul Tower: 118.100

LTFJ Del/Gnd/Twr (Archives)
Istanbul, Turkey

Feed Status: UP
Listen in your browser - HTML5 player(in browser, HTML5)
Click here to listen with your own player(launches your MP3 player)

LTFJ 250650Z 05015KT 9999 SCT040 BKN100 25/18 Q1014 NOSIG

LTFJ Flight Activity (Flightaware)

Listeners: 1 out of 1219 total

Pegasus Dispatch: 131.750

LUKK ACC #1 (Archives)
Chisinau, Moldova

Feed Status: UP
Listen in your browser - HTML5 player(in browser, HTML5)
Click here to listen with your own player(launches your MP3 player)

LUKK 250630Z VRB02KT CAVOK 23/17 Q1018 R27/D NOSIG

LUKK Flight Activity (Flightaware)

Listeners: 0 out of 1219 total

Chisinau ACC: 130.975

LUKK ACC #2 (Archives)
Chisinau, Moldova

Feed Status: UP
Listen in your browser - HTML5 player(in browser, HTML5)
Click here to listen with your own player(launches your MP3 player)

LUKK 250630Z VRB02KT CAVOK 23/17 Q1018 R27/D NOSIG

LUKK Flight Activity (Flightaware)

Listeners: 0 out of 1219 total

Chisinau ACC: 128.975

LUKK Air to Air (Archives)
Chisinau, Moldova

Feed Status: UP
Listen in your browser - HTML5 player(in browser, HTML5)
Click here to listen with your own player(launches your MP3 player)

LUKK 250630Z VRB02KT CAVOK 23/17 Q1018 R27/D NOSIG

LUKK Flight Activity (Flightaware)

Listeners: 0 out of 1219 total

Chisinau Air to Air: 123.450

LUKK Alternate (Archives)
Chisinau, Moldova

Feed Status: UP
Listen in your browser - HTML5 player(in browser, HTML5)
Click here to listen with your own player(launches your MP3 player)

LUKK 250630Z VRB02KT CAVOK 23/17 Q1018 R27/D NOSIG

LUKK Flight Activity (Flightaware)

Listeners: 0 out of 1219 total

Chisinau Alternate: 129.725

LUKK Approach #1 (Archives)
Chisinau, Moldova

Feed Status: UP
Listen in your browser - HTML5 player(in browser, HTML5)
Click here to listen with your own player(launches your MP3 player)

LUKK 250630Z VRB02KT CAVOK 23/17 Q1018 R27/D NOSIG

LUKK Flight Activity (Flightaware)

Listeners: 0 out of 1219 total

Chisinau Approach: 133.300

LUKK Approach #2 (Archives)
Chisinau, Moldova

Feed Status: UP
Listen in your browser - HTML5 player(in browser, HTML5)
Click here to listen with your own player(launches your MP3 player)

LUKK 250630Z VRB02KT CAVOK 23/17 Q1018 R27/D NOSIG

LUKK Flight Activity (Flightaware)

Listeners: 0 out of 1219 total

Chisinau Approach: 133.300

LUKK Emergency/Guard (Archives)
Chisinau, Moldova

Feed Status: UP
Listen in your browser - HTML5 player(in browser, HTML5)
Click here to listen with your own player(launches your MP3 player)

LUKK 250630Z VRB02KT CAVOK 23/17 Q1018 R27/D NOSIG

LUKK Flight Activity (Flightaware)

Listeners: 0 out of 1219 total

Emergency/Guard: 121.500

LUKK Ground #2 (Archives)
Chisinau, Moldova

Feed Status: UP
Listen in your browser - HTML5 player(in browser, HTML5)
Click here to listen with your own player(launches your MP3 player)

LUKK 250630Z VRB02KT CAVOK 23/17 Q1018 R27/D NOSIG

LUKK Flight Activity (Flightaware)

Listeners: 0 out of 1219 total

Chisinau Ground: 121.800

LUKK Handling (Archives)
Chisinau, Moldova

Feed Status: UP
Listen in your browser - HTML5 player(in browser, HTML5)
Click here to listen with your own player(launches your MP3 player)

LUKK 250630Z VRB02KT CAVOK 23/17 Q1018 R27/D NOSIG

LUKK Flight Activity (Flightaware)

Listeners: 0 out of 1219 total

Chisinau Handling: 131.700

LUKK Tower #2 (Archives)
Chisinau, Moldova

Feed Status: UP
Listen in your browser - HTML5 player(in browser, HTML5)
Click here to listen with your own player(launches your MP3 player)

LUKK 250630Z VRB02KT CAVOK 23/17 Q1018 R27/D NOSIG

LUKK Flight Activity (Flightaware)

Listeners: 0 out of 1219 total

Chisinau Tower: 118.100

LWSK ACC (Lower) (Archives)
Petrovec, North Macedonia, Republic of

Feed Status: UP
Listen in your browser - HTML5 player(in browser, HTML5)
Click here to listen with your own player(launches your MP3 player)

LWSK 250700Z 00000KT CAVOK 23/13 Q1018 NOSIG

LWSK Flight Activity (Flightaware)

Listeners: 0 out of 1219 total

Skopje Control (Lower): 119.375

LWSK ACC (Upper) (Archives)
Petrovec, North Macedonia, Republic of

Feed Status: UP
Listen in your browser - HTML5 player(in browser, HTML5)
Click here to listen with your own player(launches your MP3 player)

LWSK 250700Z 00000KT CAVOK 23/13 Q1018 NOSIG

LWSK Flight Activity (Flightaware)

Listeners: 0 out of 1219 total

Skopje Control (Upper): 120.015

LWSK Approach (Archives)
Petrovec, North Macedonia, Republic of

Feed Status: UP
Listen in your browser - HTML5 player(in browser, HTML5)
Click here to listen with your own player(launches your MP3 player)

LWSK 250700Z 00000KT CAVOK 23/13 Q1018 NOSIG

LWSK Flight Activity (Flightaware)

Listeners: 0 out of 1219 total

Skopje Approach/Departure: 120.300

LWSK ATIS (Archives)
Petrovec, North Macedonia, Republic of

Feed Status: UP
Listen in your browser - HTML5 player(in browser, HTML5)
Click here to listen with your own player(launches your MP3 player)

LWSK 250700Z 00000KT CAVOK 23/13 Q1018 NOSIG

LWSK Flight Activity (Flightaware)

Listeners: 0 out of 1219 total

Skopje ATIS: 130.125

LWSK Tower (Archives)
Petrovec, North Macedonia, Republic of

Feed Status: UP
Listen in your browser - HTML5 player(in browser, HTML5)
Click here to listen with your own player(launches your MP3 player)

LWSK 250700Z 00000KT CAVOK 23/13 Q1018 NOSIG

LWSK Flight Activity (Flightaware)

Listeners: 0 out of 1219 total

Skopje Tower: 118.500

LYNI Twr/App (Archives)
Nis, Serbia

Feed Status: UP
Listen in your browser - HTML5 player(in browser, HTML5)
Click here to listen with your own player(launches your MP3 player)

LYNI 250630Z 19003KT 110V260 CAVOK 19/14 Q1017 NOSIG

LYNI Flight Activity (Flightaware)

Listeners: 0 out of 1219 total

Nis Approach: 119.525
Nis Approach/Tower (Alternate): 136.075
Nis Tower: 118.950

LZIB Gnd/Twr/App
Bratislava, Slovakia

Feed Status: DOWN
Offline since: 2021-05-11 13:35:23 UTC

LZIB 250630Z 05007KT 9999 FEW013 21/18 Q1012 NOSIG

BTS Handling: 131.850
Stefanik Ground: 120.900
Stefanik Ground: 121.700
Stefanik Radar: 134.925
Stefanik Tower: 118.300

LZKZ Gnd/Twr/App (Archives)
Kosice, Slovakia

Feed Status: UP
Listen in your browser - HTML5 player(in browser, HTML5)
Click here to listen with your own player(launches your MP3 player)

LZKZ 250630Z 36004KT CAVOK 22/15 Q1016 NOSIG

LZKZ Flight Activity (Flightaware)

Listeners: 0 out of 1219 total

Kosice Approach: 129.350
Kosice Approach (backup): 119.850
Kosice Ground: 121.700
Kosice Handling: 131.850
Kosice Tower: 120.400

LZNI CTAF (Archives)
Nitra, Slovakia

Feed Status: UP
Listen in your browser - HTML5 player(in browser, HTML5)
Click here to listen with your own player(launches your MP3 player)

LZNI Flight Activity (Flightaware)

Listeners: 0 out of 1219 total

Nitra Traffic Radio: 123.405

LZPE CTAF/UNICOM (Archives)
Prievidza, Slovakia

Feed Status: UP
Listen in your browser - HTML5 player(in browser, HTML5)
Click here to listen with your own player(launches your MP3 player)

LZPE Flight Activity (Flightaware)

Listeners: 0 out of 1219 total

Prievidza CTAF/UNICOM: 123.055

LZPP Ground/Tower (Archives)
Piestany, Slovakia

Feed Status: UP
Listen in your browser - HTML5 player(in browser, HTML5)
Click here to listen with your own player(launches your MP3 player)

LZPP 250630Z 01005KT 320V050 9999 FEW048 19/16 Q1013

LZPP Flight Activity (Flightaware)

Listeners: 0 out of 1219 total

Piestany Ground: 121.700
Piestany Tower: 118.575

LZPT CTAF (Archives)
Partizanske, Slovakia

Feed Status: UP
Listen in your browser - HTML5 player(in browser, HTML5)
Click here to listen with your own player(launches your MP3 player)

LZPT Flight Activity (Flightaware)

Listeners: 0 out of 1219 total

Male Bielice CTAF: 123.500

MDPP App/Dep (Archives)
Puerto Plata, Dominican Republic

Feed Status: UP
Listen in your browser - HTML5 player(in browser, HTML5)
Click here to listen with your own player(launches your MP3 player)

MDPP 250600Z 00000KT 9999 SCT018 24/23 Q1013

MDPP Flight Activity (Flightaware)

Listeners: 0 out of 1219 total

Puerto Plata Approach/Departure: 119.000

MDPP Ground/Center (Archives)
Puerto Plata, Dominican Republic

Feed Status: UP
Listen in your browser - HTML5 player(in browser, HTML5)
Click here to listen with your own player(launches your MP3 player)

MDPP 250600Z 00000KT 9999 SCT018 24/23 Q1013

MDPP Flight Activity (Flightaware)

Listeners: 0 out of 1219 total

Puerto Plata Ground: 121.900
Santo Domingo Center: 124.300

MDPP Ground/Tower/Center (Archives)
Puerto Plata, Dominican Republic

Feed Status: UP
Listen in your browser - HTML5 player(in browser, HTML5)
Click here to listen with your own player(launches your MP3 player)

MDPP 250600Z 00000KT 9999 SCT018 24/23 Q1013

MDPP Flight Activity (Flightaware)

Listeners: 0 out of 1219 total

Puerto Plata Ground: 121.900
Puerto Plata Tower: 118.000
Santo Domingo Center: 124.300

MDPP Tower (Archives)
Puerto Plata, Dominican Republic

Feed Status: UP
Listen in your browser - HTML5 player(in browser, HTML5)
Click here to listen with your own player(launches your MP3 player)

MDPP 250600Z 00000KT 9999 SCT018 24/23 Q1013

MDPP Flight Activity (Flightaware)

Listeners: 0 out of 1219 total

Puerto Plata Tower: 118.000

MHLC Gnd/Twr/Center (Archives)
La Ceiba, Honduras

Feed Status: UP
Listen in your browser - HTML5 player(in browser, HTML5)
Click here to listen with your own player(launches your MP3 player)

MHLC 250600Z VRB02KT CAVOK 23/21 Q1015 A2997 NOSIG

MHLC Flight Activity (Flightaware)

Listeners: 0 out of 1219 total

CENAMER: 123.900
CENAMER: 124.300
Goloson Ground: 121.900
Goloson Tower: 118.500
La Ceiba Radio: 128.900

MHLM Gnd/Twr/App (Archives)
San Pedro Sula, Honduras

Feed Status: UP
Listen in your browser - HTML5 player(in browser, HTML5)
Click here to listen with your own player(launches your MP3 player)

MHLM 250700Z 05004KT 9999 FEW025 BKN250 25/22 Q1015 A2997 NOSIG

MHLM Flight Activity (Flightaware)

Listeners: 0 out of 1219 total

La Mesa Ground: 121.900
La Mesa Tower: 118.200
San Pedro Sula Approach: 119.700

MHRO Gnd/Twr/App/Center (Archives)
Roatan, Honduras

Feed Status: UP
Listen in your browser - HTML5 player(in browser, HTML5)
Click here to listen with your own player(launches your MP3 player)


MHRO Flight Activity (Flightaware)

Listeners: 0 out of 1219 total

CENAMER (Center): 124.300
La Ceiba Radio: 128.900
Roatan Ground: 121.600
Roatan Tower: 118.100

MHTG ATIS
Tegucigalpa, Honduras

Feed Status: DOWN
Offline since: 2021-03-26 06:57:05 UTC

MHTG 250700Z 31002KT 9999 SCT028 BKN200 20/16 Q1020 A3012 NOSIG

Toncontin ATIS: 127.750

MHTG Gnd/Twr/App/Ctr/Ops (Archives)
Tegucigalpa, Honduras

Feed Status: UP
Listen in your browser - HTML5 player(in browser, HTML5)
Click here to listen with your own player(launches your MP3 player)

MHTG 250700Z 31002KT 9999 SCT028 BKN200 20/16 Q1020 A3012 NOSIG

MHTG Flight Activity (Flightaware)

Listeners: 0 out of 1219 total

American Airlines Ops: 130.700
ARINC ACARS: 131.550
Cenamer Center: 123.900
Cenamer Center: 124.300
Cenamer Center: 124.100
CMP Ops: 129.925
Continental Airlines Ops: 129.925
FAH Ground: 122.900
Taca Ops: 131.300
Taca Ops Sal: 130.300
Tecnologias Unidas: 133.000
Tegucigalpa RDO: 126.700
Toncontin Approach: 119.100
Toncontin Ground: 121.900
Toncontin Tower: 118.700

MMCU Twr/App (Archives)
Chihuahua, Mexico

Feed Status: UP
Listen in your browser - HTML5 player(in browser, HTML5)
Click here to listen with your own player(launches your MP3 player)


MMCU Flight Activity (Flightaware)

Listeners: 0 out of 1219 total

Chihuahua Approach: 121.000
Chihuahua Tower: 118.400

MMGL Twr/App (Archives)
Guadalajara, Mexico

Feed Status: UP
Listen in your browser - HTML5 player(in browser, HTML5)
Click here to listen with your own player(launches your MP3 player)

MMGL 250649Z 00000KT 7SM SCT030 BKN300 18/14 A3026 RMK 8/508

MMGL Flight Activity (Flightaware)

Listeners: 4 out of 1219 total

Guadalajara Approach: 120.800
Guadalajara Tower: 118.100

MMHO App/Dep (Archives)
Hermosillo, Mexico

Feed Status: UP
Listen in your browser - HTML5 player(in browser, HTML5)
Click here to listen with your own player(launches your MP3 player)

MMHO 250640Z 08011KT 10SM SCT090 SCT200 26/21 A2999 RMK 8/038 ISOL SC

MMHO Flight Activity (Flightaware)

Listeners: 0 out of 1219 total

Hermosillo Approach/Departure: 121.400

MMHO Info (Archives)
Hermosillo, Mexico

Feed Status: UP
Listen in your browser - HTML5 player(in browser, HTML5)
Click here to listen with your own player(launches your MP3 player)

MMHO 250640Z 08011KT 10SM SCT090 SCT200 26/21 A2999 RMK 8/038 ISOL SC

MMHO Flight Activity (Flightaware)

Listeners: 0 out of 1219 total

Hermosillo Info: 122.300

MMHO Tower (Archives)
Hermosillo, Mexico

Feed Status: UP
Listen in your browser - HTML5 player(in browser, HTML5)
Click here to listen with your own player(launches your MP3 player)

MMHO 250640Z 08011KT 10SM SCT090 SCT200 26/21 A2999 RMK 8/038 ISOL SC

MMHO Flight Activity (Flightaware)

Listeners: 0 out of 1219 total

Hermosillo Tower: 118.700

MMHO Twr/App (Archives)
Hermosillo, Mexico

Feed Status: UP
Listen in your browser - HTML5 player(in browser, HTML5)
Click here to listen with your own player(launches your MP3 player)

MMHO 250640Z 08011KT 10SM SCT090 SCT200 26/21 A2999 RMK 8/038 ISOL SC

MMHO Flight Activity (Flightaware)

Listeners: 0 out of 1219 total

Hermosillo Approach/Departure: 121.400
Hermosillo Info: 122.300
Hermosillo Tower: 118.700

MMLP Twr/App (Archives)
La Paz, Mexico

Feed Status: UP
Listen in your browser - HTML5 player(in browser, HTML5)
Click here to listen with your own player(launches your MP3 player)


MMLP Flight Activity (Flightaware)

Listeners: 0 out of 1219 total

La Paz Approach: 120.600
La Paz Tower: 118.100

MMMD App/Dep (Archives)
Merida, Mexico

Feed Status: UP
Listen in your browser - HTML5 player(in browser, HTML5)
Click here to listen with your own player(launches your MP3 player)


MMMD Flight Activity (Flightaware)

Listeners: 0 out of 1219 total

Merida Approach: 121.200

MMMD Merida Center 125.2/128.2 (Archives)
Merida, Mexico

Feed Status: UP
Listen in your browser - HTML5 player(in browser, HTML5)
Click here to listen with your own player(launches your MP3 player)


MMMD Flight Activity (Flightaware)

Listeners: 0 out of 1219 total

Merida Center: 125.200
Merida Center: 128.200

MMMD Merida Center 125.8/123.75 (Archives)
Merida, Mexico

Feed Status: UP
Listen in your browser - HTML5 player(in browser, HTML5)
Click here to listen with your own player(launches your MP3 player)


MMMD Flight Activity (Flightaware)

Listeners: 0 out of 1219 total

Merida Center: 125.800
Merida Center: 123.750

MMMD Tower (Archives)
Merida, Mexico

Feed Status: UP
Listen in your browser - HTML5 player(in browser, HTML5)
Click here to listen with your own player(launches your MP3 player)


MMMD Flight Activity (Flightaware)

Listeners: 0 out of 1219 total

Merida Tower: 118.300

MMMM Tower (Archives)
Morelia, Mexico

Feed Status: UP
Listen in your browser - HTML5 player(in browser, HTML5)
Click here to listen with your own player(launches your MP3 player)

MMMM 250640Z 27004KT 4SM -RA BKN030CB OVC080 15/15 A3036 RMK 60355 8/96/ TSE35

MMMM Flight Activity (Flightaware)

Listeners: 0 out of 1219 total

Morelia Tower: 118.500

MMMX Approach (Archives)
Mexico City, Mexico

Feed Status: UP
Listen in your browser - HTML5 player(in browser, HTML5)
Click here to listen with your own player(launches your MP3 player)


MMMX Flight Activity (Flightaware)

Listeners: 3 out of 1219 total

Mexico City Approach: 121.200

MMMX Twr/App (Archives)
Mexico City, Mexico

Feed Status: UP
Listen in your browser - HTML5 player(in browser, HTML5)
Click here to listen with your own player(launches your MP3 player)


MMMX Flight Activity (Flightaware)

Listeners: 4 out of 1219 total

Mexico City Approach: 121.200
Mexico City Arrival (North): 129.650
Mexico City Arrival (South): 119.100
Mexico City Final Approach: 119.750
Mexico City Tower: 118.550

MMMY Tower/Approach
Monterrey, Mexico

Feed Status: DOWN
Offline since: 2021-06-04 09:28:40 UTC


Monterrey Approach/Departure: 119.750
Monterrey Tower: 118.100

MMPC CTAF (Archives)
Pachuca, Mexico

Feed Status: UP
Listen in your browser - HTML5 player(in browser, HTML5)
Click here to listen with your own player(launches your MP3 player)

MMPC Flight Activity (Flightaware)

Listeners: 0 out of 1219 total

Pachuca CTAF/AFIS: 122.900

MMSP Gnd/Twr/App/Center (Archives)
San Luis Potosi, Mexico

Feed Status: UP
Listen in your browser - HTML5 player(in browser, HTML5)
Click here to listen with your own player(launches your MP3 player)

MMSP 250648Z 15005KT 8SM SKC 16/06 A3034

MMSP Flight Activity (Flightaware)

Listeners: 0 out of 1219 total

AMX Ground Ops: 131.000
Mexico Center (North, Sector 6): 126.000
Mexico Center (Northwest, Sector 7): 123.900
Mexico Center (West, Sector 5): 125.100
Potosi Approach: 127.500
Potosi Tower: 118.900
TAO Ground Ops: 133.600

MMTC Twr/App/Center (Archives)
Torreon, Mexico

Feed Status: UP
Listen in your browser - HTML5 player(in browser, HTML5)
Click here to listen with your own player(launches your MP3 player)


MMTC Flight Activity (Flightaware)

Listeners: 3 out of 1219 total

Mazatlan Center: 124.200
Mazatlan Center: 124.400
Mazatlan Center: 128.000
Mexico Center: 123.900
Monterrey Center: 125.600
Monterrey Center: 125.425
Monterrey Center: 127.400
Torreon Approach: 119.500
Torreon Tower: 118.500

MMTJ Approach (Archives)
Tijuana, Mexico

Feed Status: UP
Listen in your browser - HTML5 player(in browser, HTML5)
Click here to listen with your own player(launches your MP3 player)

MMTJ 250549Z 30005KT 6SM SCT015 BKN200 19/17 A3004 RMK SLP175 52010 960 8/508 HZY

MMTJ Flight Activity (Flightaware)

Listeners: 0 out of 1219 total

Tijuana Approach: 120.300

MMTJ Twr/Ramp (Archives)
Tijuana, Mexico

Feed Status: UP
Listen in your browser - HTML5 player(in browser, HTML5)
Click here to listen with your own player(launches your MP3 player)

MMTJ 250549Z 30005KT 6SM SCT015 BKN200 19/17 A3004 RMK SLP175 52010 960 8/508 HZY

MMTJ Flight Activity (Flightaware)

Listeners: 0 out of 1219 total

Tijuana Ramp: 126.100
Tijuana Tower: 118.100

MPMG Ground (Archives)
Panama City, Panama

Feed Status: UP
Listen in your browser - HTML5 player(in browser, HTML5)
Click here to listen with your own player(launches your MP3 player)


MPMG Flight Activity (Flightaware)

Listeners: 0 out of 1219 total

Gelabert Ground: 121.700

MPMG Tower (Archives)
Panama City, Panama

Feed Status: UP
Listen in your browser - HTML5 player(in browser, HTML5)
Click here to listen with your own player(launches your MP3 player)


MPMG Flight Activity (Flightaware)

Listeners: 0 out of 1219 total

Gelabert Tower: 118.300

Panama App/Dep #1 (Archives)
Panama City, Panama

Feed Status: UP
Listen in your browser - HTML5 player(in browser, HTML5)
Click here to listen with your own player(launches your MP3 player)


MPMG Flight Activity (Flightaware)

Listeners: 0 out of 1219 total

Panama Approach: 119.700
Panama Departure: 119.200

Panama App/Dep #2 (Archives)
Panama City, Panama

Feed Status: UP
Listen in your browser - HTML5 player(in browser, HTML5)
Click here to listen with your own player(launches your MP3 player)


MPPA Flight Activity (Flightaware)

Listeners: 0 out of 1219 total

Panama Approach: 119.700
Panama Departure: 119.200

Panama App/Dep #3 (Archives)
Panama City, Panama

Feed Status: UP
Listen in your browser - HTML5 player(in browser, HTML5)
Click here to listen with your own player(launches your MP3 player)

MPTO 250600Z 00000KT 9999 SCT016CB SCT090 25/24 Q1013 NOSIG

MPTO Flight Activity (Flightaware)

Listeners: 0 out of 1219 total

Panama Approach: 119.700
Panama Departure: 119.200

Panama Approach #1 (Archives)
Panama City, Panama

Feed Status: UP
Listen in your browser - HTML5 player(in browser, HTML5)
Click here to listen with your own player(launches your MP3 player)


MPMG Flight Activity (Flightaware)

Listeners: 0 out of 1219 total

Panama Approach: 119.700

Panama Center #1
Panama City, Panama

Feed Status: DOWN
Offline since: 2021-06-07 17:47:05 UTC


Panama Center: 134.900
Panama Center (North): 133.300
Panama Center (North): 125.500
Panama Center (South): 123.300
Panama Center (South): 133.000

Panama Center #2 (Archives)
Panama City, Panama

Feed Status: UP
Listen in your browser - HTML5 player(in browser, HTML5)
Click here to listen with your own player(launches your MP3 player)


MPPA Flight Activity (Flightaware)

Listeners: 0 out of 1219 total

Panama Center: 134.900
Panama Center (North): 125.500
Panama Center (North): 133.300
Panama Center (South): 123.300
Panama Center (South): 133.000

Panama Departure #1 (Archives)
Panama City, Panama

Feed Status: UP
Listen in your browser - HTML5 player(in browser, HTML5)
Click here to listen with your own player(launches your MP3 player)


MPMG Flight Activity (Flightaware)

Listeners: 0 out of 1219 total

Panama Departure: 119.200

Panama Radio #1 (Archives)
Panama City, Panama

Feed Status: UP
Listen in your browser - HTML5 player(in browser, HTML5)
Click here to listen with your own player(launches your MP3 player)


MPMG Flight Activity (Flightaware)

Listeners: 0 out of 1219 total

Panama Radio: 123.600
Panama Radio: 126.900

Panama Traffic Advisory #1 (Archives)
Panama City, Panama

Feed Status: UP
Listen in your browser - HTML5 player(in browser, HTML5)
Click here to listen with your own player(launches your MP3 player)


MPMG Flight Activity (Flightaware)

Listeners: 0 out of 1219 total

Panama Traffic Advisory: 121.200

MPPA Ground (Archives)
Panama City, Panama

Feed Status: UP
Listen in your browser - HTML5 player(in browser, HTML5)
Click here to listen with your own player(launches your MP3 player)


MPPA Flight Activity (Flightaware)

Listeners: 0 out of 1219 total

Pacifico Ground: 121.100

MPPA Ground/Tower (Archives)
Panama City, Panama

Feed Status: UP
Listen in your browser - HTML5 player(in browser, HTML5)
Click here to listen with your own player(launches your MP3 player)


MPPA Flight Activity (Flightaware)

Listeners: 0 out of 1219 total

Pacifico Ground: 121.100
Pacifico Tower: 118.900

MPPA Tower (Archives)
Panama City, Panama

Feed Status: UP
Listen in your browser - HTML5 player(in browser, HTML5)
Click here to listen with your own player(launches your MP3 player)


MPPA Flight Activity (Flightaware)

Listeners: 0 out of 1219 total

Pacifico Tower: 118.900

Panama App/Dep #1 (Archives)
Panama City, Panama

Feed Status: UP
Listen in your browser - HTML5 player(in browser, HTML5)
Click here to listen with your own player(launches your MP3 player)


MPMG Flight Activity (Flightaware)

Listeners: 0 out of 1219 total

Panama Approach: 119.700
Panama Departure: 119.200

Panama App/Dep #2 (Archives)
Panama City, Panama

Feed Status: UP
Listen in your browser - HTML5 player(in browser, HTML5)
Click here to listen with your own player(launches your MP3 player)


MPPA Flight Activity (Flightaware)

Listeners: 0 out of 1219 total

Panama Approach: 119.700
Panama Departure: 119.200

Panama App/Dep #3 (Archives)
Panama City, Panama

Feed Status: UP
Listen in your browser - HTML5 player(in browser, HTML5)
Click here to listen with your own player(launches your MP3 player)

MPTO 250600Z 00000KT 9999 SCT016CB SCT090 25/24 Q1013 NOSIG

MPTO Flight Activity (Flightaware)

Listeners: 0 out of 1219 total

Panama Approach: 119.700
Panama Departure: 119.200

Panama Approach #1 (Archives)
Panama City, Panama

Feed Status: UP
Listen in your browser - HTML5 player(in browser, HTML5)
Click here to listen with your own player(launches your MP3 player)


MPMG Flight Activity (Flightaware)

Listeners: 0 out of 1219 total

Panama Approach: 119.700

Panama Center #1
Panama City, Panama

Feed Status: DOWN
Offline since: 2021-06-07 17:47:05 UTC


Panama Center: 134.900
Panama Center (North): 133.300
Panama Center (North): 125.500
Panama Center (South): 123.300
Panama Center (South): 133.000

Panama Center #2 (Archives)
Panama City, Panama

Feed Status: UP
Listen in your browser - HTML5 player(in browser, HTML5)
Click here to listen with your own player(launches your MP3 player)


MPPA Flight Activity (Flightaware)

Listeners: 0 out of 1219 total

Panama Center: 134.900
Panama Center (North): 125.500
Panama Center (North): 133.300
Panama Center (South): 123.300
Panama Center (South): 133.000

Panama Departure #1 (Archives)
Panama City, Panama

Feed Status: UP
Listen in your browser - HTML5 player(in browser, HTML5)
Click here to listen with your own player(launches your MP3 player)


MPMG Flight Activity (Flightaware)

Listeners: 0 out of 1219 total

Panama Departure: 119.200

Panama Radio #1 (Archives)
Panama City, Panama

Feed Status: UP
Listen in your browser - HTML5 player(in browser, HTML5)
Click here to listen with your own player(launches your MP3 player)


MPMG Flight Activity (Flightaware)

Listeners: 0 out of 1219 total

Panama Radio: 123.600
Panama Radio: 126.900

Panama Traffic Advisory #1 (Archives)
Panama City, Panama

Feed Status: UP
Listen in your browser - HTML5 player(in browser, HTML5)
Click here to listen with your own player(launches your MP3 player)


MPMG Flight Activity (Flightaware)

Listeners: 0 out of 1219 total

Panama Traffic Advisory: 121.200

MPTO ATIS (Archives)
Panama City, Panama

Feed Status: UP
Listen in your browser - HTML5 player(in browser, HTML5)
Click here to listen with your own player(launches your MP3 player)

MPTO 250600Z 00000KT 9999 SCT016CB SCT090 25/24 Q1013 NOSIG

MPTO Flight Activity (Flightaware)

Listeners: 0 out of 1219 total

Panama ATIS: 127.700

MPTO Clearance Delivery (Archives)
Panama City, Panama

Feed Status: UP
Listen in your browser - HTML5 player(in browser, HTML5)
Click here to listen with your own player(launches your MP3 player)

MPTO 250600Z 00000KT 9999 SCT016CB SCT090 25/24 Q1013 NOSIG

MPTO Flight Activity (Flightaware)

Listeners: 0 out of 1219 total

Panama Clearance Delivery: 129.800

MPTO Del/Ground (Archives)
Panama City, Panama

Feed Status: UP
Listen in your browser - HTML5 player(in browser, HTML5)
Click here to listen with your own player(launches your MP3 player)

MPTO 250600Z 00000KT 9999 SCT016CB SCT090 25/24 Q1013 NOSIG

MPTO Flight Activity (Flightaware)

Listeners: 0 out of 1219 total

Panama Clearance Delivery: 129.800
Panama Ground: 121.900

MPTO Ground (Archives)
Panama City, Panama

Feed Status: UP
Listen in your browser - HTML5 player(in browser, HTML5)
Click here to listen with your own player(launches your MP3 player)

MPTO 250600Z 00000KT 9999 SCT016CB SCT090 25/24 Q1013 NOSIG

MPTO Flight Activity (Flightaware)

Listeners: 0 out of 1219 total

Panama Ground: 121.900

MPTO Ground/Tower (Archives)
Panama City, Panama

Feed Status: UP
Listen in your browser - HTML5 player(in browser, HTML5)
Click here to listen with your own player(launches your MP3 player)

MPTO 250600Z 00000KT 9999 SCT016CB SCT090 25/24 Q1013 NOSIG

MPTO Flight Activity (Flightaware)

Listeners: 0 out of 1219 total

Panama Ground: 121.900
Panama Tower: 118.100

MPTO Tower (Archives)
Panama City, Panama

Feed Status: UP
Listen in your browser - HTML5 player(in browser, HTML5)
Click here to listen with your own player(launches your MP3 player)

MPTO 250600Z 00000KT 9999 SCT016CB SCT090 25/24 Q1013 NOSIG

MPTO Flight Activity (Flightaware)

Listeners: 0 out of 1219 total

Panama Tower: 118.100

Panama App/Dep #1 (Archives)
Panama City, Panama

Feed Status: UP
Listen in your browser - HTML5 player(in browser, HTML5)
Click here to listen with your own player(launches your MP3 player)


MPMG Flight Activity (Flightaware)

Listeners: 0 out of 1219 total

Panama Approach: 119.700
Panama Departure: 119.200

Panama App/Dep #2 (Archives)
Panama City, Panama

Feed Status: UP
Listen in your browser - HTML5 player(in browser, HTML5)
Click here to listen with your own player(launches your MP3 player)


MPPA Flight Activity (Flightaware)

Listeners: 0 out of 1219 total

Panama Approach: 119.700
Panama Departure: 119.200

Panama App/Dep #3 (Archives)
Panama City, Panama

Feed Status: UP
Listen in your browser - HTML5 player(in browser, HTML5)
Click here to listen with your own player(launches your MP3 player)

MPTO 250600Z 00000KT 9999 SCT016CB SCT090 25/24 Q1013 NOSIG

MPTO Flight Activity (Flightaware)

Listeners: 0 out of 1219 total

Panama Approach: 119.700
Panama Departure: 119.200

Panama Approach #1 (Archives)
Panama City, Panama

Feed Status: UP
Listen in your browser - HTML5 player(in browser, HTML5)
Click here to listen with your own player(launches your MP3 player)


MPMG Flight Activity (Flightaware)

Listeners: 0 out of 1219 total

Panama Approach: 119.700

Panama Center #1
Panama City, Panama

Feed Status: DOWN
Offline since: 2021-06-07 17:47:05 UTC


Panama Center: 134.900
Panama Center (North): 133.300
Panama Center (North): 125.500
Panama Center (South): 123.300
Panama Center (South): 133.000

Panama Center #2 (Archives)
Panama City, Panama

Feed Status: UP
Listen in your browser - HTML5 player(in browser, HTML5)
Click here to listen with your own player(launches your MP3 player)


MPPA Flight Activity (Flightaware)

Listeners: 0 out of 1219 total

Panama Center: 134.900
Panama Center (North): 125.500
Panama Center (North): 133.300
Panama Center (South): 123.300
Panama Center (South): 133.000

Panama Departure #1 (Archives)
Panama City, Panama

Feed Status: UP
Listen in your browser - HTML5 player(in browser, HTML5)
Click here to listen with your own player(launches your MP3 player)


MPMG Flight Activity (Flightaware)

Listeners: 0 out of 1219 total

Panama Departure: 119.200

Panama Radio #1 (Archives)
Panama City, Panama

Feed Status: UP
Listen in your browser - HTML5 player(in browser, HTML5)
Click here to listen with your own player(launches your MP3 player)


MPMG Flight Activity (Flightaware)

Listeners: 0 out of 1219 total

Panama Radio: 123.600
Panama Radio: 126.900

Panama Traffic Advisory #1 (Archives)
Panama City, Panama

Feed Status: UP
Listen in your browser - HTML5 player(in browser, HTML5)
Click here to listen with your own player(launches your MP3 player)


MPMG Flight Activity (Flightaware)

Listeners: 0 out of 1219 total

Panama Traffic Advisory: 121.200

CENAMER/Panama ACC (Archives)
San Jose, Costa Rica

Feed Status: UP
Listen in your browser - HTML5 player(in browser, HTML5)
Click here to listen with your own player(launches your MP3 player)

MROC 250700Z 05004KT 020V100 CAVOK 20/18 A3004 NOSIG

MROC Flight Activity (Flightaware)

Listeners: 0 out of 1219 total

Central American Center (CENAMER Control): 124.100
Central American Center (CENAMER Control): 123.900
Panama Center: 133.000

MROC Del/Gnd/Twr (Archives)
San Jose, Costa Rica

Feed Status: UP
Listen in your browser - HTML5 player(in browser, HTML5)
Click here to listen with your own player(launches your MP3 player)

MROC 250700Z 05004KT 020V100 CAVOK 20/18 A3004 NOSIG

MROC Flight Activity (Flightaware)

Listeners: 0 out of 1219 total

Coco Clearance Delivery/Ground: 121.900
Coco Tower: 118.600

MROC Del/Gnd/Twr/App/Center/Misc (Archives)
San Jose, Costa Rica

Feed Status: UP
Listen in your browser - HTML5 player(in browser, HTML5)
Click here to listen with your own player(launches your MP3 player)

MROC 250700Z 05004KT 020V100 CAVOK 20/18 A3004 NOSIG

MROC Flight Activity (Flightaware)

Listeners: 1 out of 1219 total

Coco Center (Control over CR Airspace): 119.600
Coco Clearance Delivery: 121.300
Coco Ground: 121.900
Coco Terminal Control: 120.500
Coco Tower: 118.600
Coco UNICOM: 126.800

MRPV Ground/Tower (Archives)
San Jose, Costa Rica

Feed Status: UP
Listen in your browser - HTML5 player(in browser, HTML5)
Click here to listen with your own player(launches your MP3 player)


MRPV Flight Activity (Flightaware)

Listeners: 0 out of 1219 total

Pavas Ground: 121.700
Pavas Tower: 118.300

MSLP Gnd/Twr/App (Archives)
San Salvador, El Salvador

Feed Status: UP
Listen in your browser - HTML5 player(in browser, HTML5)
Click here to listen with your own player(launches your MP3 player)

MSLP 250650Z 35006KT 9999 FEW033 OVC070 24/22 Q1012 A2989 NOSIG

MSLP Flight Activity (Flightaware)

Listeners: 0 out of 1219 total

Comalapa Ground: 121.700
Comalapa Tower: 118.000
Compalapa Approach: 119.900

MSLP Gnd/Twr/App/Center (Archives)
San Salvador, El Salvador

Feed Status: UP
Listen in your browser - HTML5 player(in browser, HTML5)
Click here to listen with your own player(launches your MP3 player)

MSLP 250650Z 35006KT 9999 FEW033 OVC070 24/22 Q1012 A2989 NOSIG

MSLP Flight Activity (Flightaware)

Listeners: 0 out of 1219 total

Avianca Ops: 123.500
CCA: 119.300
CENAMER: 124.100
Comalapa Authorizations: 121.250
Comalapa Departure: 123.900
Comalapa Ground: 121.700
Comalapa Tower: 118.000
Compalapa Approach: 119.900
Ilopango Tower: 118.300
TACA Ops: 130.500

MSSS Tower
San Salvador, El Salvador

Feed Status: DOWN
Offline since: 2021-07-04 08:52:40 UTC


Ilopango Tower: 118.300

MUFH Havana FIR (App/Center) (Archives)
Havana, Cuba

Feed Status: UP
Listen in your browser - HTML5 player(in browser, HTML5)
Click here to listen with your own player(launches your MP3 player)

MUFH Flight Activity (Flightaware)

Listeners: 0 out of 1219 total

Hava Approach: 120.300
Havana Center: 120.250
Havana Center: 123.700
Havana Center: 124.550
Havana Center: 133.700
Havana Center: 135.100

Miami Center (Bahamas Area) (Archives)
Deadman's Cay, Bahamas

Feed Status: UP
Listen in your browser - HTML5 player(in browser, HTML5)
Click here to listen with your own player(launches your MP3 player)


MYLD Flight Activity (Flightaware)

Listeners: 0 out of 1219 total

Miami Center (TBD/Misc):

MYLD Emergency/Guard (Archives)
Deadman's Cay, Bahamas

Feed Status: UP
Listen in your browser - HTML5 player(in browser, HTML5)
Click here to listen with your own player(launches your MP3 player)


MYLD Flight Activity (Flightaware)

Listeners: 0 out of 1219 total

Emergency/Guard: 121.500

MYLD/MYLS CTAF (Archives)
Deadman's Cay, Bahamas

Feed Status: UP
Listen in your browser - HTML5 player(in browser, HTML5)
Click here to listen with your own player(launches your MP3 player)


MYLD Flight Activity (Flightaware)

Listeners: 0 out of 1219 total

Deadmans Cay CTAF: 122.800

MYLD/MYLS CTAF (Archives)
Stella Maris, Bahamas

Feed Status: UP
Listen in your browser - HTML5 player(in browser, HTML5)
Click here to listen with your own player(launches your MP3 player)


MYLD Flight Activity (Flightaware)

Listeners: 0 out of 1219 total

Deadmans Cay CTAF: 122.800

OBBI Gnd/Twr/App (Archives)
Muharraq, Bahrain

Feed Status: UP
Listen in your browser - HTML5 player(in browser, HTML5)
Click here to listen with your own player(launches your MP3 player)

OBBI 250700Z 10008KT 9999 FEW030 38/27 Q0999 NOSIG


Listeners: 1 out of 1219 total

Bahrain Arrival: 127.850
Bahrain Control (Low Central): 124.300
Bahrain Control (Low East): 125.700
Bahrain Control (Low North): 126.700
Bahrain Departure: 119.100
Bahrain Ground: 121.850
Bahrain Tower: 118.500

OKBK Gnd/Twr/App/Radar (Archives)
Kuwait City, Kuwait

Feed Status: UP
Listen in your browser - HTML5 player(in browser, HTML5)
Click here to listen with your own player(launches your MP3 player)

OKBK 250700Z 02011KT 7000 NSC 44/11 Q0999 NOSIG


Listeners: 0 out of 1219 total

Kuwait Approach: 121.300
Kuwait Approach: 124.800
Kuwait Ground: 121.700
Kuwait Radar (Center): 125.300
Kuwait Tower: 118.300

OPKC Gnd/Twr/Radar (Archives)
Karachi, Pakistan

Feed Status: UP
Listen in your browser - HTML5 player(in browser, HTML5)
Click here to listen with your own player(launches your MP3 player)

OPKC 250700Z 25014KT 6000 SCT020 BKN030 32/24 Q1000 NOSIG


Listeners: 2 out of 1219 total

Karachi Ground: 121.600
Karachi Radar: 125.500
Karachi Tower: 118.300

OPLA ATIS (Archives)
Lahore, Pakistan

Feed Status: UP
Listen in your browser - HTML5 player(in browser, HTML5)
Click here to listen with your own player(launches your MP3 player)

OPLA 250655Z 13008KT 4000 FU SCT040 SCT100 36/26 Q0998 TEMPO 31020G35KT 1500 TSRA FEW030CB RMK QFE971 RMK A29.49


Listeners: 0 out of 1219 total

Lahore ATIS: 126.300

OPLA/OPLH Gnd/Twr/App (Archives)
Lahore, Pakistan

Feed Status: UP
Listen in your browser - HTML5 player(in browser, HTML5)
Click here to listen with your own player(launches your MP3 player)

OPLA 250655Z 13008KT 4000 FU SCT040 SCT100 36/26 Q0998 TEMPO 31020G35KT 1500 TSRA FEW030CB RMK QFE971 RMK A29.49


Listeners: 0 out of 1219 total

Lahore Approach: 121.300
Lahore Approach: 125.300
Lahore Control: 127.500
Lahore Ground: 118.400
Lahore Tower: 118.100
Lahore Tower: 121.800
Walton (OPLH) Tower: 119.400

RJAA Approach (Archives)
Tokyo, Japan

Feed Status: UP
Listen in your browser - HTML5 player(in browser, HTML5)
Click here to listen with your own player(launches your MP3 player)

RJAA 250630Z 12009KT 090V150 9999 FEW025 SCT030 30/23 Q1009 NOSIG RMK 1CU025 3CU030 A2980

RJAA Flight Activity (Flightaware)

Listeners: 20 out of 1219 total

Tokyo Approach: 124.400
Tokyo Approach: 127.700

RJAA ATIS (Archives)
Tokyo, Japan

Feed Status: UP
Listen in your browser - HTML5 player(in browser, HTML5)
Click here to listen with your own player(launches your MP3 player)

RJAA 250630Z 12009KT 090V150 9999 FEW025 SCT030 30/23 Q1009 NOSIG RMK 1CU025 3CU030 A2980

RJAA Flight Activity (Flightaware)

Listeners: 0 out of 1219 total

Narita ATIS: 128.250

RJAA Clearance Delivery (Archives)
Tokyo, Japan

Feed Status: UP
Listen in your browser - HTML5 player(in browser, HTML5)
Click here to listen with your own player(launches your MP3 player)

RJAA 250630Z 12009KT 090V150 9999 FEW025 SCT030 30/23 Q1009 NOSIG RMK 1CU025 3CU030 A2980

RJAA Flight Activity (Flightaware)

Listeners: 0 out of 1219 total

Narita Clearance Delivery (Asia/Pacific): 121.650
Narita Clearance Delivery (US/Europe): 121.900

RJAA Clearance Delivery #1 (Archives)
Tokyo, Japan

Feed Status: UP
Listen in your browser - HTML5 player(in browser, HTML5)
Click here to listen with your own player(launches your MP3 player)

RJAA 250630Z 12009KT 090V150 9999 FEW025 SCT030 30/23 Q1009 NOSIG RMK 1CU025 3CU030 A2980

RJAA Flight Activity (Flightaware)

Listeners: 1 out of 1219 total

Narita Clearance Delivery (Asia/Pacific): 121.650

RJAA Clearance Delivery #2 (Archives)
Tokyo, Japan

Feed Status: UP
Listen in your browser - HTML5 player(in browser, HTML5)
Click here to listen with your own player(launches your MP3 player)

RJAA 250630Z 12009KT 090V150 9999 FEW025 SCT030 30/23 Q1009 NOSIG RMK 1CU025 3CU030 A2980

RJAA Flight Activity (Flightaware)

Listeners: 0 out of 1219 total

Narita Clearance Delivery (US/Europe): 121.900

RJAA Company Channels (Archives)
Tokyo, Japan

Feed Status: UP
Listen in your browser - HTML5 player(in browser, HTML5)
Click here to listen with your own player(launches your MP3 player)

RJAA 250630Z 12009KT 090V150 9999 FEW025 SCT030 30/23 Q1009 NOSIG RMK 1CU025 3CU030 A2980

RJAA Flight Activity (Flightaware)

Listeners: 1 out of 1219 total

Ops: 130.450
Ops: 130.550
Ops: 130.900
Ops: 131.025
Ops: 131.100
Ops: 131.200
Ops: 131.700
Ops: 131.750

RJAA Departure (Archives)
Tokyo, Japan

Feed Status: UP
Listen in your browser - HTML5 player(in browser, HTML5)
Click here to listen with your own player(launches your MP3 player)

RJAA 250630Z 12009KT 090V150 9999 FEW025 SCT030 30/23 Q1009 NOSIG RMK 1CU025 3CU030 A2980

RJAA Flight Activity (Flightaware)

Listeners: 2 out of 1219 total

Tokyo Departure: 119.600
Tokyo Departure: 124.200

RJAA Departure #1 (Archives)
Tokyo, Japan

Feed Status: UP
Listen in your browser - HTML5 player(in browser, HTML5)
Click here to listen with your own player(launches your MP3 player)

RJAA 250630Z 12009KT 090V150 9999 FEW025 SCT030 30/23 Q1009 NOSIG RMK 1CU025 3CU030 A2980

RJAA Flight Activity (Flightaware)

Listeners: 0 out of 1219 total

Tokyo Departure: 124.200

RJAA Departure #2 (Archives)
Tokyo, Japan

Feed Status: UP
Listen in your browser - HTML5 player(in browser, HTML5)
Click here to listen with your own player(launches your MP3 player)

RJAA 250630Z 12009KT 090V150 9999 FEW025 SCT030 30/23 Q1009 NOSIG RMK 1CU025 3CU030 A2980

RJAA Flight Activity (Flightaware)

Listeners: 0 out of 1219 total

Tokyo Departure: 119.600

RJAA Emergency/Guard (Archives)
Tokyo, Japan

Feed Status: UP
Listen in your browser - HTML5 player(in browser, HTML5)
Click here to listen with your own player(launches your MP3 player)

RJAA 250630Z 12009KT 090V150 9999 FEW025 SCT030 30/23 Q1009 NOSIG RMK 1CU025 3CU030 A2980

RJAA Flight Activity (Flightaware)

Listeners: 0 out of 1219 total

Emergency/Guard: 121.500

RJAA Ground #1 (Archives)
Tokyo, Japan

Feed Status: UP
Listen in your browser - HTML5 player(in browser, HTML5)
Click here to listen with your own player(launches your MP3 player)

RJAA 250630Z 12009KT 090V150 9999 FEW025 SCT030 30/23 Q1009 NOSIG RMK 1CU025 3CU030 A2980

RJAA Flight Activity (Flightaware)

Listeners: 1 out of 1219 total

Narita Ground: 121.850

RJAA Ground #2 (Archives)
Tokyo, Japan

Feed Status: UP
Listen in your browser - HTML5 player(in browser, HTML5)
Click here to listen with your own player(launches your MP3 player)

RJAA 250630Z 12009KT 090V150 9999 FEW025 SCT030 30/23 Q1009 NOSIG RMK 1CU025 3CU030 A2980

RJAA Flight Activity (Flightaware)

Listeners: 0 out of 1219 total

Narita Ground: 121.950

RJAA Radar 119.025 (Archives)
Tokyo, Japan

Feed Status: UP
Listen in your browser - HTML5 player(in browser, HTML5)
Click here to listen with your own player(launches your MP3 player)

RJAA 250630Z 12009KT 090V150 9999 FEW025 SCT030 30/23 Q1009 NOSIG RMK 1CU025 3CU030 A2980

RJAA Flight Activity (Flightaware)

Listeners: 1 out of 1219 total

Tokyo Radar: 119.025

RJAA Radar 120.2 (Archives)
Tokyo, Japan

Feed Status: UP
Listen in your browser - HTML5 player(in browser, HTML5)
Click here to listen with your own player(launches your MP3 player)

RJAA 250630Z 12009KT 090V150 9999 FEW025 SCT030 30/23 Q1009 NOSIG RMK 1CU025 3CU030 A2980

RJAA Flight Activity (Flightaware)

Listeners: 1 out of 1219 total

Tokyo Radar: 120.200

RJAA Radar 120.6 (Archives)
Tokyo, Japan

Feed Status: UP
Listen in your browser - HTML5 player(in browser, HTML5)
Click here to listen with your own player(launches your MP3 player)

RJAA 250630Z 12009KT 090V150 9999 FEW025 SCT030 30/23 Q1009 NOSIG RMK 1CU025 3CU030 A2980

RJAA Flight Activity (Flightaware)

Listeners: 1 out of 1219 total

Tokyo Radar: 120.600

RJAA Radar 132.1 (Archives)
Tokyo, Japan

Feed Status: UP
Listen in your browser - HTML5 player(in browser, HTML5)
Click here to listen with your own player(launches your MP3 player)

RJAA 250630Z 12009KT 090V150 9999 FEW025 SCT030 30/23 Q1009 NOSIG RMK 1CU025 3CU030 A2980

RJAA Flight Activity (Flightaware)

Listeners: 1 out of 1219 total

Tokyo Radar: 132.100

RJAA Radar 133.35 (Archives)
Tokyo, Japan

Feed Status: UP
Listen in your browser - HTML5 player(in browser, HTML5)
Click here to listen with your own player(launches your MP3 player)

RJAA 250630Z 12009KT 090V150 9999 FEW025 SCT030 30/23 Q1009 NOSIG RMK 1CU025 3CU030 A2980

RJAA Flight Activity (Flightaware)

Listeners: 1 out of 1219 total

Tokyo Radar: 133.350

RJAA Ramp #1 (Archives)
Tokyo, Japan

Feed Status: UP
Listen in your browser - HTML5 player(in browser, HTML5)
Click here to listen with your own player(launches your MP3 player)

RJAA 250630Z 12009KT 090V150 9999 FEW025 SCT030 30/23 Q1009 NOSIG RMK 1CU025 3CU030 A2980

RJAA Flight Activity (Flightaware)

Listeners: 0 out of 1219 total

Narita Ramp: 121.600

RJAA Ramp #2 (Archives)
Tokyo, Japan

Feed Status: UP
Listen in your browser - HTML5 player(in browser, HTML5)
Click here to listen with your own player(launches your MP3 player)

RJAA 250630Z 12009KT 090V150 9999 FEW025 SCT030 30/23 Q1009 NOSIG RMK 1CU025 3CU030 A2980

RJAA Flight Activity (Flightaware)

Listeners: 1 out of 1219 total

Narita Ramp: 121.750

RJAA TCA (Archives)
Tokyo, Japan

Feed Status: UP
Listen in your browser - HTML5 player(in browser, HTML5)
Click here to listen with your own player(launches your MP3 player)

RJAA 250630Z 12009KT 090V150 9999 FEW025 SCT030 30/23 Q1009 NOSIG RMK 1CU025 3CU030 A2980

RJAA Flight Activity (Flightaware)

Listeners: 0 out of 1219 total

Tokyo TCA (Terminal Control Area): 119.450

RJAA Tokyo Control (Archives)
Tokyo, Japan

Feed Status: UP
Listen in your browser - HTML5 player(in browser, HTML5)
Click here to listen with your own player(launches your MP3 player)

RJAA 250630Z 12009KT 090V150 9999 FEW025 SCT030 30/23 Q1009 NOSIG RMK 1CU025 3CU030 A2980

RJAA Flight Activity (Flightaware)

Listeners: 1 out of 1219 total

Tokyo Control: 125.900

RJAA Tower #1 (Archives)
Tokyo, Japan

Feed Status: UP
Listen in your browser - HTML5 player(in browser, HTML5)
Click here to listen with your own player(launches your MP3 player)

RJAA 250630Z 12009KT 090V150 9999 FEW025 SCT030 30/23 Q1009 NOSIG RMK 1CU025 3CU030 A2980

RJAA Flight Activity (Flightaware)

Listeners: 2 out of 1219 total

Narita Tower (Rwy 16R/34L): 118.200

RJAA Tower #2 (Archives)
Tokyo, Japan

Feed Status: UP
Listen in your browser - HTML5 player(in browser, HTML5)
Click here to listen with your own player(launches your MP3 player)

RJAA 250630Z 12009KT 090V150 9999 FEW025 SCT030 30/23 Q1009 NOSIG RMK 1CU025 3CU030 A2980

RJAA Flight Activity (Flightaware)

Listeners: 0 out of 1219 total

Narita Tower (Rwy 16L/34R): 118.350

RJAA Tower (Both) (Archives)
Tokyo, Japan

Feed Status: UP
Listen in your browser - HTML5 player(in browser, HTML5)
Click here to listen with your own player(launches your MP3 player)

RJAA 250630Z 12009KT 090V150 9999 FEW025 SCT030 30/23 Q1009 NOSIG RMK 1CU025 3CU030 A2980

RJAA Flight Activity (Flightaware)

Listeners: 3 out of 1219 total

Narita Tower (Rwy 16L/34R): 118.350
Narita Tower (Rwy 16R/34L): 118.200

RJOO Tower (Archives)
Osaka, Japan

Feed Status: UP
Listen in your browser - HTML5 player(in browser, HTML5)
Click here to listen with your own player(launches your MP3 player)

RJOO 250600Z 07008KT 030V110 9999 FEW030 SCT080 BKN/// 34/21 Q1006 RMK 1CU030 3AC080 A2972

RJOO Flight Activity (Flightaware)

Listeners: 12 out of 1219 total

Osaka Tower: 118.100

RJSF RDO (Archives)
Sukagawa, Japan

Feed Status: UP
Listen in your browser - HTML5 player(in browser, HTML5)
Click here to listen with your own player(launches your MP3 player)

RJSF 250600Z 12007KT 080V160 9999 FEW025 SCT035 28/22 Q1011

RJSF Flight Activity (Flightaware)

Listeners: 1 out of 1219 total

Fukushima Radio: 118.050

RJTT App/Dep (Archives)
Tokyo, Japan

Feed Status: UP
Listen in your browser - HTML5 player(in browser, HTML5)
Click here to listen with your own player(launches your MP3 player)

RJTT 250630Z 10012KT 9999 FEW025 31/23 Q1008 NOSIG RMK 1CU025 A2978

RJTT Flight Activity (Flightaware)

Listeners: 33 out of 1219 total

Tokyo Approach: 119.100
Tokyo Approach: 119.400
Tokyo Departure: 120.800
Tokyo Departure: 126.000

RJTT Approach (Archives)
Tokyo, Japan

Feed Status: UP
Listen in your browser - HTML5 player(in browser, HTML5)
Click here to listen with your own player(launches your MP3 player)

RJTT 250630Z 10012KT 9999 FEW025 31/23 Q1008 NOSIG RMK 1CU025 A2978

RJTT Flight Activity (Flightaware)

Listeners: 24 out of 1219 total

Tokyo Approach: 119.100
Tokyo Approach: 119.400

RJTT ATIS (Archives)
Tokyo, Japan

Feed Status: UP
Listen in your browser - HTML5 player(in browser, HTML5)
Click here to listen with your own player(launches your MP3 player)

RJTT 250630Z 10012KT 9999 FEW025 31/23 Q1008 NOSIG RMK 1CU025 A2978

RJTT Flight Activity (Flightaware)

Listeners: 4 out of 1219 total

Tokyo ATIS: 128.800

RJTT Company Channels (Archives)
Tokyo, Japan

Feed Status: UP
Listen in your browser - HTML5 player(in browser, HTML5)
Click here to listen with your own player(launches your MP3 player)

RJTT 250630Z 10012KT 9999 FEW025 31/23 Q1008 NOSIG RMK 1CU025 A2978

RJTT Flight Activity (Flightaware)

Listeners: 25 out of 1219 total

Company TBD: 128.500
Company TBD: 131.850
Company TBD: 129.725
Company TBD: 129.700
Company TBD: 131.900
Company TBD: 129.850
Company TBD: 128.975
Company TBD: 123.675
Company TBD: 132.075

RJTT Del/Ground (Archives)
Tokyo, Japan

Feed Status: UP
Listen in your browser - HTML5 player(in browser, HTML5)
Click here to listen with your own player(launches your MP3 player)

RJTT 250630Z 10012KT 9999 FEW025 31/23 Q1008 NOSIG RMK 1CU025 A2978

RJTT Flight Activity (Flightaware)

Listeners: 2 out of 1219 total

Tokyo Clearance Delivery: 121.825
Tokyo Ground: 121.700
Tokyo Ground: 118.225
Tokyo Ground: 121.625
Tokyo Ground: 121.975

RJTT Del/Twr/TCA/Gnd (Archives)
Tokyo, Japan

Feed Status: UP
Listen in your browser - HTML5 player(in browser, HTML5)
Click here to listen with your own player(launches your MP3 player)

RJTT 250630Z 10012KT 9999 FEW025 31/23 Q1008 NOSIG RMK 1CU025 A2978

RJTT Flight Activity (Flightaware)

Listeners: 14 out of 1219 total

Tokyo Clearance Delivery: 121.825
Tokyo Ground: 121.975
Tokyo Ground: 121.625
Tokyo Ground: 121.700
Tokyo Ground: 118.225
Tokyo TCA: 124.750
Tokyo Tower: 118.100
Tokyo Tower: 118.575
Tokyo Tower: 118.725
Tokyo Tower: 124.350

RJTT Departure (Archives)
Tokyo, Japan

Feed Status: UP
Listen in your browser - HTML5 player(in browser, HTML5)
Click here to listen with your own player(launches your MP3 player)

RJTT 250630Z 10012KT 9999 FEW025 31/23 Q1008 NOSIG RMK 1CU025 A2978

RJTT Flight Activity (Flightaware)

Listeners: 3 out of 1219 total

Tokyo Departure: 120.800
Tokyo Departure: 126.000

RJTT Tokyo Control (Archives)
Tokyo, Japan

Feed Status: UP
Listen in your browser - HTML5 player(in browser, HTML5)
Click here to listen with your own player(launches your MP3 player)

RJTT 250630Z 10012KT 9999 FEW025 31/23 Q1008 NOSIG RMK 1CU025 A2978

RJTT Flight Activity (Flightaware)

Listeners: 28 out of 1219 total

Tokyo Control: 133.700
Tokyo Control: 125.900
Tokyo Control: 120.500

RJTT Twr/TCA (Archives)
Tokyo, Japan

Feed Status: UP
Listen in your browser - HTML5 player(in browser, HTML5)
Click here to listen with your own player(launches your MP3 player)

RJTT 250630Z 10012KT 9999 FEW025 31/23 Q1008 NOSIG RMK 1CU025 A2978

RJTT Flight Activity (Flightaware)

Listeners: 23 out of 1219 total

Tokyo TCA: 124.750
Tokyo Tower: 118.100
Tokyo Tower: 118.575
Tokyo Tower: 118.725
Tokyo Tower: 124.350

RJTY Approach (Archives)
Tokyo, Japan

Feed Status: UP
Listen in your browser - HTML5 player(in browser, HTML5)
Click here to listen with your own player(launches your MP3 player)

RJTY 250656Z AUTO 15010KT 10SM SCT060 31/22 A2983 RMK AO2 SLP097 T03120216 FZRANO $

RJTY Flight Activity (Flightaware)

Listeners: 40 out of 1219 total

Yokota Approach: 118.300
Yokota APproach: 123.800
Yokota Approach: 120.700

RJTY ATIS (Archives)
Tokyo, Japan

Feed Status: UP
Listen in your browser - HTML5 player(in browser, HTML5)
Click here to listen with your own player(launches your MP3 player)

RJTY 250656Z AUTO 15010KT 10SM SCT060 31/22 A2983 RMK AO2 SLP097 T03120216 FZRANO $

RJTY Flight Activity (Flightaware)

Listeners: 2 out of 1219 total

Yokota ATIS: 126.400

RJTY Ground (Archives)
Tokyo, Japan

Feed Status: UP
Listen in your browser - HTML5 player(in browser, HTML5)
Click here to listen with your own player(launches your MP3 player)

RJTY 250656Z AUTO 15010KT 10SM SCT060 31/22 A2983 RMK AO2 SLP097 T03120216 FZRANO $

RJTY Flight Activity (Flightaware)

Listeners: 2 out of 1219 total

Yokota Ground: 133.200

RJTY Ground/Tower (Archives)
Tokyo, Japan

Feed Status: UP
Listen in your browser - HTML5 player(in browser, HTML5)
Click here to listen with your own player(launches your MP3 player)

RJTY 250656Z AUTO 15010KT 10SM SCT060 31/22 A2983 RMK AO2 SLP097 T03120216 FZRANO $

RJTY Flight Activity (Flightaware)

Listeners: 25 out of 1219 total

Yokota Ground: 133.200
Yokota Tower: 134.300

RJTY Tower (Archives)
Tokyo, Japan

Feed Status: UP
Listen in your browser - HTML5 player(in browser, HTML5)
Click here to listen with your own player(launches your MP3 player)

RJTY 250656Z AUTO 15010KT 10SM SCT060 31/22 A2983 RMK AO2 SLP097 T03120216 FZRANO $

RJTY Flight Activity (Flightaware)

Listeners: 5 out of 1219 total

Yokota Tower: 134.300

SABE Gnd/Twr/App (Archives)
Buenos Aires, Argentina

Feed Status: UP
Listen in your browser - HTML5 player(in browser, HTML5)
Click here to listen with your own player(launches your MP3 player)

SABE 250642Z 08016KT 9999 FEW040 BKN100 15/14 Q1006 RETSRA NOSIG

SABE Flight Activity (Flightaware)

Listeners: 0 out of 1219 total

Aerolineas Argentinas Ops: 131.950
Aerolineas Argentinas Ops: 131.100
Aeroparque Ground: 121.900
Aeroparque Tower: 120.600
Aeroparque Tower: 118.250
Aeroparque Tower: 128.850
Aeroparque Tower: 118.850
Aeroparque Tower: 129.300
Air to Air: 123.450
Baires: 125.900
Baires: 125.300
Baires: 124.900
Cordoba South: 126.500
Ezeiza Ground: 121.750
Ezeiza North: 133.350
Ezeiza North: 124.500
Ezeiza North: 125.600
Ezeiza North: 135.500
Ezeiza South: 124.100
Ezeiza South: 125.200
LAN Ops: 131.700

SAEZ Gnd/Twr/Control
Buenos Aires, Argentina

Feed Status: DOWN
Offline since: 2021-07-25 01:40:22 UTC

SAEZ 250600Z 09024G41KT 9000 -TSRA FEW028 FEW050CB OVC070 16/15 Q1003 NOSIG

Baires Control: 125.900
Baires Control: 125.300
Baires Control: 124.900
Baires Control: 133.350
Ezeiza Approach (North): 135.500
Ezeiza Approach (South): 125.200
Ezeiza Ground: 121.750
Ezeiza Tower: 118.600
Ezeiza Tower: 118.050

SANT Tower/Apps (Archives)
Tucuman, Argentina

Feed Status: UP
Listen in your browser - HTML5 player(in browser, HTML5)
Click here to listen with your own player(launches your MP3 player)

SANT 250700Z 36005KT 6000 NSC 11/07 Q1010

SANT Flight Activity (Flightaware)

Listeners: 0 out of 1219 total

Aeroclub Tucuman: 119.000
Aerolineas Argentinas SOC Salta: 131.100
Aerolineas Argentinas SOC Tucuman: 131.950
Air To Air: 123.450
Andes Lineas Aereas: 132.000
Campo Arenal: 130.950
Catamarca Tower: 118.150
Copa Airlines: 129.400
Cordoba Centro Norte: 125.100
Cordoba Centro Sur: 126.500
Emergency/Guard: 121.500
Lan Argentina Operaciones: 131.700
Lan Peru: 131.300
Salta Tower: 128.850
Santiago del Estero Tower: 118.700
Taca Peru: 126.450
Termas de Rio Hondo: 118.200
Termas de Rio Hondo: 119.850
Tucuman Ground: 121.750
Tucuman Ground: 121.750
Tucuman Tower: 118.350
Tucuman Tower: 119.500

SASA Twr/App
Salta, Argentina

Feed Status: DOWN
Offline since: 2021-07-21 20:09:22 UTC

SASA 250600Z 29002KT CAVOK 09/06 Q1014

Cordoba Approach (North): 125.100
Salta Approach: 124.600
Salta Tower: 126.000
Salta Tower/Ground: 128.850

SAZN Tower (Archives)
Neuquen, Argentina

Feed Status: UP
Listen in your browser - HTML5 player(in browser, HTML5)
Click here to listen with your own player(launches your MP3 player)

SAZN 250600Z 00000KT CAVOK 04/00 Q1015

SAZN Flight Activity (Flightaware)

Listeners: 0 out of 1219 total

Neuquen Tower/Approach: 119.800

SAZS Gnd/Twr/App (Archives)
Rio Negro, Argentina

Feed Status: UP
Listen in your browser - HTML5 player(in browser, HTML5)
Click here to listen with your own player(launches your MP3 player)

SAZS 250600Z 26005KT 9999 BKN020 BKN200 04/01 Q1015

SAZS Flight Activity (Flightaware)

Listeners: 0 out of 1219 total

Bariloche Twr/App: 119.100
Comodoro Rivadavia Control: 125.500
Ezeiza South: 125.200

SBBE Twr/App/SBAZ (Archives)
Belem, Brazil

Feed Status: UP
Listen in your browser - HTML5 player(in browser, HTML5)
Click here to listen with your own player(launches your MP3 player)

SBBE 250700Z 00000KT CAVOK 24/23 Q1012

SBBE Flight Activity (Flightaware)

Listeners: 1 out of 1219 total

Amazonica FIR (SBAZ): 126.500
Amazonica FIR (SBAZ): 128.000
Amazonica FIR (SBAZ): 123.950
Amazonica FIR (SBAZ): 126.150
Amazonica FIR (SBAZ): 126.650
Amazonica FIR (SBAZ): 133.700
Belem Approach: 119.050
Belem Approach: 119.500
Belem Tower: 118.700

SBBR Approach (Archives)
Brasilia, Brazil

Feed Status: UP
Listen in your browser - HTML5 player(in browser, HTML5)
Click here to listen with your own player(launches your MP3 player)

SBBR 250700Z 09002KT CAVOK 13/07 Q1022

SBBR Flight Activity (Flightaware)

Listeners: 0 out of 1219 total

Brasilia Approach: 120.650
Brasilia Approach: 129.150
Brasilia Approach: 129.600
Brasilia Approach (Final): 119.200
Brasilia Departure: 119.500
Brasilia Departure: 119.700

SBBR Ground (Archives)
Brasilia, Brazil

Feed Status: UP
Listen in your browser - HTML5 player(in browser, HTML5)
Click here to listen with your own player(launches your MP3 player)

SBBR 250700Z 09002KT CAVOK 13/07 Q1022

SBBR Flight Activity (Flightaware)

Listeners: 1 out of 1219 total

Brasilia Ground: 121.950
Brasilia Ground: 121.800

SBBR Tower (Archives)
Brasilia, Brazil

Feed Status: UP
Listen in your browser - HTML5 player(in browser, HTML5)
Click here to listen with your own player(launches your MP3 player)

SBBR 250700Z 09002KT CAVOK 13/07 Q1022

SBBR Flight Activity (Flightaware)

Listeners: 0 out of 1219 total

Brasilia Tower: 118.100
Brasilia Tower: 181.750
Brasilia Tower: 118.450

SBCT Gnd/Twr/App (Archives)
Curitiba, Brazil

Feed Status: UP
Listen in your browser - HTML5 player(in browser, HTML5)
Click here to listen with your own player(launches your MP3 player)

SBCT 250600Z 03003KT CAVOK 10/09 Q1022

SBCT Flight Activity (Flightaware)

Listeners: 0 out of 1219 total

Curitiba Approach: 119.950
Curitiba Ground: 121.900
Curitiba Tower: 118.150
Curitiba Tower: 118.900

SBDN Twr/App (Archives)
Presidente Prudente/Sao Paulo, Brazil

Feed Status: UP
Listen in your browser - HTML5 player(in browser, HTML5)
Click here to listen with your own player(launches your MP3 player)

SBDN 250600Z 06007KT CAVOK 18/03 Q1018

SBDN Flight Activity (Flightaware)

Listeners: 0 out of 1219 total

Air-to-Air: 123.450
Curitiba Sector 13: 133.595
Prudente Approach: 118.450
Prudente Tower: 125.450

SBEG Tower/App (Archives)
Manaus, Brazil

Feed Status: UP
Listen in your browser - HTML5 player(in browser, HTML5)
Click here to listen with your own player(launches your MP3 player)

SBEG 250700Z 31002KT CAVOK 24/23 Q1012

SBEG Flight Activity (Flightaware)

Listeners: 1 out of 1219 total

Emergency/Guard: 121.500
Manaus Approach : 119.250
Manaus Approach: 120.400
Manaus Approach: 119.700
Manaus Tower: 118.300

SBFI Twr/App/Ctr/Misc (Archives)
Foz do Iguacu, Brazil

Feed Status: UP
Listen in your browser - HTML5 player(in browser, HTML5)
Click here to listen with your own player(launches your MP3 player)

SBFI 250700Z 09006KT CAVOK 17/12 Q1014

SBFI Flight Activity (Flightaware)

Listeners: 0 out of 1219 total

Asuncion Center (Paraguay): 126.900
Asuncion Center (Paraguay): 128.400
Curitiba Center: 127.200
Curitiba Center: 125.800
Emergency/Guard: 121.500
Foz do Iguacu Approach/Departure: 120.300
Foz do Iguacu Approach/Departure: 119.150
Foz do Iguacu Tower: 118.800
Guarani Approach (Paraguay): 119.300
Puerto Iguazu - Cataratas Tower (Argentina) : 120.700
Resistencia Center (Argentina): 124.300
UNICOM: 123.450

SBFZ ACC/Misc
Fortaleza, Brazil

Feed Status: DOWN
Offline since: 2021-07-22 23:09:06 UTC

SBFZ 250700Z 14007KT CAVOK 24/21 Q1013

Ait to Air: 123.450
SBAC: 131.250
SBJE: 131.050
SBJU: 131.750
SBMS: 125.800
SBPB: 126.600
SBRF ACC: 135.250
SBRF ACC: 133.500
SBRF ACC: 126.350
SBRF ACC: 125.150

SBFZ Twr/App/Center (Archives)
Fortaleza, Brazil

Feed Status: UP
Listen in your browser - HTML5 player(in browser, HTML5)
Click here to listen with your own player(launches your MP3 player)

SBFZ 250700Z 14007KT CAVOK 24/21 Q1013

SBFZ Flight Activity (Flightaware)

Listeners: 0 out of 1219 total

ACC-RE (Fortaleza Sector): 125.150
ACC-RE (Fortaleza Sector): 126.350
ACC-RE (Fortaleza Sector): 135.250
Fortaleza Approach: 133.000
Fortaleza Tower: 129.000

SBGO Gnd/Twr/App
Goiania, Brazil

Feed Status: DOWN
Offline since: 2021-07-18 17:23:22 UTC

SBGO 250700Z 25003KT CAVOK 16/08 Q1020

Anapolis Approach: 119.150
Anapolis Approach: 120.550
Anapolis Approach: 133.000
Anapolis Approach: 129.450
Emergency/Guard: 121.500
Goiania Ground: 121.700
Goiania Tower: 118.700
Goiania Tower: 121.050

SBJP Tower (Archives)
Joao Pessoa, Brazil

Feed Status: UP
Listen in your browser - HTML5 player(in browser, HTML5)
Click here to listen with your own player(launches your MP3 player)

SBJP 250700Z 19006KT 9999 SCT020 21/21 Q1015

SBJP Flight Activity (Flightaware)

Listeners: 0 out of 1219 total

Joao Pessoa Tower: 118.300

SBJU Tower/Center (Archives)
Juazeiro do Norte, Brazil

Feed Status: UP
Listen in your browser - HTML5 player(in browser, HTML5)
Click here to listen with your own player(launches your MP3 player)

SBJU 250600Z 00000KT CAVOK 20/16 Q1019

SBJU Flight Activity (Flightaware)

Listeners: 2 out of 1219 total

Pilot-to-Pilot: 123.450
Radio Juazeiro: 131.750
Recife Center: 135.250
Recife Center: 125.150

SBKP Approach (Archives)
Campinas, Brazil

Feed Status: UP
Listen in your browser - HTML5 player(in browser, HTML5)
Click here to listen with your own player(launches your MP3 player)

SBKP 250700Z 11006KT CAVOK 14/07 Q1020

SBKP Flight Activity (Flightaware)

Listeners: 0 out of 1219 total

Campinas Approach: 132.100
Campinas Approach: 135.750

SBKP Tower #1 (Archives)
Campinas, Brazil

Feed Status: UP
Listen in your browser - HTML5 player(in browser, HTML5)
Click here to listen with your own player(launches your MP3 player)

SBKP 250700Z 11006KT CAVOK 14/07 Q1020

SBKP Flight Activity (Flightaware)

Listeners: 1 out of 1219 total

Campinas Tower: 118.250

SBKP Tower #2 (Archives)
Campinas, Brazil

Feed Status: UP
Listen in your browser - HTML5 player(in browser, HTML5)
Click here to listen with your own player(launches your MP3 player)

SBKP 250700Z 11006KT CAVOK 14/07 Q1020

SBKP Flight Activity (Flightaware)

Listeners: 1 out of 1219 total

Campinas Tower: 118.250

SBMG Twr/App (Archives)
Maringa, Brazil

Feed Status: UP
Listen in your browser - HTML5 player(in browser, HTML5)
Click here to listen with your own player(launches your MP3 player)


SBMG Flight Activity (Flightaware)

Listeners: 0 out of 1219 total

Londrina Approach: 129.700
Maringa Tower: 118.750
UNICOM: 123.450

SBMK RDO/Center (Archives)
Montes Claros, Brazil

Feed Status: UP
Listen in your browser - HTML5 player(in browser, HTML5)
Click here to listen with your own player(launches your MP3 player)

SBMK Flight Activity (Flightaware)

Listeners: 2 out of 1219 total

Brasilia Center (Sector 15): 127.300
Montes Claros RDO: 131.700

SBMQ Tower/App/Center (Archives)
Macapa, Brazil

Feed Status: UP
Listen in your browser - HTML5 player(in browser, HTML5)
Click here to listen with your own player(launches your MP3 player)

SBMQ 250700Z 30003KT CAVOK 26/26 Q1012

SBMQ Flight Activity (Flightaware)

Listeners: 2 out of 1219 total

Amazonico Center: 123.950
Amazonico Center: 128.000
Macapa Approach: 119.000
Macapa Tower: 118.000

SBNF Tower
Navegantes, Brazil

Feed Status: DOWN
Offline since: 2021-07-23 10:39:40 UTC


Navegantes Tower: 118.200

SBPA Gnd/Twr/App/Center (Archives)
Porto Alegre, Brazil

Feed Status: UP
Listen in your browser - HTML5 player(in browser, HTML5)
Click here to listen with your own player(launches your MP3 player)

SBPA 250700Z 00000KT 3800 BR NSC 11/11 Q1014

SBPA Flight Activity (Flightaware)

Listeners: 1 out of 1219 total

BACO (Canoas) Ground: 121.700
BACO (Canoas) Tower: 118.500
BACO (Canoas) Tower (Mil): 122.800
Curitiba Center (Sector 1/South SBPA): 126.750
Curitiba Center (Sector 1/South SBPA): 127.400
Curitiba Center (Sector 2): 123.725
Curitiba Center (Sector 2): 135.900
Curitiba Center (Sector 3/West SBFL): 127.500
Curitiba Center (Sector 3/West SBFL): 126.100
Curitiba Center (Sector 4/South SBFL): 135.850
Curitiba Center (Sector 4/South SBFL): 128.450
Curitiba Center (Sector 5/East SBCT): 124.400
Curitiba Center (Sector 5/East SBCT): 125.400
Curitiba Center (Sector 6/East SBCT Atlantico): 128.400
Curitiba Center (Sector 6/East SBCT Atlantico): 127.050
Curitiba Center (Sector 9/North SBCT): 132.800
Curitiba Center (Sector 9/North SBCT): 126.500
Emergency/Guard: 121.500
Porto Alegre Approach Sector 1: 120.100
Porto Alegre Approach Sector 2: 120.550
Porto Alegre Approach Sector 3: 128.900
Porto Alegre Approach Sector 4: 119.000
Salgado Filho Ground: 121.900
Salgado Filho Tower: 118.100

SBPL RDO/ACC (Archives)
Petrolina, Brazil

Feed Status: UP
Listen in your browser - HTML5 player(in browser, HTML5)
Click here to listen with your own player(launches your MP3 player)

SBPL 250700Z 16009KT 9999 SCT018 BKN070 21/18 Q1017

SBPL Flight Activity (Flightaware)

Listeners: 2 out of 1219 total

ACC RE Sector 5: 127.500
ACC RE Sector 5: 128.450
ACC RE Sector 6: 125.400
ACC RE Sector 6: 134.900
Air to Air/UNICOM: 123.450
Emergency/Guard: 121.500
Misc: 123.400
Petrolina RDO: 125.700
Recife FIS: 123.625

SBRF App 129.60
Recife, Brazil

Feed Status: DOWN
Offline since: 2021-07-25 05:00:41 UTC

SBRF 250700Z 14008KT 9999 SCT025 BKN050 23/19 Q1015

Recife Approach: 129.600

SBRF Gol Ops
Recife, Brazil

Feed Status: DOWN
Offline since: 2021-07-25 05:00:41 UTC

SBRF 250700Z 14008KT 9999 SCT025 BKN050 23/19 Q1015

Gol Ops: 131.225

SBRF Ground
Recife, Brazil

Feed Status: DOWN
Offline since: 2021-07-25 05:00:41 UTC

SBRF 250700Z 14008KT 9999 SCT025 BKN050 23/19 Q1015

Recife Ground: 121.850

SBRF LATAM Ops
Recife, Brazil

Feed Status: DOWN
Offline since: 2021-07-25 05:00:41 UTC

SBRF 250700Z 14008KT 9999 SCT025 BKN050 23/19 Q1015

LATAM Ops: 130.500

SBRF Recife ACC
Recife, Brazil

Feed Status: DOWN
Offline since: 2021-07-25 05:00:41 UTC

SBRF 250700Z 14008KT 9999 SCT025 BKN050 23/19 Q1015

Recife Center: 128.700
Recife Center: 133.650
Recife Center: 134.800

SBRF Tower
Recife, Brazil

Feed Status: DOWN
Offline since: 2021-07-25 05:00:41 UTC

SBRF 250700Z 14008KT 9999 SCT025 BKN050 23/19 Q1015

Recife Tower: 125.250
Recife Tower: 118.350
Recife Tower: 118.900

SBRP Tower/Center (Archives)
Ribeirao Preto, Brazil

Feed Status: UP
Listen in your browser - HTML5 player(in browser, HTML5)
Click here to listen with your own player(launches your MP3 player)

SBRP 250600Z 14005KT CAVOK 14/07 Q1020

SBRP Flight Activity (Flightaware)

Listeners: 0 out of 1219 total

Leite Lopes Tower: 118.000
Pirassununga Center (North): 119.550

SBSL Twr/App/FIR (Archives)
Sao Luis, Brazil

Feed Status: UP
Listen in your browser - HTML5 player(in browser, HTML5)
Click here to listen with your own player(launches your MP3 player)

SBSL 250700Z 07003KT CAVOK 25/23 Q1012

SBSL Flight Activity (Flightaware)

Listeners: 0 out of 1219 total

Amazonica Center: 133.700
Sao Luis Approach: 119.100
Sao Luis Tower: 118.900

SBSN Twr/App/ACC (Archives)
Santarem, Brazil

Feed Status: UP
Listen in your browser - HTML5 player(in browser, HTML5)
Click here to listen with your own player(launches your MP3 player)

SBSN 250700Z 17003KT CAVOK 23/23 Q1012

SBSN Flight Activity (Flightaware)

Listeners: 0 out of 1219 total

Brasilia Center/ACC: 123.650
Brasilia Center/ACC: 125.050
Santarem Approach: 119.300
Santarem Tower: 118.100

SBSR AFIS/App/Center (Archives)
Sao Jose do Rio Preto, Brazil

Feed Status: UP
Listen in your browser - HTML5 player(in browser, HTML5)
Click here to listen with your own player(launches your MP3 player)

SBSR 250600Z 06007KT CAVOK 17/03 Q1020

SBSR Flight Activity (Flightaware)

Listeners: 2 out of 1219 total

Academia Approach (North Sector): 119.750
Academia Approach (North Sector): 120.400
Brasilia Center: 135.150
Rio Preto Radio AFIS: 130.850

SBTE Twr/App
Teresina, Brazil

Feed Status: DOWN
Offline since: 2021-07-25 05:34:39 UTC

SBTE 250700Z 00000KT CAVOK 22/19 Q1012

Teresina Approach: 119.600
Teresina Tower: 118.800

SBRE Recife ACC (Archives)
Paulo Afonso, Brazil

Feed Status: UP
Listen in your browser - HTML5 player(in browser, HTML5)
Click here to listen with your own player(launches your MP3 player)

SBRE Flight Activity (Flightaware)

Listeners: 0 out of 1219 total

Recife Center (ACC): 125.400
Recife Center (ACC): 125.450
Recife Center (ACC): 126.850
Recife Center (ACC): 133.650
Recife Center (ACC): 134.500
Recife Center (ACC): 134.900

SBUF AFIS/Center (Archives)
Paulo Afonso, Brazil

Feed Status: UP
Listen in your browser - HTML5 player(in browser, HTML5)
Click here to listen with your own player(launches your MP3 player)


SBUF Flight Activity (Flightaware)

Listeners: 0 out of 1219 total

Paulo Afonso Radio: 125.850
Recife Center: 133.650
Recife Center: 134.500
Recife Center: 125.450

SBQV AFIS
Vitoria da Conquista, Brazil

Feed Status: DOWN
Offline since: 2021-07-18 14:18:05 UTC

Conquista AFIS: 130.850
Despacho Azul: 131.875
Despacho Passaredo: 132.000

SBVT Gnd/Twr/App
Vitoria, Brazil

Feed Status: DOWN
Offline since: 2021-07-15 13:08:22 UTC

SBVT 250700Z 30002KT 9999 BKN025 17/16 Q1023

SBVT Approach: 119.850
SBVT Ground: 121.950
SBVT Tower: 118.100

SCEL Gnd/Twr/Radar (Archives)
Santiago, Chile

Feed Status: UP
Listen in your browser - HTML5 player(in browser, HTML5)
Click here to listen with your own player(launches your MP3 player)

SCEL 250700Z AUTO 21003KT 150V240 4200 BR OVC150/// 05/04 Q1021

SCEL Flight Activity (Flightaware)

Listeners: 3 out of 1219 total

Santiago Authorizations: 121.700
Santiago Control (Lat 3323S North): 128.100
Santiago Control (Lat 3323S South): 126.300
Santiago Ground (Primary): 122.200
Santiago Ground (Secondary): 122.500
Santiago Radar: 125.400
Santiago Radar: 135.400
Santiago Radar (Arrival, Primary): 129.700
Santiago Radar (Arrival, Secondary): 119.700
Santiago Radar (Arrival, Secondary): 123.800
Santiago Radar (Departure, Primary): 121.100
Santiago Radar (Departure, Secondary): 123.800
Santiago Radar (Information, Primary): 122.400
Santiago Radar (Information, Secondary): 120.800
Santiago Radar (Information, Secondary): 123.800
Santiago Tower (Primary): 118.100
Santiago Tower (Secondary): 118.350
SCTB Tobalaba Tower: 118.700

SEGU App/Dep/Info (Archives)
Guayaquil, Ecuador

Feed Status: UP
Listen in your browser - HTML5 player(in browser, HTML5)
Click here to listen with your own player(launches your MP3 player)


SEGU Flight Activity (Flightaware)

Listeners: 0 out of 1219 total

Guayaquil Approach: 120.700
Guayaquil Approach (Secondary): 119.300
Guayaquil Info: 126.900

SEGU Gnd/Twr (Archives)
Guayaquil, Ecuador

Feed Status: UP
Listen in your browser - HTML5 player(in browser, HTML5)
Click here to listen with your own player(launches your MP3 player)


SEGU Flight Activity (Flightaware)

Listeners: 0 out of 1219 total

Guayaquil Ground: 121.900
Guayaquil Ground (Secondary): 121.700
Guayaquil Tower: 118.300
Guayaquil Tower (Secondary): 118.900

SEGU Gnd/Twr/App (Archives)
Guayaquil, Ecuador

Feed Status: UP
Listen in your browser - HTML5 player(in browser, HTML5)
Click here to listen with your own player(launches your MP3 player)


SEGU Flight Activity (Flightaware)

Listeners: 0 out of 1219 total

Guayaquil Approach: 120.700
Guayaquil Ground: 121.900
Guayaquil Tower: 118.300

SEGU Guayaquil Center (Archives)
Guayaquil, Ecuador

Feed Status: UP
Listen in your browser - HTML5 player(in browser, HTML5)
Click here to listen with your own player(launches your MP3 player)


SEGU Flight Activity (Flightaware)

Listeners: 0 out of 1219 total

Guayaquil Center: 127.950
Guayaquil Center: 128.300
Guayaquil Center (Secondary): 128.000
Guayaquil Center (Secondary): 123.900

SEQM ATIS (Archives)
Quito, Ecuador

Feed Status: UP
Listen in your browser - HTML5 player(in browser, HTML5)
Click here to listen with your own player(launches your MP3 player)

SEQM 250600Z 02003KT 9999 FEW004 OVC030 12/11 Q1029 NOSIG RMK A3039

SEQM Flight Activity (Flightaware)

Listeners: 0 out of 1219 total

Quito ATIS: 118.700

SEQM Gnd/Twr/App (Archives)
Quito, Ecuador

Feed Status: UP
Listen in your browser - HTML5 player(in browser, HTML5)
Click here to listen with your own player(launches your MP3 player)

SEQM 250600Z 02003KT 9999 FEW004 OVC030 12/11 Q1029 NOSIG RMK A3039

SEQM Flight Activity (Flightaware)

Listeners: 0 out of 1219 total

Quito Approach/Departure: 119.700
Quito Approach/Departure: 121.200
Quito Ground: 121.900
Quito Tower: 118.100
Quito Tower (Secondary): 118.350

SEQM Tower (Archives)
Quito, Ecuador

Feed Status: UP
Listen in your browser - HTML5 player(in browser, HTML5)
Click here to listen with your own player(launches your MP3 player)

SEQM 250600Z 02003KT 9999 FEW004 OVC030 12/11 Q1029 NOSIG RMK A3039

SEQM Flight Activity (Flightaware)

Listeners: 0 out of 1219 total

Quito Tower: 118.100
Quito Tower (Secondary): 118.350

SJOY CTAF
Palmeira, Brazil

Feed Status: DOWN
Offline since: 2021-02-23 18:22:22 UTC

AUTO METAR SJOY 250650Z 00000KT CAVOK 12/11 Q1021


SKBO Del/Gnd/Twr/App
Bogota, Colombia

Feed Status: DOWN
Offline since: 2020-09-01 16:38:05 UTC

SKBO 250600Z 36003KT 9999 SCT020 SCT080 12/12 Q1029 NOSIG RMKA3038

Bogota Approach: 119.500
Bogota Clearance Delivery: 121.600
Bogota Departure (North): 121.300
Bogota Departure (South): 119.650
Bogota Ground (North): 121.800
Bogota Ground (South): 122.750
Bogota Information: 126.900
Bogota Tower (North): 118.100
Bogota Tower (South): 118.250
Guaymaral Ground: 121.700
Guaymaral Tower: 118.800

SNRZ Area (Archives)
Oliveira, Brazil

Feed Status: UP
Listen in your browser - HTML5 player(in browser, HTML5)
Click here to listen with your own player(launches your MP3 player)

SNRZ Flight Activity (Flightaware)

Listeners: 2 out of 1219 total

Azul: 130.900
Brasilia ACC-BS (Air Control Center): 133.450
Brasilia ACC-BS (Air Control Center): 135.550
Brasilia ACC-BS (Air Control Center): 126.150
Brasilia ACC-BS (Air Control Center): 126.800
Brasilia ACC-BS (Air Control Center): 125.050
Brasilia ACC-BS (Air Control Center): 126.500
Brasilia ACC-BS (Air Control Center): 122.650
Brasilia ACC-BS (Air Control Center): 126.550
Brasilia ACC-BS (Air Control Center): 123.350
Brasilia ACC-BS (Air Control Center): 124.750
Brasilia ACC-BS (Air Control Center): 134.750
Brasilia ACC-BS (Air Control Center): 133.600
Brasilia ACC-BS (Air Control Center): 124.800
Brasilia ACC-BS (Air Control Center): 124.250
Brasilia ACC-BS (Air Control Center): 127.300
Brasilia ACC-BS (Air Control Center): 127.000
Brasilia ACC-BS (Air Control Center): 124.250
Brasilia ACC-BS (Air Control Center): 127.300
Brasilia ACC-BS (Air Control Center): 127.000
Brasilia ACC-BS (Air Control Center): 133.450
Brasilia ACC-BS (Air Control Center): 135.550
Brasilia ACC-BS (Air Control Center): 126.150
Brasilia ACC-BS (Air Control Center): 126.800
Brasilia ACC-BS (Air Control Center): 125.050
Brasilia ACC-BS (Air Control Center): 126.500
Brasilia ACC-BS (Air Control Center): 122.650
Brasilia ACC-BS (Air Control Center): 126.550
Brasilia ACC-BS (Air Control Center): 123.350
Brasilia ACC-BS (Air Control Center): 124.750
Brasilia ACC-BS (Air Control Center): 134.750
Brasilia ACC-BS (Air Control Center): 133.600
Brasilia ACC-BS (Air Control Center): 124.800
Curitiba ACC-CW: 126.500
Curitiba ACC-CW: 134.750
Curitiba ACC-CW: 124.000
Curitiba ACC-CW: 125.350
Emergency: 121.500
Emergency: 121.500
GOL Coordination: 131.225
TAM Coordination: 130.500
TAM Maintenance: 130.600
Trip Coordination: 131.375

SPJC Approach (Archives)
Lima, Peru

Feed Status: UP
Listen in your browser - HTML5 player(in browser, HTML5)
Click here to listen with your own player(launches your MP3 player)

SPJC 250700Z 16004KT 9999 FEW014 OVC020 17/13 Q1017 NOSIG RMK PP000

SPJC Flight Activity (Flightaware)

Listeners: 0 out of 1219 total

Lima Approach: 119.700

SPJC Ground (Archives)
Lima, Peru

Feed Status: UP
Listen in your browser - HTML5 player(in browser, HTML5)
Click here to listen with your own player(launches your MP3 player)

SPJC 250700Z 16004KT 9999 FEW014 OVC020 17/13 Q1017 NOSIG RMK PP000

SPJC Flight Activity (Flightaware)

Listeners: 0 out of 1219 total

Lima Ground: 121.900

SPJC Tower (Archives)
Lima, Peru

Feed Status: UP
Listen in your browser - HTML5 player(in browser, HTML5)
Click here to listen with your own player(launches your MP3 player)

SPJC 250700Z 16004KT 9999 FEW014 OVC020 17/13 Q1017 NOSIG RMK PP000

SPJC Flight Activity (Flightaware)

Listeners: 1 out of 1219 total

Lima Tower: 118.100

SPQU Gnd/Twr/App (Archives)
Arequipa, Peru

Feed Status: UP
Listen in your browser - HTML5 player(in browser, HTML5)
Click here to listen with your own player(launches your MP3 player)


SPQU Flight Activity (Flightaware)

Listeners: 0 out of 1219 total

Arequipa Ground: 121.900
Arequipa Tower/Approach: 118.700

SPST Tower (Archives)
Tarapoto, Peru

Feed Status: UP
Listen in your browser - HTML5 player(in browser, HTML5)
Click here to listen with your own player(launches your MP3 player)


SPST Flight Activity (Flightaware)

Listeners: 0 out of 1219 total

Tarapoto Tower: 118.400

SSBL Air to Air (Archives)
Blumenau, Brazil

Feed Status: UP
Listen in your browser - HTML5 player(in browser, HTML5)
Click here to listen with your own player(launches your MP3 player)

SSBL Flight Activity (Flightaware)

Listeners: 0 out of 1219 total

Air to Air: 123.450

SUAA Tower (Archives)
Montevideo, Uruguay

Feed Status: UP
Listen in your browser - HTML5 player(in browser, HTML5)
Click here to listen with your own player(launches your MP3 player)


SUAA Flight Activity (Flightaware)

Listeners: 0 out of 1219 total

Adami Tower: 118.400
Adami Tower (backup): 122.100
Emergency/Guard: 121.500

SUCM AFIS/SUCA Twr/Guard (Archives)
Carmelo, Uruguay

Feed Status: UP
Listen in your browser - HTML5 player(in browser, HTML5)
Click here to listen with your own player(launches your MP3 player)


SUCM Flight Activity (Flightaware)

Listeners: 0 out of 1219 total

Carmelo AFIS: 122.100
Colonia Tower (SUCA): 120.800
Emergency/Guard: 121.500

SUDU Twr/App (Archives)
Durazno, Uruguay

Feed Status: UP
Listen in your browser - HTML5 player(in browser, HTML5)
Click here to listen with your own player(launches your MP3 player)


SUDU Flight Activity (Flightaware)

Listeners: 0 out of 1219 total

Durazno Twr/App: 120.400
Durazno Twr/App: 126.200
Emergency/Guard: 121.500

SULS Tower (Archives)
Punta del Este, Uruguay

Feed Status: UP
Listen in your browser - HTML5 player(in browser, HTML5)
Click here to listen with your own player(launches your MP3 player)

SULS 250600Z 16013KT 140V200 3000 +TSRA FEW020 SCT040CB OVC070 13/12 Q1011

SULS Flight Activity (Flightaware)

Listeners: 0 out of 1219 total

Air to Air: 123.450
SULS A/G: 122.100
SULS Tower: 118.300

SUMU Twr/App (Archives)
Montevideo, Uruguay

Feed Status: UP
Listen in your browser - HTML5 player(in browser, HTML5)
Click here to listen with your own player(launches your MP3 player)

SUMU 250700Z 10010KT 5000 BR FEW008 BKN060 14/14 Q1008 TEMPO TSRA

SUMU Flight Activity (Flightaware)

Listeners: 0 out of 1219 total

SUMU Approach: 119.200
SUMU Tower: 118.100

SUMU Twr/App/Radar (Archives)
Montevideo, Uruguay

Feed Status: UP
Listen in your browser - HTML5 player(in browser, HTML5)
Click here to listen with your own player(launches your MP3 player)

SUMU 250700Z 10010KT 5000 BR FEW008 BKN060 14/14 Q1008 TEMPO TSRA

SUMU Flight Activity (Flightaware)

Listeners: 2 out of 1219 total

SUMU Approach: 120.200
SUMU Approach: 119.200
SUMU Info: 121.800
SUMU Informacion: 121.800
SUMU Radar Control: 128.500
SUMU Radar Control: 126.300
SUMU Radar Control: 128.000
SUMU Tower: 118.100

SUPE CTAF (Archives)
Punta del Este, Uruguay

Feed Status: UP
Listen in your browser - HTML5 player(in browser, HTML5)
Click here to listen with your own player(launches your MP3 player)

SULS 250600Z 16013KT 140V200 3000 +TSRA FEW020 SCT040CB OVC070 13/12 Q1011

SULS Flight Activity (Flightaware)

Listeners: 0 out of 1219 total

SUPE CTAF: 118.700

SUPU/SUPC Misc (Archives)
Paysandu, Uruguay

Feed Status: UP
Listen in your browser - HTML5 player(in browser, HTML5)
Click here to listen with your own player(launches your MP3 player)


SUPU Flight Activity (Flightaware)

Listeners: 0 out of 1219 total

Chalkling Tower: 118.700
Paysandu Tower: 118.200

SVPR Twr/App/FIR (Archives)
Ciudad Guayana, Venezuela

Feed Status: UP
Listen in your browser - HTML5 player(in browser, HTML5)
Click here to listen with your own player(launches your MP3 player)

SVPR Flight Activity (Flightaware)

Listeners: 0 out of 1219 total

Emergency/Guard: 121.500
FIR 6: 126.000
Guayana Approach (Primary): 119.500
Guayana Approach (Secondary): 120.300
Guayana Tower (Primary): 118.000
Guayana Tower (Secondary): 123.500
SMC: 121.900

TBPB Gnd/Twr/Radar/Center
Bridgetown, Barbados

Feed Status: DOWN
Offline since: 2021-07-25 02:00:23 UTC

TBPB 250600Z 11005KT 9999 SCT016 BKN036 27/24 Q1014 NOSIG

Adams Approach/Departure: 129.350
Adams Approach/Departure: 128.850
Adams Ground: 121.900
Adams Tower: 118.700
Piarco Center: 123.700

TNCA Twr/Apron/FIR (Archives)
Oranjestad, Aruba

Feed Status: UP
Listen in your browser - HTML5 player(in browser, HTML5)
Click here to listen with your own player(launches your MP3 player)

TNCA 250600Z 08015KT 9999 FEW017 27/25 Q1012 NOSIG

TNCA Flight Activity (Flightaware)

Listeners: 0 out of 1219 total

Beatrix Ground (Apron): 121.600
Beatrix Tower: 120.900
Beatrix Tower (secondary): 118.000
Curacao Control: 127.100
Emergency/Guard: 121.500
Search/Rescue: 123.100

TNCB ATIS (Archives)
Kralendijk, Bonaire

Feed Status: UP
Listen in your browser - HTML5 player(in browser, HTML5)
Click here to listen with your own player(launches your MP3 player)

TNCB 250555Z AUTO 09013KT 9999 NSC 28/25 Q1012

TNCB Flight Activity (Flightaware)

Listeners: 0 out of 1219 total

Bonaire ATIS: 132.300

TNCB Tower (Archives)
Kralendijk, Bonaire

Feed Status: UP
Listen in your browser - HTML5 player(in browser, HTML5)
Click here to listen with your own player(launches your MP3 player)

TNCB 250555Z AUTO 09013KT 9999 NSC 28/25 Q1012

TNCB Flight Activity (Flightaware)

Listeners: 0 out of 1219 total

Bonaire Tower: 118.700

TNCC ATIS (Archives)
Willemstad, Curacao

Feed Status: UP
Listen in your browser - HTML5 player(in browser, HTML5)
Click here to listen with your own player(launches your MP3 player)

TNCC 250600Z 11012KT 9999 FEW016 28/25 Q1012 NOSIG

TNCC Flight Activity (Flightaware)

Listeners: 0 out of 1219 total

Hato ATIS: 132.600

TNCC Curacao Control (Archives)
Willemstad, Curacao

Feed Status: UP
Listen in your browser - HTML5 player(in browser, HTML5)
Click here to listen with your own player(launches your MP3 player)

TNCC 250600Z 11012KT 9999 FEW016 28/25 Q1012 NOSIG

TNCC Flight Activity (Flightaware)

Listeners: 0 out of 1219 total

Curacao Control: 124.100
Curacao Control: 127.100

TNCC Radar (Archives)
Willemstad, Curacao

Feed Status: UP
Listen in your browser - HTML5 player(in browser, HTML5)
Click here to listen with your own player(launches your MP3 player)

TNCC 250600Z 11012KT 9999 FEW016 28/25 Q1012 NOSIG

TNCC Flight Activity (Flightaware)

Listeners: 0 out of 1219 total

Hato Radar (1700-2300Z): 119.800

TNCC Tower (Archives)
Willemstad, Curacao

Feed Status: UP
Listen in your browser - HTML5 player(in browser, HTML5)
Click here to listen with your own player(launches your MP3 player)

TNCC 250600Z 11012KT 9999 FEW016 28/25 Q1012 NOSIG

TNCC Flight Activity (Flightaware)

Listeners: 0 out of 1219 total

Hato Tower: 118.300

TNCC Twr/Radar/Control (Archives)
Willemstad, Curacao

Feed Status: UP
Listen in your browser - HTML5 player(in browser, HTML5)
Click here to listen with your own player(launches your MP3 player)

TNCC 250600Z 11012KT 9999 FEW016 28/25 Q1012 NOSIG

TNCC Flight Activity (Flightaware)

Listeners: 0 out of 1219 total

Curacao Control: 127.100
Hato Radar: 119.600
Hato Tower: 118.300

TNCE Info (Archives)
Oranjestad, Sint Eustatius

Feed Status: UP
Listen in your browser - HTML5 player(in browser, HTML5)
Click here to listen with your own player(launches your MP3 player)

TNCE 250555Z AUTO 08005KT 050V130 //// // ///////// 26/24 Q1015 RE//

TNCE Flight Activity (Flightaware)

Listeners: 0 out of 1219 total

Statia Info: 118.100

TNCM App/Dep (Archives)
Philipsburg, Saint Martin

Feed Status: UP
Listen in your browser - HTML5 player(in browser, HTML5)
Click here to listen with your own player(launches your MP3 player)

TNCM 250600Z 10010KT 9999 SCT018 28/25 Q1016

TNCM Flight Activity (Flightaware)

Listeners: 0 out of 1219 total

Juliana Approach (only when busy): 128.950

TNCM Clearance Delivery (Archives)
Philipsburg, Saint Martin

Feed Status: UP
Listen in your browser - HTML5 player(in browser, HTML5)
Click here to listen with your own player(launches your MP3 player)

TNCM 250600Z 10010KT 9999 SCT018 28/25 Q1016

TNCM Flight Activity (Flightaware)

Listeners: 0 out of 1219 total

Juliana Clearance Delivery: 121.650

TNCM Tower (Archives)
Philipsburg, Saint Martin

Feed Status: UP
Listen in your browser - HTML5 player(in browser, HTML5)
Click here to listen with your own player(launches your MP3 player)

TNCM 250600Z 10010KT 9999 SCT018 28/25 Q1016

TNCM Flight Activity (Flightaware)

Listeners: 0 out of 1219 total

Juliana Tower (TNCM): 118.700

TTCP Gnd/Twr/App (Archives)
Scarborough, Trinidad and Tobago

Feed Status: UP
Listen in your browser - HTML5 player(in browser, HTML5)
Click here to listen with your own player(launches your MP3 player)

TTCP 250600Z 06003KT 9999 FEW016 25/23 Q1013 NOSIG

TTCP Flight Activity (Flightaware)

Listeners: 0 out of 1219 total

Piarco Approach: 119.000
Robinson Ground: 121.700
Robinson Tower: 118.400

TTPP Apron/Gnd/Twr (Archives)
Port of Spain, Trinidad and Tobago

Feed Status: UP
Listen in your browser - HTML5 player(in browser, HTML5)
Click here to listen with your own player(launches your MP3 player)

TTPP 250600Z 00000KT 9999 FEW016 SCT036 25/24 Q1013 NOSIG

TTPP Flight Activity (Flightaware)

Listeners: 0 out of 1219 total

Piarco Apron: 121.750
Piarco Ground: 121.900
Piarco Tower: 118.100

TTPP Piarco Approach (Archives)
Port of Spain, Trinidad and Tobago

Feed Status: UP
Listen in your browser - HTML5 player(in browser, HTML5)
Click here to listen with your own player(launches your MP3 player)

TTPP 250600Z 00000KT 9999 FEW016 SCT036 25/24 Q1013 NOSIG

TTPP Flight Activity (Flightaware)

Listeners: 0 out of 1219 total

Piarco Approach: 119.550
Piarco Approach: 119.000
Piarco Approach (backup): 124.000

TTPP Piarco Center (Archives)
Port of Spain, Trinidad and Tobago

Feed Status: UP
Listen in your browser - HTML5 player(in browser, HTML5)
Click here to listen with your own player(launches your MP3 player)

TTPP 250600Z 00000KT 9999 FEW016 SCT036 25/24 Q1013 NOSIG

TTPP Flight Activity (Flightaware)

Listeners: 2 out of 1219 total

Piarco Center: 123.700
Piarco Center (Oceanic): 126.500
Piarco Center (South Sector): 125.400
Piarco Center Oceanic (Backup): 133.100

UAAA Approach (Archives)
Almaty, Kazakhstan

Feed Status: UP
Listen in your browser - HTML5 player(in browser, HTML5)
Click here to listen with your own player(launches your MP3 player)


UAAA Flight Activity (Flightaware)

Listeners: 0 out of 1219 total

Almaty Approach: 124.800

UAAA Tower (Archives)
Almaty, Kazakhstan

Feed Status: UP
Listen in your browser - HTML5 player(in browser, HTML5)
Click here to listen with your own player(launches your MP3 player)


UAAA Flight Activity (Flightaware)

Listeners: 0 out of 1219 total

Almaty Tower: 119.400

UAAA Tower/Approach (Archives)
Almaty, Kazakhstan

Feed Status: UP
Listen in your browser - HTML5 player(in browser, HTML5)
Click here to listen with your own player(launches your MP3 player)


UAAA Flight Activity (Flightaware)

Listeners: 0 out of 1219 total

Almaty Approach: 124.800
Almaty Tower: 119.400

UIAA Twr/App/Center
Chita, Russia

Feed Status: DOWN
Offline since: 2021-06-25 10:05:40 UTC

Center: 135.600
Chita Approach: 122.000
Chita Tower: 118.200

UNNT Gnd/Twr/App/Radar/Misc (Archives)
Novosibirsk, Russia

Feed Status: UP
Listen in your browser - HTML5 player(in browser, HTML5)
Click here to listen with your own player(launches your MP3 player)

UNNT 250630Z VRB02MPS 9999 SCT037CB 28/20 Q1005 R25/090070 R34/090070 NOSIG RMK QFE744/0992

UNNT Flight Activity (Flightaware)

Listeners: 9 out of 1219 total

ACC_Novosibirsk-Control [5th military channel]: 128.500
ACC_Novosibirsk-Control [Southeast]: 126.100
ACC_Novosibirsk-Control [West]: 127.000
GPA_Kristallik [Severniy airfield]: 123.425
GPA_Sernisiy [Chkalovskiy airfield]: 124.750
GPA_Tomsk Information 1: 134.500
MIL_3 [3rd military channel]: 130.750
MIL_Larek [Shilovo facility]: 123.750
MIL_Maneken [Chkalovskiy airfield]: 123.550
MIL_Novosibirsk-1 [1st military channel]: 124.000
MIL_Noyabr' 31: 124.900
MIL_Trimaran: 124.500
SP_Air-to-Air: 123.450
SP_Air-to-Air 2: 123.400
SP_Common backup frequency: 129.000
SP_Emergency: 121.500
SP_Emergency 2: 123.100
SP_Flyoff: 124.375
SURF_Boarding: 163.425
SURF_Duty chart: 163.800
SURF_O&D Service: 163.325
SURF_Search & Rescue: 164.000
SURF_Security: 163.750
SURF_Tower surf: 163.650
SURF_Vehicles: 163.850
UNNT_Backup frequency: 127.100
UNNT_Novosibirsk-Approach: 127.500
UNNT_Novosibirsk-Ground: 121.700
UNNT_Novosibirsk-Radar: 122.000
UNNT_Novosibirsk-Tower: 118.500
UNNT_Novosibirsk-Transit: 131.600
UNNT_S7 FOCC: 131.925

UNOO Gnd/Tower/App
Omsk, Russia

Feed Status: DOWN
Offline since: 2021-07-24 04:04:40 UTC

UNOO 250630Z 16007MPS 9999 SCT033CB BKN040 31/10 Q1002 R07/120060 NOSIG RMK QFE743

Aerodrom Kalachevo: 123.300
Aerodrom Marianovka: 123.000
Emergency/Guard: 121.500
Novosibirsk Control (Sector 7): 132.500
Novosibirsk Control (Sector 8): 132.900
Omsk Approach (FL060-FL265): 131.200
Omsk Apron: 118.800
Omsk Start/Radar: 119.000
Omsk Taxiing: 121.700
Omsk Transit: 131.700
UNOS/OMSK-Severny: 124.000

UNTT Gnd/Info/Radar/Control (Archives)
Tomsk, Russia

Feed Status: UP
Listen in your browser - HTML5 player(in browser, HTML5)
Click here to listen with your own player(launches your MP3 player)

UNTT Flight Activity (Flightaware)

Listeners: 0 out of 1219 total

Common Backup Frequency: 129.000
Emergency/Guard: 121.500
Kemerovo Approach: 125.500
Novosibirsk Control (Sector 3): 129.300
Novosibirsk Control (Sector 5): 132.300
Novosibirsk Control (Sector 9): 134.400
Tomsk Ground: 118.800
Tomsk Information (Sector 3): 129.800
Tomsk Tower: 127.300
Tomsk Transit: 131.875
Troynik (Golovino): 122.400

URKK Gnd/Twr/App
Krasnodar, Russia

Feed Status: DOWN
Offline since: 2021-07-10 08:55:40 UTC

URKK 250630Z 07004MPS 030V120 CAVOK 27/16 Q1014 R05R/CLRD70 NOSIG RMK QFE757

Krasnodar Approach: 129.600
Krasnodar Ground: 119.000
Krasnodar Radar: 121.300
Krasnodar Tower: 118.200

URMT Twr/App/Control (Archives)
Stavropol, Russia

Feed Status: UP
Listen in your browser - HTML5 player(in browser, HTML5)
Click here to listen with your own player(launches your MP3 player)

URMT 250630Z 11006MPS 9999 SCT026 25/16 Q1016 R07/010070 NOSIG RMK QFE722

URMT Flight Activity (Flightaware)

Listeners: 0 out of 1219 total

Stavropol Approach: 120.300
Stavropol Control: 118.250
Stavropol Tower: 120.900

URSS Gnd/Twr/App (Archives)
Sochi, Russia

Feed Status: UP
Listen in your browser - HTML5 player(in browser, HTML5)
Click here to listen with your own player(launches your MP3 player)

URSS 250630Z 11002MPS 080V170 9999 FEW020CB 25/21 Q1012 R02/010070 R06/010070 TEMPO -TSRA BKN020CB RMK R06/14002G05MPS MT OBSC QFE757

URSS Flight Activity (Flightaware)

Listeners: 2 out of 1219 total

Sochi Approach: 118.300
Sochi Approach: 119.700
Sochi District (Small Aircraft): 118.500
Sochi Start: 121.200
Sochi Taxi: 119.000
Sochi Tower: 124.600

USDD Gnd/Twr/App/Control (Archives)
Salekhard, Russia

Feed Status: UP
Listen in your browser - HTML5 player(in browser, HTML5)
Click here to listen with your own player(launches your MP3 player)


USDD Flight Activity (Flightaware)

Listeners: 0 out of 1219 total

Salekhard Control: 132.300
Salekhard Ground: 118.800
Salekhard Info: 125.200
Salekhard Krug: 120.800
Salekhard Tower: 118.600
Salekhard Transit: 131.700

USTR Gnd/Twr/App (Archives)
Tyumen, Russia

Feed Status: UP
Listen in your browser - HTML5 player(in browser, HTML5)
Click here to listen with your own player(launches your MP3 player)

USTR 250630Z 32007MPS 9999 SCT022CB 21/16 Q1008 R30/CLRD65 R21/CLRD65 NOSIG

USTR Flight Activity (Flightaware)

Listeners: 0 out of 1219 total

Tyumen Approach: 126.100
Tyumen Control: 132.600
Tyumen Control: 133.600
Tyumen Info (Regional): 133.400
Tyumen Start: 118.200
Tyumen Transit: 131.800

USUU Twr/App/Control (Archives)
Kurgan, Russia

Feed Status: UP
Listen in your browser - HTML5 player(in browser, HTML5)
Click here to listen with your own player(launches your MP3 player)

USUU Flight Activity (Flightaware)

Listeners: 0 out of 1219 total

Aerodromnaya 50: 164.100
Baggage Handling: 164.025
Kurgan Approach: 120.300
Kurgan Tower: 134.300
Kurgan/USUU Transit: 131.700
Kurtamysh: 122.450
Ural Control Sector 4: 119.700
USUL Tower: 129.600

UUEE Twr/App/Radar (Archives)
Moscow, Russia

Feed Status: UP
Listen in your browser - HTML5 player(in browser, HTML5)
Click here to listen with your own player(launches your MP3 player)

UUEE 250630Z 25004MPS CAVOK 20/09 Q1020 R24C/CLRD62 R24R/CLRD62 NOSIG

UUEE Flight Activity (Flightaware)

Listeners: 0 out of 1219 total

Sheremetyevo Radar: 118.100
Sheremetyevo Radar/Departure: 126.600
Sheremetyevo Tower: 131.500
Sheremetyevo Tower (Rwy 24R/06L): 118.700

VHHH ATIS
Hong Kong, Hong Kong

Feed Status: DOWN
Offline since: 2020-04-09 19:09:06 UTC

VHHH 250630Z 26009KT 9999 FEW025 33/25 Q0998 NOSIG

Hong Kong Arrival ATIS: 128.200

VHHH Clearance Delivery
Hong Kong, Hong Kong

Feed Status: DOWN
Offline since: 2020-04-09 19:09:06 UTC

VHHH 250630Z 26009KT 9999 FEW025 33/25 Q0998 NOSIG

Hong Kong Clearance Delivery: 129.900

VHHH Ground
Hong Kong, Hong Kong

Feed Status: DOWN
Offline since: 2020-04-09 19:08:40 UTC

VHHH 250630Z 26009KT 9999 FEW025 33/25 Q0998 NOSIG

Hong Kong Ground (North): 121.600
Hong Kong Ground (South): 122.550

VHHH Ground (North)
Hong Kong, Hong Kong

Feed Status: DOWN
Offline since: 2020-04-09 19:09:06 UTC

VHHH 250630Z 26009KT 9999 FEW025 33/25 Q0998 NOSIG

Hong Kong Ground (North): 121.600

VHHH Ground (South)
Hong Kong, Hong Kong

Feed Status: DOWN
Offline since: 2020-04-09 19:09:06 UTC

VHHH 250630Z 26009KT 9999 FEW025 33/25 Q0998 NOSIG

Hong Kong Ground (South): 122.550

VMMC Tower (Archives)
Taipa, China

Feed Status: UP
Listen in your browser - HTML5 player(in browser, HTML5)
Click here to listen with your own player(launches your MP3 player)

VMMC 250630Z 17009KT 9999 FEW025 SCT040 32/28 Q0998 NOSIG

VMMC Flight Activity (Flightaware)

Listeners: 5 out of 1219 total

Macau Tower: 118.000

VTBS Approach (East)
Bangkok, Thailand

Feed Status: DOWN
Offline since: 2021-07-23 04:54:06 UTC

VTBS 250630Z 20011KT 9999 FEW020 SCT030 BKN090 30/24 Q1006 NOSIG

Bangkok Approach (East): 122.350

VTBS Approach 119.1
Bangkok, Thailand

Feed Status: DOWN
Offline since: 2021-07-23 04:54:06 UTC

VTBS 250630Z 20011KT 9999 FEW020 SCT030 BKN090 30/24 Q1006 NOSIG

Bangkok Approach: 119.100

VTBS Approach 119.4
Bangkok, Thailand

Feed Status: DOWN
Offline since: 2021-07-23 04:54:06 UTC

VTBS 250630Z 20011KT 9999 FEW020 SCT030 BKN090 30/24 Q1006 NOSIG

Bangkok Approach: 119.400

VTBS Approach 120.3
Bangkok, Thailand

Feed Status: DOWN
Offline since: 2021-07-23 04:54:06 UTC

VTBS 250630Z 20011KT 9999 FEW020 SCT030 BKN090 30/24 Q1006 NOSIG

Bangkok Approach: 120.300

VTBS Approach/Arrival
Bangkok, Thailand

Feed Status: DOWN
Offline since: 2021-07-23 04:54:06 UTC

VTBS 250630Z 20011KT 9999 FEW020 SCT030 BKN090 30/24 Q1006 NOSIG

Bangkok Approach: 124.350
Bangkok Approach: 125.200
Bangkok Approach: 126.300
Bangkok Approach (North): 128.950
Bangkok Arrival (VTBD): 133.000

VTBS Arrival 121.1
Bangkok, Thailand

Feed Status: DOWN
Offline since: 2021-07-23 04:54:06 UTC

VTBS 250630Z 20011KT 9999 FEW020 SCT030 BKN090 30/24 Q1006 NOSIG

Bangkok Arrival: 121.100

VTBS ATIS
Bangkok, Thailand

Feed Status: DOWN
Offline since: 2021-07-23 04:54:06 UTC

VTBS 250630Z 20011KT 9999 FEW020 SCT030 BKN090 30/24 Q1006 NOSIG

Bangkok D-ATIS: 127.650

VTBS Departure
Bangkok, Thailand

Feed Status: DOWN
Offline since: 2021-07-23 04:54:06 UTC

VTBS 250630Z 20011KT 9999 FEW020 SCT030 BKN090 30/24 Q1006 NOSIG

Bangkok Departure: 119.250

VTBS Ground (All)
Bangkok, Thailand

Feed Status: DOWN
Offline since: 2021-07-23 04:54:06 UTC

VTBS 250630Z 20011KT 9999 FEW020 SCT030 BKN090 30/24 Q1006 NOSIG

Bangkok Ground (East): 121.650
Bangkok Ground (Main): 121.750
Bangkok Ground (West): 121.950

VTBS Ground (East)
Bangkok, Thailand

Feed Status: DOWN
Offline since: 2021-07-23 04:54:06 UTC

VTBS 250630Z 20011KT 9999 FEW020 SCT030 BKN090 30/24 Q1006 NOSIG

Bangkok Ground (East): 121.650

VTBS Ground (Main)
Bangkok, Thailand

Feed Status: DOWN
Offline since: 2021-07-23 04:54:06 UTC

VTBS 250630Z 20011KT 9999 FEW020 SCT030 BKN090 30/24 Q1006 NOSIG

Bangkok Ground (Main): 121.750

VTBS Ground (West)
Bangkok, Thailand

Feed Status: DOWN
Offline since: 2021-07-23 04:54:06 UTC

VTBS 250630Z 20011KT 9999 FEW020 SCT030 BKN090 30/24 Q1006 NOSIG

Bangkok Ground (West): 121.950

VTBS Tower
Bangkok, Thailand

Feed Status: DOWN
Offline since: 2021-07-23 04:54:06 UTC

VTBS 250630Z 20011KT 9999 FEW020 SCT030 BKN090 30/24 Q1006 NOSIG

Bangkok Tower (Rwy 01L/19R): 119.000
Bangkok Tower (Rwy 01R/19L): 118.200

VTBS Tower (Rwy 01L/19R)
Bangkok, Thailand

Feed Status: DOWN
Offline since: 2021-07-23 04:54:06 UTC

VTBS 250630Z 20011KT 9999 FEW020 SCT030 BKN090 30/24 Q1006 NOSIG

Bangkok Tower (Rwy 01L/19R): 119.000

VTBS Tower (Rwy 01R/19L)
Bangkok, Thailand

Feed Status: DOWN
Offline since: 2021-07-23 04:54:06 UTC

VTBS 250630Z 20011KT 9999 FEW020 SCT030 BKN090 30/24 Q1006 NOSIG

Bangkok Tower (Rwy 01R/19L): 118.200

VTSS Approach (Archives)
Songkhla, Thailand

Feed Status: UP
Listen in your browser - HTML5 player(in browser, HTML5)
Click here to listen with your own player(launches your MP3 player)

VTSS 250630Z 25009KT 9999 FEW020 BKN100 33/24 Q1008 NOSIG

VTSS Flight Activity (Flightaware)

Listeners: 1 out of 1219 total

Hat Yai Approach: 126.700

WAHH Approach
Yogyakarta, Indonesia

Feed Status: DOWN
Offline since: 2019-01-09 17:03:03 UTC

Adisutjipto Approach: 123.400

WBKK Gnd/Twr/Radar/Control (Archives)
Kota Kinabalu, Malaysia

Feed Status: UP
Listen in your browser - HTML5 player(in browser, HTML5)
Click here to listen with your own player(launches your MP3 player)

WBKK 250630Z 29006KT 240V030 9999 FEW015 33/28 Q1007 NOSIG


Listeners: 7 out of 1219 total

Kinabalu Director: 119.100
Kinabalu Ground: 121.600
Kinabalu Radar: 126.100
Kinabalu Radar: 132.450
Kinabalu Radar: 128.300
Kinabalu Tower: 118.300

WBKS Approach (Archives)
Sandakan, Malaysia

Feed Status: UP
Listen in your browser - HTML5 player(in browser, HTML5)
Click here to listen with your own player(launches your MP3 player)

WBKS 250600Z 22007KT 160V280 9999 FEW016 35/23 Q1007


Listeners: 2 out of 1219 total

Sandakan Approach/Departure: 123.200

WBKS ATIS (Archives)
Sandakan, Malaysia

Feed Status: UP
Listen in your browser - HTML5 player(in browser, HTML5)
Click here to listen with your own player(launches your MP3 player)

WBKS 250600Z 22007KT 160V280 9999 FEW016 35/23 Q1007


Listeners: 1 out of 1219 total

Sandakan ATIS: 128.200

WBKS Emergency/Guard (Archives)
Sandakan, Malaysia

Feed Status: UP
Listen in your browser - HTML5 player(in browser, HTML5)
Click here to listen with your own player(launches your MP3 player)

WBKS 250600Z 22007KT 160V280 9999 FEW016 35/23 Q1007


Listeners: 1 out of 1219 total

Emergency/Guard: 121.500

WBKS Gnd/Twr/App/Guard (Archives)
Sandakan, Malaysia

Feed Status: UP
Listen in your browser - HTML5 player(in browser, HTML5)
Click here to listen with your own player(launches your MP3 player)

WBKS 250600Z 22007KT 160V280 9999 FEW016 35/23 Q1007


Listeners: 1 out of 1219 total

Emergency/Guard: 121.500
Sandakan Approach/Departure: 123.200
Sandakan Ground: 121.900
Sandakan Tower: 122.050

WBKS Ground (Archives)
Sandakan, Malaysia

Feed Status: UP
Listen in your browser - HTML5 player(in browser, HTML5)
Click here to listen with your own player(launches your MP3 player)

WBKS 250600Z 22007KT 160V280 9999 FEW016 35/23 Q1007


Listeners: 1 out of 1219 total

Sandakan Ground: 121.900

WBKS Tower (Archives)
Sandakan, Malaysia

Feed Status: UP
Listen in your browser - HTML5 player(in browser, HTML5)
Click here to listen with your own player(launches your MP3 player)

WBKS 250600Z 22007KT 160V280 9999 FEW016 35/23 Q1007


Listeners: 1 out of 1219 total

Sandakan Tower: 122.050

WMKB Radar (Archives)
Penang, Malaysia

Feed Status: UP
Listen in your browser - HTML5 player(in browser, HTML5)
Click here to listen with your own player(launches your MP3 player)

WMKB 250600Z 23007KT 180V290 9000 FEW020 33/24 Q1009 NOSIG


Listeners: 1 out of 1219 total

Butterworth Radar: 125.800

WMKK Control/Info/Radar
Sepang, Malaysia

Feed Status: DOWN
Offline since: 2021-05-04 16:49:22 UTC

WMKK 250630Z VRB07KT 9999 FEW017CB SCT018 33/25 Q1009 NOSIG

Lumpur Departure: 120.350
Lumpur Departure: 124.650
Lumpur Departure: 125.100
Lumpur Departure: 135.250
Lumpur Departure: 135.750
Lumpur Information (North): 134.650
Lumpur Information (South): 126.100
Lumpur Radar: 133.700
Lumpur Radar: 132.600
Lumpur Radar: 133.400
Lumpur Radar: 119.450
Lumpur Radar: 125.850
Lumpur Radar: 118.650
Lumpur Radar: 124.200
Lumpur Radar: 121.250
Lumpur Radar: 128.350
Lumpur Radar (East): 134.250
Lumpur Radar (North): 132.800
Lumpur Radar (South): 123.750

WMSA Del/Gnd/Twr/App
Subang, Malaysia

Feed Status: DOWN
Offline since: 2021-05-04 16:49:22 UTC

WMSA 250600Z 18008KT 070V240 9999 FEW017CB 32/23 Q1010 RETS

Lumpur Approach: 119.450
Lumpur Director: 124.200
Subang Clearance Delivery: 126.000
Subang Ground: 121.900
Subang Tower: 118.200

YADG CTAF (Archives)
Sellicks Hill, South Australia, Australia

Feed Status: UP
Listen in your browser - HTML5 player(in browser, HTML5)
Click here to listen with your own player(launches your MP3 player)

YADG Flight Activity (Flightaware)

Listeners: 0 out of 1219 total

Aldinga CTAF: 127.150

YBAF Gnd/Twr #2 (Archives)
Brisbane, Queensland, Australia

Feed Status: UP
Listen in your browser - HTML5 player(in browser, HTML5)
Click here to listen with your own player(launches your MP3 player)

YBAF Flight Activity (Flightaware)

Listeners: 0 out of 1219 total

Brisbane Ground: 119.900
Brisbane Tower (North): 123.600
Brisbane Tower/CTAF (South): 118.100

YBAS Tower/Center (Archives)
Alice Springs, Northern Territory, Australia

Feed Status: UP
Listen in your browser - HTML5 player(in browser, HTML5)
Click here to listen with your own player(launches your MP3 player)

YBAS 250630Z AUTO 11008KT 9999 // NCD 21/M04 Q1018 RF00.0/000.0

YBAS Flight Activity (Flightaware)

Listeners: 2 out of 1219 total

Alice Tower/CTAF: 118.300
Melbourne Center (above FL280): 128.850
Melbourne Center (below FL280): 119.800

Brisbane Center (128.6/YSSY) (Archives)
Brisbane, Queensland, Australia

Feed Status: UP
Listen in your browser - HTML5 player(in browser, HTML5)
Click here to listen with your own player(launches your MP3 player)

YSSY 250649Z 27017G27KT CAVOK 13/M03 Q1009

YSSY Flight Activity (Flightaware)

Listeners: 0 out of 1219 total

Brisbane Center: 128.600

YBBN Center (Archives)
Brisbane, Queensland, Australia

Feed Status: UP
Listen in your browser - HTML5 player(in browser, HTML5)
Click here to listen with your own player(launches your MP3 player)

YBBN 250630Z 28020KT CAVOK 19/02 Q1012

YBBN Flight Activity (Flightaware)

Listeners: 2 out of 1219 total

Brisbane Center (East): 132.850
Brisbane Center (North): 123.000
Brisbane Center (South): 128.150
Brisbane Center (West): 134.300

YBBN Gnd/Twr/App/Dep (Archives)
Brisbane, Queensland, Australia

Feed Status: UP
Listen in your browser - HTML5 player(in browser, HTML5)
Click here to listen with your own player(launches your MP3 player)

YBBN 250630Z 28020KT CAVOK 19/02 Q1012

YBBN Flight Activity (Flightaware)

Listeners: 0 out of 1219 total

Brisbane Approach: 123.500
Brisbane Approach/Departure (North): 124.700
Brisbane Approach/Departure (South): 125.600
Brisbane Departure: 128.300
Brisbane Departure: 133.450
Brisbane Ground: 121.700
Brisbane Tower: 120.500

YBBN Twr/App/Center (Archives)
Brisbane, Queensland, Australia

Feed Status: UP
Listen in your browser - HTML5 player(in browser, HTML5)
Click here to listen with your own player(launches your MP3 player)

YBBN 250630Z 28020KT CAVOK 19/02 Q1012

YBBN Flight Activity (Flightaware)

Listeners: 1 out of 1219 total

Brisbane Center (East): 134.300
Brisbane Center (West): 135.600
YBBN Approach North-West: 124.700
YBBN Approach South-East: 125.600
YBBN Tower 01L/19R (Northern Runway): 118.000
YBBN Tower 01R/19L (Southern Runway): 120.500

YBBN Twr/App/Dep (Archives)
Brisbane, Queensland, Australia

Feed Status: UP
Listen in your browser - HTML5 player(in browser, HTML5)
Click here to listen with your own player(launches your MP3 player)

YBBN 250630Z 28020KT CAVOK 19/02 Q1012

YBBN Flight Activity (Flightaware)

Listeners: 0 out of 1219 total

Brisbane Approach: 123.500
Brisbane Approach/Departure (North): 124.700
Brisbane Approach/Departure (South): 125.600
Brisbane Departure: 128.300
Brisbane Departure: 133.450
Brisbane Tower: 120.500

YBCG Approach (Archives)
Gold Coast City, Queensland, Australia

Feed Status: UP
Listen in your browser - HTML5 player(in browser, HTML5)
Click here to listen with your own player(launches your MP3 player)

YBCG 250630Z AUTO 26007KT 9999 // NCD 20/M00 Q1011 RF00.0/000.0

YBCG Flight Activity (Flightaware)

Listeners: 0 out of 1219 total

Brisbane Approach: 123.500

YBCG Area CTAF (Archives)
Gold Coast City, Queensland, Australia

Feed Status: UP
Listen in your browser - HTML5 player(in browser, HTML5)
Click here to listen with your own player(launches your MP3 player)

YBCG 250630Z AUTO 26007KT 9999 // NCD 20/M00 Q1011 RF00.0/000.0

YBCG Flight Activity (Flightaware)

Listeners: 0 out of 1219 total

Gold Coast Area CTAF: 126.700

YBCG Brisbane Centre (Archives)
Gold Coast City, Queensland, Australia

Feed Status: UP
Listen in your browser - HTML5 player(in browser, HTML5)
Click here to listen with your own player(launches your MP3 player)

YBCG 250630Z AUTO 26007KT 9999 // NCD 20/M00 Q1011 RF00.0/000.0

YBCG Flight Activity (Flightaware)

Listeners: 1 out of 1219 total

Brisbane Centre/Radar: 119.500

YBCG Ground (Archives)
Gold Coast City, Queensland, Australia

Feed Status: UP
Listen in your browser - HTML5 player(in browser, HTML5)
Click here to listen with your own player(launches your MP3 player)

YBCG 250630Z AUTO 26007KT 9999 // NCD 20/M00 Q1011 RF00.0/000.0

YBCG Flight Activity (Flightaware)

Listeners: 0 out of 1219 total

Gold Coast Ground: 121.800

YBCG Ground/Tower (Archives)
Gold Coast City, Queensland, Australia

Feed Status: UP
Listen in your browser - HTML5 player(in browser, HTML5)
Click here to listen with your own player(launches your MP3 player)

YBCG 250630Z AUTO 26007KT 9999 // NCD 20/M00 Q1011 RF00.0/000.0

YBCG Flight Activity (Flightaware)

Listeners: 0 out of 1219 total

Gold Coast Ground: 121.800
Gold Coast Tower: 118.700

YBCG Tower (Archives)
Gold Coast City, Queensland, Australia

Feed Status: UP
Listen in your browser - HTML5 player(in browser, HTML5)
Click here to listen with your own player(launches your MP3 player)

YBCG 250630Z AUTO 26007KT 9999 // NCD 20/M00 Q1011 RF00.0/000.0

YBCG Flight Activity (Flightaware)

Listeners: 0 out of 1219 total

Gold Coast Tower: 118.700

YBCS App/Dep #1 (Archives)
Cairns, Queensland, Australia

Feed Status: UP
Listen in your browser - HTML5 player(in browser, HTML5)
Click here to listen with your own player(launches your MP3 player)

YBCS 250630Z AUTO 13009KT 9999 // SCT054 26/14 Q1014

YBCS Flight Activity (Flightaware)

Listeners: 0 out of 1219 total

Cairns Approach/Departure: 118.400

YBCS App/Dep #2 (Archives)
Cairns, Queensland, Australia

Feed Status: UP
Listen in your browser - HTML5 player(in browser, HTML5)
Click here to listen with your own player(launches your MP3 player)

YBCS 250630Z AUTO 13009KT 9999 // SCT054 26/14 Q1014

YBCS Flight Activity (Flightaware)

Listeners: 0 out of 1219 total

Cairns Approach/Departure: 126.100

YBCS App/Dep (all) (Archives)
Cairns, Queensland, Australia

Feed Status: UP
Listen in your browser - HTML5 player(in browser, HTML5)
Click here to listen with your own player(launches your MP3 player)

YBCS 250630Z AUTO 13009KT 9999 // SCT054 26/14 Q1014

YBCS Flight Activity (Flightaware)

Listeners: 0 out of 1219 total

Cairns Approach/Departure: 126.100
Cairns Approach/Departure: 118.400

YBCS Brisbane Centre (Archives)
Cairns, Queensland, Australia

Feed Status: UP
Listen in your browser - HTML5 player(in browser, HTML5)
Click here to listen with your own player(launches your MP3 player)

YBCS 250630Z AUTO 13009KT 9999 // SCT054 26/14 Q1014

YBCS Flight Activity (Flightaware)

Listeners: 1 out of 1219 total

Brisbane Centre: 121.200

YBCS Emergency/Guard (Archives)
Cairns, Queensland, Australia

Feed Status: UP
Listen in your browser - HTML5 player(in browser, HTML5)
Click here to listen with your own player(launches your MP3 player)

YBCS 250630Z AUTO 13009KT 9999 // SCT054 26/14 Q1014

YBCS Flight Activity (Flightaware)

Listeners: 0 out of 1219 total

Emergency/Guard: 121.500

YBCS Ground (Archives)
Cairns, Queensland, Australia

Feed Status: UP
Listen in your browser - HTML5 player(in browser, HTML5)
Click here to listen with your own player(launches your MP3 player)

YBCS 250630Z AUTO 13009KT 9999 // SCT054 26/14 Q1014

YBCS Flight Activity (Flightaware)

Listeners: 0 out of 1219 total

Cairns Ground: 121.700

YBCS Ground/Tower (Archives)
Cairns, Queensland, Australia

Feed Status: UP
Listen in your browser - HTML5 player(in browser, HTML5)
Click here to listen with your own player(launches your MP3 player)

YBCS 250630Z AUTO 13009KT 9999 // SCT054 26/14 Q1014

YBCS Flight Activity (Flightaware)

Listeners: 1 out of 1219 total

Cairns Ground: 121.700
Cairns Tower: 124.900

YBCS Tower (Archives)
Cairns, Queensland, Australia

Feed Status: UP
Listen in your browser - HTML5 player(in browser, HTML5)
Click here to listen with your own player(launches your MP3 player)

YBCS 250630Z AUTO 13009KT 9999 // SCT054 26/14 Q1014

YBCS Flight Activity (Flightaware)

Listeners: 0 out of 1219 total

Cairns Tower: 124.900

YBCV CTAF/Brisbane Center (Archives)
Charleville, Queensland, Australia

Feed Status: UP
Listen in your browser - HTML5 player(in browser, HTML5)
Click here to listen with your own player(launches your MP3 player)

YBCV 250600Z AUTO 20009KT 9999 // NCD 19/M01 Q1017

YBCV Flight Activity (Flightaware)

Listeners: 1 out of 1219 total

Brisbane Center: 124.800
Charleville CTAF/UNICOM: 126.700

YBOK Del/Gnd/Twr/App (Archives)
Oakey, Queensland, Australia

Feed Status: UP
Listen in your browser - HTML5 player(in browser, HTML5)
Click here to listen with your own player(launches your MP3 player)

YBOK Flight Activity (Flightaware)

Listeners: 1 out of 1219 total

Brisbane Center/FSS: 121.200
Oakey Approach: 125.400
Oakey Approach: 123.700
Oakey Approach (Final): 135.850
Oakey Clearance Delivery: 133.350
Oakey CTAF (+YTWB/YBWW): 127.650
Oakey Ground: 121.900
Oakey Tower: 120.100

YBSS CTAF
Bacchus Marsh, Victoria, Australia

Feed Status: DOWN
Offline since: 2021-07-24 16:56:05 UTC

Bacchus Marsh CTAF: 118.800

YBSS Glider 122.5
Bacchus Marsh, Victoria, Australia

Feed Status: DOWN
Offline since: 2021-07-24 16:56:05 UTC

Bacchus Marsh Glider Chat: 122.500

YBSS Glider 122.7
Bacchus Marsh, Victoria, Australia

Feed Status: DOWN
Offline since: 2021-07-24 16:56:05 UTC

Bacchus Marsh Glider Chat: 122.700

YBSS Glider 122.9
Bacchus Marsh, Victoria, Australia

Feed Status: DOWN
Offline since: 2021-07-24 16:56:05 UTC

Bacchus Marsh Glider Chat: 122.900

YBTL Approach/Departure (Archives)
Townsville, Queensland, Australia

Feed Status: UP
Listen in your browser - HTML5 player(in browser, HTML5)
Click here to listen with your own player(launches your MP3 player)

YBTL 250630Z 17008KT CAVOK 28/04 Q1015

YBTL Flight Activity (Flightaware)

Listeners: 2 out of 1219 total

Townsville Approach/Departure: 126.800

YBTL ATIS (Archives)
Townsville, Queensland, Australia

Feed Status: UP
Listen in your browser - HTML5 player(in browser, HTML5)
Click here to listen with your own player(launches your MP3 player)

YBTL 250630Z 17008KT CAVOK 28/04 Q1015

YBTL Flight Activity (Flightaware)

Listeners: 0 out of 1219 total

Townsville ATIS: 133.500

YBTL Brisbane Center (Archives)
Townsville, Queensland, Australia

Feed Status: UP
Listen in your browser - HTML5 player(in browser, HTML5)
Click here to listen with your own player(launches your MP3 player)

YBTL 250630Z 17008KT CAVOK 28/04 Q1015

YBTL Flight Activity (Flightaware)

Listeners: 1 out of 1219 total

Brisbane Center: 120.550

YBTL Clearance Delivery (Archives)
Townsville, Queensland, Australia

Feed Status: UP
Listen in your browser - HTML5 player(in browser, HTML5)
Click here to listen with your own player(launches your MP3 player)

YBTL 250630Z 17008KT CAVOK 28/04 Q1015

YBTL Flight Activity (Flightaware)

Listeners: 0 out of 1219 total

Townsville Clearance Delivery: 128.100

YBTL Ground (Archives)
Townsville, Queensland, Australia

Feed Status: UP
Listen in your browser - HTML5 player(in browser, HTML5)
Click here to listen with your own player(launches your MP3 player)

YBTL 250630Z 17008KT CAVOK 28/04 Q1015

YBTL Flight Activity (Flightaware)

Listeners: 0 out of 1219 total

Townsville Ground: 119.450

YBTL Tower (Archives)
Townsville, Queensland, Australia

Feed Status: UP
Listen in your browser - HTML5 player(in browser, HTML5)
Click here to listen with your own player(launches your MP3 player)

YBTL 250630Z 17008KT CAVOK 28/04 Q1015

YBTL Flight Activity (Flightaware)

Listeners: 0 out of 1219 total

Townsville Tower: 118.300

YGAW CTAF (Archives)
Gawler, South Australia, Australia

Feed Status: UP
Listen in your browser - HTML5 player(in browser, HTML5)
Click here to listen with your own player(launches your MP3 player)


YGAW Flight Activity (Flightaware)

Listeners: 0 out of 1219 total

Gawler CTAF: 126.550

YGLA CTAF (Archives)
Gladstone, Queensland, Australia

Feed Status: UP
Listen in your browser - HTML5 player(in browser, HTML5)
Click here to listen with your own player(launches your MP3 player)

YGLA 250630Z AUTO 26005KT 9999 // NCD 24/M02 Q1014 RF00.0/000.0

YGLA Flight Activity (Flightaware)

Listeners: 0 out of 1219 total

Gladstone CTF/Multicom: 118.800

YGTH AWIS (Archives)
Griffith, New South Wales, Australia

Feed Status: UP
Listen in your browser - HTML5 player(in browser, HTML5)
Click here to listen with your own player(launches your MP3 player)

YGTH 250600Z AUTO 28017KT 9999 // SCT053 12/04 Q1013

YGTH Flight Activity (Flightaware)

Listeners: 0 out of 1219 total

Griffith AWIS Weather: 132.950

YGTH CTAF (Archives)
Griffith, New South Wales, Australia

Feed Status: UP
Listen in your browser - HTML5 player(in browser, HTML5)
Click here to listen with your own player(launches your MP3 player)

YGTH 250600Z AUTO 28017KT 9999 // SCT053 12/04 Q1013

YGTH Flight Activity (Flightaware)

Listeners: 0 out of 1219 total

Griffith CTAF: 126.550

YIVL CTAF/Center (Archives)
Inverell, New South Wales, Australia

Feed Status: UP
Listen in your browser - HTML5 player(in browser, HTML5)
Click here to listen with your own player(launches your MP3 player)

YIVL Flight Activity (Flightaware)

Listeners: 0 out of 1219 total

Brisbane Center: 132.350
Brisbane Center: 127.100
Brisbane Center: 130.900
Brisbane Center (high alt SE Inverell): 130.100
Brisbane Center (high alt): 133.000
Brisbane Center (NE Inverell): 134.200
Brisbane Center (North and East Inverell): 127.200
Brisbane Center (North Inverell high alt): 135.600
Brisbane Center (North Inverell): 121.200
Brisbane Center (SE Inverell): 125.750
Inverell CTAF: 126.700
Tamworth Tower: 119.400

YMAV Del/App (Archives)
Avalon, Victoria, Australia

Feed Status: UP
Listen in your browser - HTML5 player(in browser, HTML5)
Click here to listen with your own player(launches your MP3 player)

YMAV 250630Z AUTO 31017KT 9999 // NCD 12/04 Q1004 RF00.0/000.0

YMAV Flight Activity (Flightaware)

Listeners: 0 out of 1219 total

Avalon Clearance Delivery: 120.100
Melbourne Approach/Departure: 133.550

YMIA CTAF (Archives)
Mildura, Victoria, Australia

Feed Status: UP
Listen in your browser - HTML5 player(in browser, HTML5)
Click here to listen with your own player(launches your MP3 player)

YMIA 250600Z AUTO 31013KT 9999 // SCT046 BKN052 OVC060 15/06 Q1012

YMIA Flight Activity (Flightaware)

Listeners: 0 out of 1219 total

Mildura CTAF: 118.800

YMIA Melbourne Center (Archives)
Mildura, Victoria, Australia

Feed Status: UP
Listen in your browser - HTML5 player(in browser, HTML5)
Click here to listen with your own player(launches your MP3 player)

YMIA 250600Z AUTO 31013KT 9999 // SCT046 BKN052 OVC060 15/06 Q1012

YMIA Flight Activity (Flightaware)

Listeners: 0 out of 1219 total

Melbourne Center: 122.100

YMML Twr/App/Center (Archives)
Melbourne, Victoria, Australia

Feed Status: UP
Listen in your browser - HTML5 player(in browser, HTML5)
Click here to listen with your own player(launches your MP3 player)

YMML 250630Z 32011KT 9999 SCT045 BKN165 10/03 Q1005

YMML Flight Activity (Flightaware)

Listeners: 4 out of 1219 total

Air Ambulance: 132.750
DSE & Other Company: 119.100
Essendon Tower: 125.100
Inter-Pilot: 123.450
Jetstar Company: 130.925
Melbourne ACD: 127.200
Melbourne Approach: 132.000
Melbourne Centre: 130.300
Melbourne Centre: 128.500
Melbourne Centre: 126.800
Melbourne Centre: 125.800
Melbourne Centre: 125.700
Melbourne Centre: 125.200
Melbourne Centre: 123.750
Melbourne Centre: 122.400
Melbourne Departure: 118.900
Melbourne Departure: 129.400
Melbourne Tower: 120.500
Moorabbin Tower (East): 118.100
Moorabbin Tower (West): 123.000
Police Air Wing: 131.600
Qantas Company: 130.850
Qantas Company: 129.500
Rex Company: 126.450
Royal Victorian Aero Club Company: 128.700
Royal Victorian Aero Club Company: 133.400

YPAD Del/Gnd/Twr/App (Archives)
Adelaide, South Australia, Australia

Feed Status: UP
Listen in your browser - HTML5 player(in browser, HTML5)
Click here to listen with your own player(launches your MP3 player)

YPAD 250652Z 31013KT 3000 SHRA SCT014 SCT022 BKN027 13/12 Q1012

YPAD Flight Activity (Flightaware)

Listeners: 3 out of 1219 total

Adelaide Approach (East of Adelaide): 118.200
Adelaide Approach (East of Adelaide): 130.450
Adelaide Approach (Kangaroo Island): 123.050
Adelaide Approach (North of Adelaide): 128.600
Adelaide Approach (West of Adelaide): 124.200
Adelaide Clearance Delivery: 126.100
Adelaide Ground: 121.700
Adelaide Tower: 120.500

YPAD Gnd/Twr/App/Center
Adelaide, South Australia, Australia

Feed Status: DOWN
Offline since: 2021-07-25 06:54:06 UTC

YPAD 250652Z 31013KT 3000 SHRA SCT014 SCT022 BKN027 13/12 Q1012

Adelaide Approach (East of Adelaide): 118.200
Adelaide Approach (East of Adelaide): 130.450
Adelaide Approach (Kangaroo Island): 123.050
Adelaide Approach (North of Adelaide): 128.600
Adelaide Approach (West of Adelaide): 124.200
Adelaide Clearance Delivery: 126.100
Adelaide Ground: 121.700
Adelaide Tower: 120.500
Flight Watch: 135.750
Melbourne Centre: 124.300
Melbourne Centre ( East of Adelaide): 125.300
Melbourne Centre ( Pt Augusta, Pt Pirie, Whyalla): 123.900
Melbourne Centre (Mildura): 122.100
Melbourne Centre (North of Adelaide): 122.400
Melbourne Centre (Pt Lincoln): 125.900
Melbourne Centre (West of Adelaide ): 127.050

YPDN Gnd/Twr/App/Dep (Archives)
Darwin, Northern Territory, Australia

Feed Status: UP
Listen in your browser - HTML5 player(in browser, HTML5)
Click here to listen with your own player(launches your MP3 player)

YPDN 250630Z 31009KT 9999 FEW040 29/20 Q1012

YPDN Flight Activity (Flightaware)

Listeners: 3 out of 1219 total

Darwin Approach: 134.100
Darwin Arrival: 125.200
Darwin Departure: 119.550
Darwin Ground: 121.800
Darwin Tower: 133.100

YPJT Gnd/Twr (Archives)
Perth, Western Australia, Australia

Feed Status: UP
Listen in your browser - HTML5 player(in browser, HTML5)
Click here to listen with your own player(launches your MP3 player)

YPJT 250630Z AUTO 30014KT 9999 // BKN038 BKN045 OVC056 19/12 Q1017

YPJT Flight Activity (Flightaware)

Listeners: 1 out of 1219 total

Jandakot Ground: 124.300
Jandakot Tower: 119.400
Jandakot Tower/CTAF: 118.100

YPMQ CTAF (Archives)
Port Macquarie, New South Wales, Australia

Feed Status: UP
Listen in your browser - HTML5 player(in browser, HTML5)
Click here to listen with your own player(launches your MP3 player)

YPMQ Flight Activity (Flightaware)

Listeners: 0 out of 1219 total

Port Macquarie CTAF/Multicom: 118.100

YPPH Approach #1 (Archives)
Perth, Western Australia, Australia

Feed Status: UP
Listen in your browser - HTML5 player(in browser, HTML5)
Click here to listen with your own player(launches your MP3 player)

YPPH 250630Z 30014KT 9999 SCT036 SCT055 19/10 Q1017

YPPH Flight Activity (Flightaware)

Listeners: 1 out of 1219 total

Perth Approach: 123.600

YPPH Approach #2 (Archives)
Perth, Western Australia, Australia

Feed Status: UP
Listen in your browser - HTML5 player(in browser, HTML5)
Click here to listen with your own player(launches your MP3 player)

YPPH 250630Z 30014KT 9999 SCT036 SCT055 19/10 Q1017

YPPH Flight Activity (Flightaware)

Listeners: 1 out of 1219 total

Perth Approach: 123.600

YPPH Departure (Archives)
Perth, Western Australia, Australia

Feed Status: UP
Listen in your browser - HTML5 player(in browser, HTML5)
Click here to listen with your own player(launches your MP3 player)

YPPH 250630Z 30014KT 9999 SCT036 SCT055 19/10 Q1017

YPPH Flight Activity (Flightaware)

Listeners: 2 out of 1219 total

Perth Departure: 118.700

YPPH Ground (Archives)
Perth, Western Australia, Australia

Feed Status: UP
Listen in your browser - HTML5 player(in browser, HTML5)
Click here to listen with your own player(launches your MP3 player)

YPPH 250630Z 30014KT 9999 SCT036 SCT055 19/10 Q1017

YPPH Flight Activity (Flightaware)

Listeners: 1 out of 1219 total

Perth Ground: 121.700

YPPH Tower #1 (Archives)
Perth, Western Australia, Australia

Feed Status: UP
Listen in your browser - HTML5 player(in browser, HTML5)
Click here to listen with your own player(launches your MP3 player)

YPPH 250630Z 30014KT 9999 SCT036 SCT055 19/10 Q1017

YPPH Flight Activity (Flightaware)

Listeners: 1 out of 1219 total

Perth Tower: 127.400

YPPH Tower #2 (Archives)
Perth, Western Australia, Australia

Feed Status: UP
Listen in your browser - HTML5 player(in browser, HTML5)
Click here to listen with your own player(launches your MP3 player)

YPPH 250630Z 30014KT 9999 SCT036 SCT055 19/10 Q1017

YPPH Flight Activity (Flightaware)

Listeners: 0 out of 1219 total

Perth Tower: 127.400

YRYW 122.5 (Archives)
Raywood, Victoria, Australia

Feed Status: UP
Listen in your browser - HTML5 player(in browser, HTML5)
Click here to listen with your own player(launches your MP3 player)


YRYW Flight Activity (Flightaware)

Listeners: 0 out of 1219 total


YRYW 122.7 (Archives)
Raywood, Victoria, Australia

Feed Status: UP
Listen in your browser - HTML5 player(in browser, HTML5)
Click here to listen with your own player(launches your MP3 player)


YRYW Flight Activity (Flightaware)

Listeners: 0 out of 1219 total


YRYW 122.9 (Archives)
Raywood, Victoria, Australia

Feed Status: UP
Listen in your browser - HTML5 player(in browser, HTML5)
Click here to listen with your own player(launches your MP3 player)


YRYW Flight Activity (Flightaware)

Listeners: 0 out of 1219 total


YRYW CTAF (Archives)
Raywood, Victoria, Australia

Feed Status: UP
Listen in your browser - HTML5 player(in browser, HTML5)
Click here to listen with your own player(launches your MP3 player)


YRYW Flight Activity (Flightaware)

Listeners: 0 out of 1219 total

Raywood CTAF: 119.300

YSBK ATIS (Archives)
Bankstown, New South Wales, Australia

Feed Status: UP
Listen in your browser - HTML5 player(in browser, HTML5)
Click here to listen with your own player(launches your MP3 player)

YSBK Flight Activity (Flightaware)

Listeners: 0 out of 1219 total

Bankstown ATIS: 120.900

YSBK Tower (Archives)
Bankstown, New South Wales, Australia

Feed Status: UP
Listen in your browser - HTML5 player(in browser, HTML5)
Click here to listen with your own player(launches your MP3 player)

YSBK Flight Activity (Flightaware)

Listeners: 0 out of 1219 total

Bankstown Tower: 132.800

YSCN Tower/CTAF (Archives)
Camden, New South Wales, Australia

Feed Status: UP
Listen in your browser - HTML5 player(in browser, HTML5)
Click here to listen with your own player(launches your MP3 player)

YSCN Flight Activity (Flightaware)

Listeners: 0 out of 1219 total

Camden Tower/CTAF: 120.100

YSNW Gnd/CTAF/App/Center
Nowra, New South Wales, Australia

Feed Status: DOWN
Offline since: 2021-07-25 02:45:40 UTC

YSNW 250600Z AUTO 24016KT 240V330 9999 // OVC056 11/M00 Q1007

Enroute: 132.300
Nowra Approach: 123.500
Nowra CTAF: 118.850
Nowra Ground: 135.850

Brisbane Center (128.6/YSSY) (Archives)
Sydney, New South Wales, Australia

Feed Status: UP
Listen in your browser - HTML5 player(in browser, HTML5)
Click here to listen with your own player(launches your MP3 player)

YSSY 250649Z 27017G27KT CAVOK 13/M03 Q1009

YSSY Flight Activity (Flightaware)

Listeners: 0 out of 1219 total

Brisbane Center: 128.600

YSSY Approach (North/East) (Archives)
Sydney, New South Wales, Australia

Feed Status: UP
Listen in your browser - HTML5 player(in browser, HTML5)
Click here to listen with your own player(launches your MP3 player)

YSSY 250649Z 27017G27KT CAVOK 13/M03 Q1009

YSSY Flight Activity (Flightaware)

Listeners: 1 out of 1219 total

Sydney Approach (North/East): 124.400

YSSY Approach (South) (Archives)
Sydney, New South Wales, Australia

Feed Status: UP
Listen in your browser - HTML5 player(in browser, HTML5)
Click here to listen with your own player(launches your MP3 player)

YSSY 250649Z 27017G27KT CAVOK 13/M03 Q1009

YSSY Flight Activity (Flightaware)

Listeners: 0 out of 1219 total

Sydney Approach (South/West): 128.300

YSSY ATIS (Archives)
Sydney, New South Wales, Australia

Feed Status: UP
Listen in your browser - HTML5 player(in browser, HTML5)
Click here to listen with your own player(launches your MP3 player)

YSSY 250649Z 27017G27KT CAVOK 13/M03 Q1009

YSSY Flight Activity (Flightaware)

Listeners: 0 out of 1219 total

Sydney ATIS: 118.550

YSSY Center (South/West) (Archives)
Sydney, New South Wales, Australia

Feed Status: UP
Listen in your browser - HTML5 player(in browser, HTML5)
Click here to listen with your own player(launches your MP3 player)

YSSY 250649Z 27017G27KT CAVOK 13/M03 Q1009

YSSY Flight Activity (Flightaware)

Listeners: 1 out of 1219 total

Sydney Center: 124.550

YSSY Del/Gnd (Archives)
Sydney, New South Wales, Australia

Feed Status: UP
Listen in your browser - HTML5 player(in browser, HTML5)
Click here to listen with your own player(launches your MP3 player)

YSSY 250649Z 27017G27KT CAVOK 13/M03 Q1009

YSSY Flight Activity (Flightaware)

Listeners: 1 out of 1219 total

Sydney Clearance Delivery: 133.800
Sydney Ground (East of Rwys 16R/34L): 121.700
Sydney Ground (West of Rwys 16R/34L): 126.500

YSSY Departure (North/East) (Archives)
Sydney, New South Wales, Australia

Feed Status: UP
Listen in your browser - HTML5 player(in browser, HTML5)
Click here to listen with your own player(launches your MP3 player)

YSSY 250649Z 27017G27KT CAVOK 13/M03 Q1009

YSSY Flight Activity (Flightaware)

Listeners: 0 out of 1219 total

Sydney Departure (North/East): 123.000

YSSY Departure (South/West) (Archives)
Sydney, New South Wales, Australia

Feed Status: UP
Listen in your browser - HTML5 player(in browser, HTML5)
Click here to listen with your own player(launches your MP3 player)

YSSY 250649Z 27017G27KT CAVOK 13/M03 Q1009

YSSY Flight Activity (Flightaware)

Listeners: 0 out of 1219 total

Sydney Departure (Rte S, W and NW): 129.700

YSSY Director (Both)
Sydney, New South Wales, Australia

Feed Status: DOWN
Offline since: 2020-04-14 09:59:06 UTC

YSSY 250649Z 27017G27KT CAVOK 13/M03 Q1009

Sydney Director (East): 125.300
Sydney Director (West): 126.100

YSSY Director (East) (Archives)
Sydney, New South Wales, Australia

Feed Status: UP
Listen in your browser - HTML5 player(in browser, HTML5)
Click here to listen with your own player(launches your MP3 player)

YSSY 250649Z 27017G27KT CAVOK 13/M03 Q1009

YSSY Flight Activity (Flightaware)

Listeners: 0 out of 1219 total

Sydney Director (East): 125.300

YSSY Tower (Both) (Archives)
Sydney, New South Wales, Australia

Feed Status: UP
Listen in your browser - HTML5 player(in browser, HTML5)
Click here to listen with your own player(launches your MP3 player)

YSSY 250649Z 27017G27KT CAVOK 13/M03 Q1009

YSSY Flight Activity (Flightaware)

Listeners: 2 out of 1219 total

Sydney Tower (Rwy 16L/34R): 124.700
Sydney Tower (Rwy 16R/34L, Rwy 07/25): 120.500

YSSY Tower (Rwy 16L/34R) (Archives)
Sydney, New South Wales, Australia

Feed Status: UP
Listen in your browser - HTML5 player(in browser, HTML5)
Click here to listen with your own player(launches your MP3 player)

YSSY 250649Z 27017G27KT CAVOK 13/M03 Q1009

YSSY Flight Activity (Flightaware)

Listeners: 0 out of 1219 total

Sydney Tower (Rwy 16L/34R): 124.700

YSSY Tower (Rwys 16R/34L,7/25) (Archives)
Sydney, New South Wales, Australia

Feed Status: UP
Listen in your browser - HTML5 player(in browser, HTML5)
Click here to listen with your own player(launches your MP3 player)

YSSY 250649Z 27017G27KT CAVOK 13/M03 Q1009

YSSY Flight Activity (Flightaware)

Listeners: 2 out of 1219 total

Sydney Tower (Rwy 16R/34L, Rwy 07/25): 120.500

YSSY/YMMB/YBBN Centers (Archives)
Sydney, New South Wales, Australia

Feed Status: UP
Listen in your browser - HTML5 player(in browser, HTML5)
Click here to listen with your own player(launches your MP3 player)


Listeners: 8 out of 1219 total

Brisbane Center: 123.400
Brisbane Center: 128.600
Melbourne Center: 133.500
Melbourne Center: 118.500
Sydney Departures: 118.400

YWBN CTAF/Center (Archives)
Wedderburn, New South Wales, Australia

Feed Status: UP
Listen in your browser - HTML5 player(in browser, HTML5)
Click here to listen with your own player(launches your MP3 player)

YWBN Flight Activity (Flightaware)

Listeners: 0 out of 1219 total

Sydney Center: 124.550
Wedderburn CTAF/Multicom: 122.550

ZBAA Tower
Beijing, China

Feed Status: DOWN
Offline since: 2021-07-24 04:36:39 UTC

ZBAA 250630Z 17005MPS CAVOK 32/25 Q1002 NOSIG

Beijing Tower (Rwy 01/19): 118.600

ZYCY Tower
Chaoyang, China

Feed Status: DOWN
Offline since: 2020-07-23 03:04:23 UTC


Chaoyang Tower: 118.350